<?xml version="1.0" encoding="UTF-8" standalone="no" ?><gpx xmlns="http://www.topografix.com/GPX/1/1" xmlns:gpxx="http://www.garmin.com/xmlschemas/GpxExtensions/v3" xmlns:wptx1="http://www.garmin.com/xmlschemas/WaypointExtension/v1" xmlns:gpxtpx="http://www.garmin.com/xmlschemas/TrackPointExtension/v1" creator="GuideVTT.com" version="1.1" xmlns:xsi="http://www.w3.org/2001/XMLSchema-instance" xsi:schemaLocation="http://www.topografix.com/GPX/1/1 http://www.topografix.com/GPX/1/1/gpx.xsd http://www.garmin.com/xmlschemas/GpxExtensions/v3 http://www8.garmin.com/xmlschemas/GpxExtensionsv3.xsd http://www.garmin.com/xmlschemas/WaypointExtension/v1 http://www8.garmin.com/xmlschemas/WaypointExtensionv1.xsd http://www.garmin.com/xmlschemas/TrackPointExtension/v1 http://www.garmin.com/xmlschemas/TrackPointExtensionv1.xsd">
<metadata><link href="http://www.garmin.com"><text>Garmin International</text></link><time>2013-06-22T15:13:50Z</time></metadata>
<trk><name>iserable-tra-riddes.gpx</name><extensions><gpxx:TrackExtension><gpxx:DisplayColor>Cyan</gpxx:DisplayColor></gpxx:TrackExtension></extensions><trkseg>
<trkpt lat="46.17038794" lon="7.22181592"><ele>492</ele><time>2011-11-12T08:12:53Z</time></trkpt>
<trkpt lat="46.16381795" lon="7.24410298"><ele>1109.599976</ele><time>2011-11-12T08:23:19Z</time></trkpt>
<trkpt lat="46.16375693" lon="7.24410994"><ele>1109.199951</ele><time>2011-11-12T08:23:24Z</time></trkpt>
<trkpt lat="46.16375693" lon="7.24410994"><ele>1109.199951</ele><time>2011-11-12T08:23:25Z</time></trkpt>
<trkpt lat="46.16355300" lon="7.24423097"><ele>1111.400024</ele><time>2011-11-12T08:23:30Z</time></trkpt>
<trkpt lat="46.16337698" lon="7.24428697"><ele>1111</ele><time>2011-11-12T08:23:36Z</time></trkpt>
<trkpt lat="46.16317799" lon="7.24434095"><ele>1110.599976</ele><time>2011-11-12T08:23:43Z</time></trkpt>
<trkpt lat="46.16300097" lon="7.24437598"><ele>1109.800049</ele><time>2011-11-12T08:23:49Z</time></trkpt>
<trkpt lat="46.16279393" lon="7.24440993"><ele>1108.599976</ele><time>2011-11-12T08:23:56Z</time></trkpt>
<trkpt lat="46.16265396" lon="7.24443792"><ele>1107.800049</ele><time>2011-11-12T08:24:01Z</time></trkpt>
<trkpt lat="46.16247400" lon="7.24448193"><ele>1107</ele><time>2011-11-12T08:24:08Z</time></trkpt>
<trkpt lat="46.16245095" lon="7.24448796"><ele>1107</ele><time>2011-11-12T08:24:11Z</time></trkpt>
<trkpt lat="46.16243795" lon="7.24449098"><ele>1106.800049</ele><time>2011-11-12T08:24:23Z</time></trkpt>
<trkpt lat="46.16243795" lon="7.24449098"><ele>1106.800049</ele><time>2011-11-12T08:24:32Z</time></trkpt>
<trkpt lat="46.16235497" lon="7.24451395"><ele>1106.400024</ele><time>2011-11-12T08:24:38Z</time></trkpt>
<trkpt lat="46.16244793" lon="7.24479692"><ele>1117.199951</ele><time>2011-11-12T08:24:42Z</time></trkpt>
<trkpt lat="46.16244793" lon="7.24479692"><ele>1117.199951</ele><time>2011-11-12T08:24:47Z</time></trkpt>
<trkpt lat="46.16244793" lon="7.24479692"><ele>1117.199951</ele><time>2011-11-12T08:24:59Z</time></trkpt>
<trkpt lat="46.16244793" lon="7.24479692"><ele>1117.199951</ele><time>2011-11-12T08:25:01Z</time></trkpt>
<trkpt lat="46.16244793" lon="7.24479692"><ele>1117.199951</ele><time>2011-11-12T08:25:06Z</time></trkpt>
<trkpt lat="46.16234098" lon="7.24507595"><ele>1125.199951</ele><time>2011-11-12T08:25:14Z</time></trkpt>
<trkpt lat="46.16234098" lon="7.24507595"><ele>1125.199951</ele><time>2011-11-12T08:25:19Z</time></trkpt>
<trkpt lat="46.16234098" lon="7.24507595"><ele>1125.199951</ele><time>2011-11-12T08:25:25Z</time></trkpt>
<trkpt lat="46.16234098" lon="7.24514192"><ele>1128.199951</ele><time>2011-11-12T08:25:29Z</time></trkpt>
<trkpt lat="46.16212699" lon="7.24505399"><ele>1119.599976</ele><time>2011-11-12T08:25:31Z</time></trkpt>
<trkpt lat="46.16234098" lon="7.24516195"><ele>1129</ele><time>2011-11-12T08:25:37Z</time></trkpt>
<trkpt lat="46.16234098" lon="7.24516195"><ele>1129</ele><time>2011-11-12T08:25:43Z</time></trkpt>
<trkpt lat="46.16234098" lon="7.24516195"><ele>1129</ele><time>2011-11-12T08:25:48Z</time></trkpt>
<trkpt lat="46.16234098" lon="7.24516195"><ele>1129</ele><time>2011-11-12T08:25:52Z</time></trkpt>
<trkpt lat="46.16234098" lon="7.24516195"><ele>1129</ele><time>2011-11-12T08:26:01Z</time></trkpt>
<trkpt lat="46.16234098" lon="7.24516195"><ele>1129</ele><time>2011-11-12T08:26:05Z</time></trkpt>
<trkpt lat="46.16239697" lon="7.24520495"><ele>1132.199951</ele><time>2011-11-12T08:26:12Z</time></trkpt>
<trkpt lat="46.16239697" lon="7.24520495"><ele>1132.199951</ele><time>2011-11-12T08:26:20Z</time></trkpt>
<trkpt lat="46.16239697" lon="7.24520495"><ele>1132.199951</ele><time>2011-11-12T08:26:25Z</time></trkpt>
<trkpt lat="46.16254298" lon="7.24512197"><ele>1131.199951</ele><time>2011-11-12T08:26:30Z</time></trkpt>
<trkpt lat="46.16254298" lon="7.24512197"><ele>1131.199951</ele><time>2011-11-12T08:26:32Z</time></trkpt>
<trkpt lat="46.16254298" lon="7.24512197"><ele>1131.199951</ele><time>2011-11-12T08:26:39Z</time></trkpt>
<trkpt lat="46.16252999" lon="7.24513094"><ele>1131.400024</ele><time>2011-11-12T08:26:45Z</time></trkpt>
<trkpt lat="46.16238196" lon="7.24491393"><ele>1119.800049</ele><time>2011-11-12T08:26:56Z</time></trkpt>
<trkpt lat="46.16228096" lon="7.24495794"><ele>1119.199951</ele><time>2011-11-12T08:27:01Z</time></trkpt>
<trkpt lat="46.16215297" lon="7.24503798"><ele>1119.599976</ele><time>2011-11-12T08:27:04Z</time></trkpt>
<trkpt lat="46.16234098" lon="7.24513697"><ele>1128</ele><time>2011-11-12T08:27:06Z</time></trkpt>
<trkpt lat="46.16234098" lon="7.24507595"><ele>1125.199951</ele><time>2011-11-12T08:27:09Z</time></trkpt>
<trkpt lat="46.16216294" lon="7.24503195"><ele>1119.400024</ele><time>2011-11-12T08:27:11Z</time></trkpt>
<trkpt lat="46.16204099" lon="7.24509498"><ele>1119.599976</ele><time>2011-11-12T08:27:18Z</time></trkpt>
<trkpt lat="46.16195792" lon="7.24513496"><ele>1119.599976</ele><time>2011-11-12T08:27:23Z</time></trkpt>
<trkpt lat="46.16180395" lon="7.24520897"><ele>1119.400024</ele><time>2011-11-12T08:27:30Z</time></trkpt>
<trkpt lat="46.16167193" lon="7.24527293"><ele>1119.199951</ele><time>2011-11-12T08:27:35Z</time></trkpt>
<trkpt lat="46.16156196" lon="7.24533294"><ele>1119.199951</ele><time>2011-11-12T08:27:40Z</time></trkpt>
<trkpt lat="46.16146096" lon="7.24540897"><ele>1120.199951</ele><time>2011-11-12T08:27:45Z</time></trkpt>
<trkpt lat="46.16134797" lon="7.24549396"><ele>1121.800049</ele><time>2011-11-12T08:27:49Z</time></trkpt>
<trkpt lat="46.16118494" lon="7.24559396"><ele>1123.599976</ele><time>2011-11-12T08:27:53Z</time></trkpt>
<trkpt lat="46.16103197" lon="7.24568699"><ele>1125.800049</ele><time>2011-11-12T08:27:57Z</time></trkpt>
<trkpt lat="46.16093500" lon="7.24574500"><ele>1127.400024</ele><time>2011-11-12T08:28:02Z</time></trkpt>
<trkpt lat="46.16085294" lon="7.24577400"><ele>1127.800049</ele><time>2011-11-12T08:28:08Z</time></trkpt>
<trkpt lat="46.16074699" lon="7.24581197"><ele>1128</ele><time>2011-11-12T08:28:17Z</time></trkpt>
<trkpt lat="46.16064096" lon="7.24584994"><ele>1127.800049</ele><time>2011-11-12T08:28:25Z</time></trkpt>
<trkpt lat="46.16054792" lon="7.24588296"><ele>1127.400024</ele><time>2011-11-12T08:28:33Z</time></trkpt>
<trkpt lat="46.16046695" lon="7.24591197"><ele>1126.800049</ele><time>2011-11-12T08:28:40Z</time></trkpt>
<trkpt lat="46.16036494" lon="7.24594893"><ele>1126.199951</ele><time>2011-11-12T08:28:49Z</time></trkpt>
<trkpt lat="46.16026998" lon="7.24598095"><ele>1125.400024</ele><time>2011-11-12T08:28:57Z</time></trkpt>
<trkpt lat="46.16022597" lon="7.24599495"><ele>1125</ele><time>2011-11-12T08:29:01Z</time></trkpt>
<trkpt lat="46.16017694" lon="7.24601800"><ele>1124.800049</ele><time>2011-11-12T08:29:05Z</time></trkpt>
<trkpt lat="46.16011793" lon="7.24607600"><ele>1125.599976</ele><time>2011-11-12T08:29:11Z</time></trkpt>
<trkpt lat="46.15999195" lon="7.24610198"><ele>1123.599976</ele><time>2011-11-12T08:29:16Z</time></trkpt>
<trkpt lat="46.16006998" lon="7.24621195"><ele>1129.199951</ele><time>2011-11-12T08:29:22Z</time></trkpt>
<trkpt lat="46.16001299" lon="7.24634598"><ele>1132.400024</ele><time>2011-11-12T08:29:31Z</time></trkpt>
<trkpt lat="46.15997099" lon="7.24644296"><ele>1134.199951</ele><time>2011-11-12T08:29:37Z</time></trkpt>
<trkpt lat="46.15992397" lon="7.24659492"><ele>1137</ele><time>2011-11-12T08:29:45Z</time></trkpt>
<trkpt lat="46.15987292" lon="7.24669400"><ele>1137.800049</ele><time>2011-11-12T08:29:51Z</time></trkpt>
<trkpt lat="46.15983294" lon="7.24675594"><ele>1137.400024</ele><time>2011-11-12T08:29:55Z</time></trkpt>
<trkpt lat="46.15978399" lon="7.24682995"><ele>1137.199951</ele><time>2011-11-12T08:30:00Z</time></trkpt>
<trkpt lat="46.15973898" lon="7.24689793"><ele>1137.199951</ele><time>2011-11-12T08:30:06Z</time></trkpt>
<trkpt lat="46.15968995" lon="7.24700497"><ele>1138.199951</ele><time>2011-11-12T08:30:13Z</time></trkpt>
<trkpt lat="46.15967997" lon="7.24702793"><ele>1138.599976</ele><time>2011-11-12T08:30:15Z</time></trkpt>
<trkpt lat="46.15967193" lon="7.24709993"><ele>1140.400024</ele><time>2011-11-12T08:30:20Z</time></trkpt>
<trkpt lat="46.15965994" lon="7.24721099"><ele>1143.199951</ele><time>2011-11-12T08:30:28Z</time></trkpt>
<trkpt lat="46.15964695" lon="7.24730395"><ele>1145.599976</ele><time>2011-11-12T08:30:41Z</time></trkpt>
<trkpt lat="46.15962398" lon="7.24755599"><ele>1153</ele><time>2011-11-12T08:30:48Z</time></trkpt>
<trkpt lat="46.15952298" lon="7.24774794"><ele>1158.800049</ele><time>2011-11-12T08:30:56Z</time></trkpt>
<trkpt lat="46.15942793" lon="7.24787300"><ele>1162.199951</ele><time>2011-11-12T08:31:04Z</time></trkpt>
<trkpt lat="46.15934394" lon="7.24792597"><ele>1163.199951</ele><time>2011-11-12T08:31:10Z</time></trkpt>
<trkpt lat="46.15928393" lon="7.24795095"><ele>1163.400024</ele><time>2011-11-12T08:31:14Z</time></trkpt>
<trkpt lat="46.15911596" lon="7.24795095"><ele>1160.599976</ele><time>2011-11-12T08:31:22Z</time></trkpt>
<trkpt lat="46.15895796" lon="7.24790996"><ele>1156</ele><time>2011-11-12T08:31:30Z</time></trkpt>
<trkpt lat="46.15882695" lon="7.24781499"><ele>1149.400024</ele><time>2011-11-12T08:31:39Z</time></trkpt>
<trkpt lat="46.15874095" lon="7.24775992"><ele>1145.400024</ele><time>2011-11-12T08:31:44Z</time></trkpt>
<trkpt lat="46.15867599" lon="7.24772698"><ele>1142.800049</ele><time>2011-11-12T08:31:49Z</time></trkpt>
<trkpt lat="46.15851095" lon="7.24771500"><ele>1139.400024</ele><time>2011-11-12T08:31:59Z</time></trkpt>
<trkpt lat="46.15845697" lon="7.24774400"><ele>1139.800049</ele><time>2011-11-12T08:32:04Z</time></trkpt>
<trkpt lat="46.15836594" lon="7.24780795"><ele>1141.199951</ele><time>2011-11-12T08:32:11Z</time></trkpt>
<trkpt lat="46.15828497" lon="7.24790895"><ele>1143.400024</ele><time>2011-11-12T08:32:18Z</time></trkpt>
<trkpt lat="46.15823594" lon="7.24801096"><ele>1146.199951</ele><time>2011-11-12T08:32:24Z</time></trkpt>
<trkpt lat="46.15816092" lon="7.24816293"><ele>1150.199951</ele><time>2011-11-12T08:32:32Z</time></trkpt>
<trkpt lat="46.15812899" lon="7.24822797"><ele>1152</ele><time>2011-11-12T08:32:36Z</time></trkpt>
<trkpt lat="46.15809697" lon="7.24829494"><ele>1153.800049</ele><time>2011-11-12T08:32:40Z</time></trkpt>
<trkpt lat="46.15800996" lon="7.24847096"><ele>1158.599976</ele><time>2011-11-12T08:32:49Z</time></trkpt>
<trkpt lat="46.15794894" lon="7.24859694"><ele>1162</ele><time>2011-11-12T08:32:57Z</time></trkpt>
<trkpt lat="46.15789295" lon="7.24871093"><ele>1164.800049</ele><time>2011-11-12T08:33:03Z</time></trkpt>
<trkpt lat="46.15780897" lon="7.24887799"><ele>1168.400024</ele><time>2011-11-12T08:33:11Z</time></trkpt>
<trkpt lat="46.15773998" lon="7.24894295"><ele>1168</ele><time>2011-11-12T08:33:15Z</time></trkpt>
<trkpt lat="46.15768500" lon="7.24896993"><ele>1166.400024</ele><time>2011-11-12T08:33:20Z</time></trkpt>
<trkpt lat="46.15766295" lon="7.24898100"><ele>1165.800049</ele><time>2011-11-12T08:33:22Z</time></trkpt>
<trkpt lat="46.15763194" lon="7.24898896"><ele>1164.599976</ele><time>2011-11-12T08:33:25Z</time></trkpt>
<trkpt lat="46.15752197" lon="7.24901092"><ele>1160.199951</ele><time>2011-11-12T08:33:35Z</time></trkpt>
<trkpt lat="46.15742298" lon="7.24902492"><ele>1157.599976</ele><time>2011-11-12T08:33:43Z</time></trkpt>
<trkpt lat="46.15731100" lon="7.24907194"><ele>1156.599976</ele><time>2011-11-12T08:33:52Z</time></trkpt>
<trkpt lat="46.15723195" lon="7.24916297"><ele>1157.599976</ele><time>2011-11-12T08:34:01Z</time></trkpt>
<trkpt lat="46.15717697" lon="7.24924293"><ele>1159.599976</ele><time>2011-11-12T08:34:07Z</time></trkpt>
<trkpt lat="46.15711193" lon="7.24936799"><ele>1163</ele><time>2011-11-12T08:34:15Z</time></trkpt>
<trkpt lat="46.15704998" lon="7.24951794"><ele>1166.800049</ele><time>2011-11-12T08:34:23Z</time></trkpt>
<trkpt lat="46.15699399" lon="7.24965893"><ele>1170.199951</ele><time>2011-11-12T08:34:31Z</time></trkpt>
<trkpt lat="46.15696792" lon="7.24971894"><ele>1171.400024</ele><time>2011-11-12T08:34:34Z</time></trkpt>
<trkpt lat="46.15693398" lon="7.24977896"><ele>1172</ele><time>2011-11-12T08:34:41Z</time></trkpt>
<trkpt lat="46.15678998" lon="7.24981793"><ele>1167.199951</ele><time>2011-11-12T08:34:47Z</time></trkpt>
<trkpt lat="46.15693398" lon="7.24984895"><ele>1174.599976</ele><time>2011-11-12T08:34:51Z</time></trkpt>
<trkpt lat="46.15667992" lon="7.24992799"><ele>1165.400024</ele><time>2011-11-12T08:34:58Z</time></trkpt>
<trkpt lat="46.15682594" lon="7.25025195"><ele>1182.800049</ele><time>2011-11-12T08:35:03Z</time></trkpt>
<trkpt lat="46.15677397" lon="7.25039192"><ele>1184.400024</ele><time>2011-11-12T08:35:11Z</time></trkpt>
<trkpt lat="46.15671094" lon="7.25061195"><ele>1187.199951</ele><time>2011-11-12T08:35:20Z</time></trkpt>
<trkpt lat="46.15667598" lon="7.25078395"><ele>1190</ele><time>2011-11-12T08:35:28Z</time></trkpt>
<trkpt lat="46.15667598" lon="7.25099794"><ele>1195.199951</ele><time>2011-11-12T08:35:35Z</time></trkpt>
<trkpt lat="46.15667598" lon="7.25099794"><ele>1195.199951</ele><time>2011-11-12T08:35:43Z</time></trkpt>
<trkpt lat="46.15661396" lon="7.25170495"><ele>1209.199951</ele><time>2011-11-12T08:35:50Z</time></trkpt>
<trkpt lat="46.15627692" lon="7.25165499"><ele>1198.199951</ele><time>2011-11-12T08:35:56Z</time></trkpt>
<trkpt lat="46.15611096" lon="7.25176999"><ele>1197.400024</ele><time>2011-11-12T08:36:04Z</time></trkpt>
<trkpt lat="46.15595799" lon="7.25183495"><ele>1195.599976</ele><time>2011-11-12T08:36:12Z</time></trkpt>
<trkpt lat="46.15578792" lon="7.25185599"><ele>1193.599976</ele><time>2011-11-12T08:36:20Z</time></trkpt>
<trkpt lat="46.15567896" lon="7.25185599"><ele>1194.800049</ele><time>2011-11-12T08:36:25Z</time></trkpt>
<trkpt lat="46.15552498" lon="7.25185599"><ele>1196.199951</ele><time>2011-11-12T08:36:33Z</time></trkpt>
<trkpt lat="46.15539892" lon="7.25184795"><ele>1197.199951</ele><time>2011-11-12T08:36:41Z</time></trkpt>
<trkpt lat="46.15530294" lon="7.25182397"><ele>1197.400024</ele><time>2011-11-12T08:36:47Z</time></trkpt>
<trkpt lat="46.15517395" lon="7.25179195"><ele>1197.800049</ele><time>2011-11-12T08:36:56Z</time></trkpt>
<trkpt lat="46.15508594" lon="7.25176999"><ele>1198</ele><time>2011-11-12T08:37:02Z</time></trkpt>
<trkpt lat="46.15499994" lon="7.25174694"><ele>1198.400024</ele><time>2011-11-12T08:37:09Z</time></trkpt>
<trkpt lat="46.15489994" lon="7.25167494"><ele>1197.400024</ele><time>2011-11-12T08:37:17Z</time></trkpt>
<trkpt lat="46.15488896" lon="7.25166799"><ele>1197.400024</ele><time>2011-11-12T08:37:18Z</time></trkpt>
<trkpt lat="46.15477396" lon="7.25159196"><ele>1196</ele><time>2011-11-12T08:37:27Z</time></trkpt>
<trkpt lat="46.15469492" lon="7.25154192"><ele>1195.199951</ele><time>2011-11-12T08:37:33Z</time></trkpt>
<trkpt lat="46.15460699" lon="7.25148392"><ele>1194.599976</ele><time>2011-11-12T08:37:40Z</time></trkpt>
<trkpt lat="46.15454698" lon="7.25143899"><ele>1194</ele><time>2011-11-12T08:37:45Z</time></trkpt>
<trkpt lat="46.15450792" lon="7.25138292"><ele>1192.800049</ele><time>2011-11-12T08:37:50Z</time></trkpt>
<trkpt lat="46.15447297" lon="7.25131092"><ele>1191</ele><time>2011-11-12T08:37:55Z</time></trkpt>
<trkpt lat="46.15442494" lon="7.25120396"><ele>1188.400024</ele><time>2011-11-12T08:38:03Z</time></trkpt>
<trkpt lat="46.15438999" lon="7.25111193"><ele>1186.400024</ele><time>2011-11-12T08:38:10Z</time></trkpt>
<trkpt lat="46.15435193" lon="7.25101495"><ele>1184.199951</ele><time>2011-11-12T08:38:16Z</time></trkpt>
<trkpt lat="46.15432193" lon="7.25092392"><ele>1182.199951</ele><time>2011-11-12T08:38:20Z</time></trkpt>
<trkpt lat="46.15428094" lon="7.25084094"><ele>1180.800049</ele><time>2011-11-12T08:38:24Z</time></trkpt>
<trkpt lat="46.15421497" lon="7.25080498"><ele>1181.599976</ele><time>2011-11-12T08:38:30Z</time></trkpt>
<trkpt lat="46.15409997" lon="7.25082099"><ele>1181.599976</ele><time>2011-11-12T08:38:38Z</time></trkpt>
<trkpt lat="46.15399394" lon="7.25089098"><ele>1180.400024</ele><time>2011-11-12T08:38:47Z</time></trkpt>
<trkpt lat="46.15395597" lon="7.25096692"><ele>1181.199951</ele><time>2011-11-12T08:38:52Z</time></trkpt>
<trkpt lat="46.15390300" lon="7.25111696"><ele>1183.400024</ele><time>2011-11-12T08:39:00Z</time></trkpt>
<trkpt lat="46.15387492" lon="7.25117094"><ele>1184</ele><time>2011-11-12T08:39:03Z</time></trkpt>
<trkpt lat="46.15380594" lon="7.25126297"><ele>1184</ele><time>2011-11-12T08:39:10Z</time></trkpt>
<trkpt lat="46.15373293" lon="7.25134796"><ele>1183.599976</ele><time>2011-11-12T08:39:16Z</time></trkpt>
<trkpt lat="46.15360796" lon="7.25136699"><ele>1180</ele><time>2011-11-12T08:39:25Z</time></trkpt>
<trkpt lat="46.15346194" lon="7.25159196"><ele>1180</ele><time>2011-11-12T08:39:33Z</time></trkpt>
<trkpt lat="46.15343596" lon="7.25182699"><ele>1182.800049</ele><time>2011-11-12T08:39:41Z</time></trkpt>
<trkpt lat="46.15345599" lon="7.25201298"><ele>1185.800049</ele><time>2011-11-12T08:39:48Z</time></trkpt>
<trkpt lat="46.15347292" lon="7.25213695"><ele>1188</ele><time>2011-11-12T08:39:55Z</time></trkpt>
<trkpt lat="46.15375598" lon="7.25208892"><ele>1196.400024</ele><time>2011-11-12T08:40:01Z</time></trkpt>
<trkpt lat="46.15382195" lon="7.25218800"><ele>1199.400024</ele><time>2011-11-12T08:40:08Z</time></trkpt>
<trkpt lat="46.15389193" lon="7.25229495"><ele>1202.599976</ele><time>2011-11-12T08:40:15Z</time></trkpt>
<trkpt lat="46.15391096" lon="7.25232597"><ele>1203.400024</ele><time>2011-11-12T08:40:17Z</time></trkpt>
<trkpt lat="46.15395597" lon="7.25240299"><ele>1205.199951</ele><time>2011-11-12T08:40:22Z</time></trkpt>
<trkpt lat="46.15404398" lon="7.25255295"><ele>1209.400024</ele><time>2011-11-12T08:40:32Z</time></trkpt>
<trkpt lat="46.15405295" lon="7.25256896"><ele>1210</ele><time>2011-11-12T08:40:33Z</time></trkpt>
<trkpt lat="46.15410492" lon="7.25265998"><ele>1212.599976</ele><time>2011-11-12T08:40:38Z</time></trkpt>
<trkpt lat="46.15415697" lon="7.25284296"><ele>1216.599976</ele><time>2011-11-12T08:40:47Z</time></trkpt>
<trkpt lat="46.15418195" lon="7.25302292"><ele>1219.800049</ele><time>2011-11-12T08:40:55Z</time></trkpt>
<trkpt lat="46.15411699" lon="7.25321696"><ele>1221.599976</ele><time>2011-11-12T08:41:01Z</time></trkpt>
<trkpt lat="46.15410894" lon="7.25321998"><ele>1221.599976</ele><time>2011-11-12T08:41:02Z</time></trkpt>
<trkpt lat="46.15399092" lon="7.25322995"><ele>1220.199951</ele><time>2011-11-12T08:41:08Z</time></trkpt>
<trkpt lat="46.15387894" lon="7.25321495"><ele>1218.400024</ele><time>2011-11-12T08:41:17Z</time></trkpt>
<trkpt lat="46.15378892" lon="7.25320095"><ele>1217</ele><time>2011-11-12T08:41:25Z</time></trkpt>
<trkpt lat="46.15368498" lon="7.25318494"><ele>1215.199951</ele><time>2011-11-12T08:41:34Z</time></trkpt>
<trkpt lat="46.15357292" lon="7.25316793"><ele>1213.199951</ele><time>2011-11-12T08:41:43Z</time></trkpt>
<trkpt lat="46.15347292" lon="7.25315292"><ele>1211.199951</ele><time>2011-11-12T08:41:51Z</time></trkpt>
<trkpt lat="46.15335993" lon="7.25316198"><ele>1210</ele><time>2011-11-12T08:41:59Z</time></trkpt>
<trkpt lat="46.15331593" lon="7.25317698"><ele>1209.400024</ele><time>2011-11-12T08:42:03Z</time></trkpt>
<trkpt lat="46.15324192" lon="7.25323599"><ele>1208.599976</ele><time>2011-11-12T08:42:10Z</time></trkpt>
<trkpt lat="46.15316195" lon="7.25332593"><ele>1208.400024</ele><time>2011-11-12T08:42:18Z</time></trkpt>
<trkpt lat="46.15307998" lon="7.25346096"><ele>1208.199951</ele><time>2011-11-12T08:42:28Z</time></trkpt>
<trkpt lat="46.15303195" lon="7.25360395"><ele>1209.599976</ele><time>2011-11-12T08:42:37Z</time></trkpt>
<trkpt lat="46.15302893" lon="7.25371996"><ele>1211.800049</ele><time>2011-11-12T08:42:44Z</time></trkpt>
<trkpt lat="46.15303497" lon="7.25391098"><ele>1216.199951</ele><time>2011-11-12T08:42:55Z</time></trkpt>
<trkpt lat="46.15304997" lon="7.25408298"><ele>1220.599976</ele><time>2011-11-12T08:43:03Z</time></trkpt>
<trkpt lat="46.15296397" lon="7.25423796"><ele>1220</ele><time>2011-11-12T08:43:12Z</time></trkpt>
<trkpt lat="46.15291192" lon="7.25426394"><ele>1218.199951</ele><time>2011-11-12T08:43:17Z</time></trkpt>
<trkpt lat="46.15286599" lon="7.25428993"><ele>1216.800049</ele><time>2011-11-12T08:43:21Z</time></trkpt>
<trkpt lat="46.15279399" lon="7.25436394"><ele>1215</ele><time>2011-11-12T08:43:29Z</time></trkpt>
<trkpt lat="46.15279298" lon="7.25442295"><ele>1216</ele><time>2011-11-12T08:43:33Z</time></trkpt>
<trkpt lat="46.15278393" lon="7.25451197"><ele>1217</ele><time>2011-11-12T08:43:39Z</time></trkpt>
<trkpt lat="46.15277295" lon="7.25459193"><ele>1217.800049</ele><time>2011-11-12T08:43:45Z</time></trkpt>
<trkpt lat="46.15275392" lon="7.25472998"><ele>1219.400024</ele><time>2011-11-12T08:43:53Z</time></trkpt>
<trkpt lat="46.15274797" lon="7.25477792"><ele>1219.800049</ele><time>2011-11-12T08:43:57Z</time></trkpt>
<trkpt lat="46.15273498" lon="7.25487297"><ele>1220.800049</ele><time>2011-11-12T08:45:57Z</time></trkpt>
<trkpt lat="46.15272794" lon="7.25499795"><ele>1222.599976</ele><time>2011-11-12T08:46:06Z</time></trkpt>
<trkpt lat="46.15272794" lon="7.25504598"><ele>1223.400024</ele><time>2011-11-12T08:46:09Z</time></trkpt>
<trkpt lat="46.15272794" lon="7.25508093"><ele>1224</ele><time>2011-11-12T08:46:11Z</time></trkpt>
<trkpt lat="46.15272995" lon="7.25512695"><ele>1224.800049</ele><time>2011-11-12T08:46:15Z</time></trkpt>
<trkpt lat="46.15276893" lon="7.25529299"><ele>1229.199951</ele><time>2011-11-12T08:46:25Z</time></trkpt>
<trkpt lat="46.15282693" lon="7.25542693"><ele>1233.599976</ele><time>2011-11-12T08:46:33Z</time></trkpt>
<trkpt lat="46.15288393" lon="7.25556498"><ele>1237.800049</ele><time>2011-11-12T08:46:41Z</time></trkpt>
<trkpt lat="46.15292097" lon="7.25573396"><ele>1242</ele><time>2011-11-12T08:46:48Z</time></trkpt>
<trkpt lat="46.15292097" lon="7.25590294"><ele>1245.199951</ele><time>2011-11-12T08:46:56Z</time></trkpt>
<trkpt lat="46.15292097" lon="7.25602398"><ele>1248.199951</ele><time>2011-11-12T08:47:02Z</time></trkpt>
<trkpt lat="46.15286599" lon="7.25616094"><ele>1249.599976</ele><time>2011-11-12T08:47:10Z</time></trkpt>
<trkpt lat="46.15280698" lon="7.25621995"><ele>1249.199951</ele><time>2011-11-12T08:47:16Z</time></trkpt>
<trkpt lat="46.15273498" lon="7.25625993"><ele>1248</ele><time>2011-11-12T08:47:23Z</time></trkpt>
<trkpt lat="46.15261596" lon="7.25631399"><ele>1245.800049</ele><time>2011-11-12T08:47:32Z</time></trkpt>
<trkpt lat="46.15252493" lon="7.25635498"><ele>1244</ele><time>2011-11-12T08:47:39Z</time></trkpt>
<trkpt lat="46.15242292" lon="7.25640192"><ele>1241.599976</ele><time>2011-11-12T08:47:47Z</time></trkpt>
<trkpt lat="46.15231295" lon="7.25645397"><ele>1238.599976</ele><time>2011-11-12T08:47:56Z</time></trkpt>
<trkpt lat="46.15222796" lon="7.25652295"><ele>1237.199951</ele><time>2011-11-12T08:48:04Z</time></trkpt>
<trkpt lat="46.15220097" lon="7.25657098"><ele>1237.400024</ele><time>2011-11-12T08:48:08Z</time></trkpt>
<trkpt lat="46.15218395" lon="7.25663594"><ele>1238.599976</ele><time>2011-11-12T08:48:13Z</time></trkpt>
<trkpt lat="46.15217096" lon="7.25670392"><ele>1239.199951</ele><time>2011-11-12T08:48:17Z</time></trkpt>
<trkpt lat="46.15216996" lon="7.25674298"><ele>1239.400024</ele><time>2011-11-12T08:48:21Z</time></trkpt>
<trkpt lat="46.15217096" lon="7.25683694"><ele>1240</ele><time>2011-11-12T08:48:28Z</time></trkpt>
<trkpt lat="46.15217700" lon="7.25686694"><ele>1240.400024</ele><time>2011-11-12T08:48:30Z</time></trkpt>
<trkpt lat="46.15221899" lon="7.25701396"><ele>1243</ele><time>2011-11-12T08:48:41Z</time></trkpt>
<trkpt lat="46.15227892" lon="7.25716894"><ele>1246.199951</ele><time>2011-11-12T08:48:51Z</time></trkpt>
<trkpt lat="46.15231899" lon="7.25726400"><ele>1248.199951</ele><time>2011-11-12T08:48:57Z</time></trkpt>
<trkpt lat="46.15239392" lon="7.25742199"><ele>1251.800049</ele><time>2011-11-12T08:49:06Z</time></trkpt>
<trkpt lat="46.15246198" lon="7.25756499"><ele>1254.800049</ele><time>2011-11-12T08:49:14Z</time></trkpt>
<trkpt lat="46.15252594" lon="7.25773095"><ele>1258</ele><time>2011-11-12T08:49:22Z</time></trkpt>
<trkpt lat="46.15257799" lon="7.25792793"><ele>1261.199951</ele><time>2011-11-12T08:49:31Z</time></trkpt>
<trkpt lat="46.15261395" lon="7.25810696"><ele>1263.800049</ele><time>2011-11-12T08:49:38Z</time></trkpt>
<trkpt lat="46.15264999" lon="7.25833897"><ele>1267</ele><time>2011-11-12T08:49:47Z</time></trkpt>
<trkpt lat="46.15269097" lon="7.25857099"><ele>1273.800049</ele><time>2011-11-12T08:49:55Z</time></trkpt>
<trkpt lat="46.15273297" lon="7.25878699"><ele>1279.800049</ele><time>2011-11-12T08:50:02Z</time></trkpt>
<trkpt lat="46.15279399" lon="7.25908094"><ele>1287.199951</ele><time>2011-11-12T08:50:11Z</time></trkpt>
<trkpt lat="46.15284093" lon="7.25944195"><ele>1303.599976</ele><time>2011-11-12T08:50:21Z</time></trkpt>
<trkpt lat="46.15277194" lon="7.25951697"><ele>1305.800049</ele><time>2011-11-12T08:50:26Z</time></trkpt>
<trkpt lat="46.15272794" lon="7.25951697"><ele>1304.800049</ele><time>2011-11-12T08:50:29Z</time></trkpt>
<trkpt lat="46.15264898" lon="7.26051894"><ele>1355.199951</ele><time>2011-11-12T08:50:33Z</time></trkpt>
<trkpt lat="46.15264898" lon="7.26051894"><ele>1355.199951</ele><time>2011-11-12T08:50:35Z</time></trkpt>
<trkpt lat="46.15264898" lon="7.26051894"><ele>1355.199951</ele><time>2011-11-12T08:51:04Z</time></trkpt>
<trkpt lat="46.15264898" lon="7.26051894"><ele>1355.199951</ele><time>2011-11-12T08:51:06Z</time></trkpt>
<trkpt lat="46.15272794" lon="7.26052498"><ele>1355.400024</ele><time>2011-11-12T08:51:26Z</time></trkpt>
<trkpt lat="46.15271998" lon="7.25951395"><ele>1304.599976</ele><time>2011-11-12T08:51:37Z</time></trkpt>
<trkpt lat="46.15265795" lon="7.25949492"><ele>1302.199951</ele><time>2011-11-12T08:52:08Z</time></trkpt>
<trkpt lat="46.15259894" lon="7.25949492"><ele>1301</ele><time>2011-11-12T08:52:15Z</time></trkpt>
<trkpt lat="46.15251093" lon="7.25940792"><ele>1294</ele><time>2011-11-12T08:52:23Z</time></trkpt>
<trkpt lat="46.15239996" lon="7.25933592"><ele>1289.400024</ele><time>2011-11-12T08:52:29Z</time></trkpt>
<trkpt lat="46.15224699" lon="7.25928496"><ele>1286.199951</ele><time>2011-11-12T08:52:36Z</time></trkpt>
<trkpt lat="46.15207499" lon="7.25919695"><ele>1281</ele><time>2011-11-12T08:52:45Z</time></trkpt>
<trkpt lat="46.15195898" lon="7.25913693"><ele>1278.199951</ele><time>2011-11-12T08:52:52Z</time></trkpt>
<trkpt lat="46.15184600" lon="7.25907792"><ele>1275.800049</ele><time>2011-11-12T08:52:59Z</time></trkpt>
<trkpt lat="46.15174600" lon="7.25902596"><ele>1273.400024</ele><time>2011-11-12T08:53:06Z</time></trkpt>
<trkpt lat="46.15159697" lon="7.25896795"><ele>1270</ele><time>2011-11-12T08:53:16Z</time></trkpt>
<trkpt lat="46.15147895" lon="7.25892294"><ele>1266.800049</ele><time>2011-11-12T08:53:24Z</time></trkpt>
<trkpt lat="46.15130897" lon="7.25887793"><ele>1263</ele><time>2011-11-12T08:53:35Z</time></trkpt>
<trkpt lat="46.15121794" lon="7.25889696"><ele>1262.599976</ele><time>2011-11-12T08:53:41Z</time></trkpt>
<trkpt lat="46.15115792" lon="7.25891992"><ele>1262.800049</ele><time>2011-11-12T08:53:45Z</time></trkpt>
<trkpt lat="46.15109297" lon="7.25905697"><ele>1267.199951</ele><time>2011-11-12T08:53:51Z</time></trkpt>
<trkpt lat="46.15107092" lon="7.25928999"><ele>1275.400024</ele><time>2011-11-12T08:54:01Z</time></trkpt>
<trkpt lat="46.15104293" lon="7.25947598"><ele>1281.199951</ele><time>2011-11-12T08:54:09Z</time></trkpt>
<trkpt lat="46.15099297" lon="7.25963792"><ele>1285.599976</ele><time>2011-11-12T08:54:16Z</time></trkpt>
<trkpt lat="46.15089792" lon="7.25979692"><ele>1288</ele><time>2011-11-12T08:54:24Z</time></trkpt>
<trkpt lat="46.15081795" lon="7.25987496"><ele>1287.800049</ele><time>2011-11-12T08:54:29Z</time></trkpt>
<trkpt lat="46.15068493" lon="7.25999499"><ele>1287.199951</ele><time>2011-11-12T08:54:37Z</time></trkpt>
<trkpt lat="46.15053498" lon="7.26012893"><ele>1288.199951</ele><time>2011-11-12T08:54:46Z</time></trkpt>
<trkpt lat="46.15039794" lon="7.26025097"><ele>1289.199951</ele><time>2011-11-12T08:54:54Z</time></trkpt>
<trkpt lat="46.15026098" lon="7.26037393"><ele>1289.599976</ele><time>2011-11-12T08:55:02Z</time></trkpt>
<trkpt lat="46.15010197" lon="7.26051592"><ele>1290</ele><time>2011-11-12T08:55:11Z</time></trkpt>
<trkpt lat="46.14992092" lon="7.26059094"><ele>1288</ele><time>2011-11-12T08:55:21Z</time></trkpt>
<trkpt lat="46.14977198" lon="7.26060494"><ele>1286</ele><time>2011-11-12T08:55:29Z</time></trkpt>
<trkpt lat="46.14962194" lon="7.26061097"><ele>1283.599976</ele><time>2011-11-12T08:55:38Z</time></trkpt>
<trkpt lat="46.14946897" lon="7.26069798"><ele>1283.599976</ele><time>2011-11-12T08:55:47Z</time></trkpt>
<trkpt lat="46.14942698" lon="7.26074492"><ele>1284</ele><time>2011-11-12T08:55:50Z</time></trkpt>
<trkpt lat="46.14929999" lon="7.26089998"><ele>1285.599976</ele><time>2011-11-12T08:55:58Z</time></trkpt>
<trkpt lat="46.14919497" lon="7.26104692"><ele>1287</ele><time>2011-11-12T08:56:05Z</time></trkpt>
<trkpt lat="46.14908399" lon="7.26119494"><ele>1289.599976</ele><time>2011-11-12T08:56:13Z</time></trkpt>
<trkpt lat="46.14896396" lon="7.26141295"><ele>1293</ele><time>2011-11-12T08:56:23Z</time></trkpt>
<trkpt lat="46.14889498" lon="7.26164497"><ele>1295.599976</ele><time>2011-11-12T08:56:32Z</time></trkpt>
<trkpt lat="46.14882792" lon="7.26184194"><ele>1298.400024</ele><time>2011-11-12T08:56:40Z</time></trkpt>
<trkpt lat="46.14870496" lon="7.26206599"><ele>1299</ele><time>2011-11-12T08:56:50Z</time></trkpt>
<trkpt lat="46.14856197" lon="7.26235097"><ele>1298.199951</ele><time>2011-11-12T08:57:01Z</time></trkpt>
<trkpt lat="46.14846398" lon="7.26256295"><ele>1299.400024</ele><time>2011-11-12T08:57:11Z</time></trkpt>
<trkpt lat="46.14837999" lon="7.26264895"><ele>1300.199951</ele><time>2011-11-12T08:57:18Z</time></trkpt>
<trkpt lat="46.14823499" lon="7.26273394"><ele>1303.400024</ele><time>2011-11-12T08:57:27Z</time></trkpt>
<trkpt lat="46.14810297" lon="7.26281198"><ele>1308</ele><time>2011-11-12T08:57:35Z</time></trkpt>
<trkpt lat="46.14799493" lon="7.26287099"><ele>1311</ele><time>2011-11-12T08:57:42Z</time></trkpt>
<trkpt lat="46.14791597" lon="7.26297593"><ele>1315.199951</ele><time>2011-11-12T08:57:49Z</time></trkpt>
<trkpt lat="46.14784892" lon="7.26287694"><ele>1311.400024</ele><time>2011-11-12T08:57:55Z</time></trkpt>
<trkpt lat="46.14764792" lon="7.26287099"><ele>1311.599976</ele><time>2011-11-12T08:58:01Z</time></trkpt>
<trkpt lat="46.14746695" lon="7.26299998"><ele>1315.199951</ele><time>2011-11-12T08:58:09Z</time></trkpt>
<trkpt lat="46.14735899" lon="7.26304399"><ele>1316.599976</ele><time>2011-11-12T08:58:15Z</time></trkpt>
<trkpt lat="46.14730795" lon="7.26298892"><ele>1315.800049</ele><time>2011-11-12T08:58:19Z</time></trkpt>
<trkpt lat="46.14721198" lon="7.26285699"><ele>1314.400024</ele><time>2011-11-12T08:58:24Z</time></trkpt>
<trkpt lat="46.14713796" lon="7.26274492"><ele>1313.400024</ele><time>2011-11-12T08:58:29Z</time></trkpt>
<trkpt lat="46.14707795" lon="7.26262196"><ele>1312.599976</ele><time>2011-11-12T08:58:36Z</time></trkpt>
<trkpt lat="46.14706295" lon="7.26258500"><ele>1312.400024</ele><time>2011-11-12T08:58:39Z</time></trkpt>
<trkpt lat="46.14706295" lon="7.26252498"><ele>1311.599976</ele><time>2011-11-12T08:58:47Z</time></trkpt>
<trkpt lat="46.14697192" lon="7.26246195"><ele>1314</ele><time>2011-11-12T08:58:51Z</time></trkpt>
<trkpt lat="46.14687192" lon="7.26246698"><ele>1315.800049</ele><time>2011-11-12T08:58:58Z</time></trkpt>
<trkpt lat="46.14677595" lon="7.26249900"><ele>1316.800049</ele><time>2011-11-12T08:59:05Z</time></trkpt>
<trkpt lat="46.14669599" lon="7.26255599"><ele>1318.599976</ele><time>2011-11-12T08:59:12Z</time></trkpt>
<trkpt lat="46.14660798" lon="7.26262799"><ele>1320.599976</ele><time>2011-11-12T08:59:19Z</time></trkpt>
<trkpt lat="46.14654394" lon="7.26268499"><ele>1322.199951</ele><time>2011-11-12T08:59:26Z</time></trkpt>
<trkpt lat="46.14647596" lon="7.26274593"><ele>1323.599976</ele><time>2011-11-12T08:59:35Z</time></trkpt>
<trkpt lat="46.14640094" lon="7.26281298"><ele>1325.199951</ele><time>2011-11-12T08:59:44Z</time></trkpt>
<trkpt lat="46.14638292" lon="7.26282899"><ele>1325.400024</ele><time>2011-11-12T08:59:46Z</time></trkpt>
<trkpt lat="46.14629298" lon="7.26290996"><ele>1326.800049</ele><time>2011-11-12T08:59:57Z</time></trkpt>
<trkpt lat="46.14621595" lon="7.26297794"><ele>1328</ele><time>2011-11-12T09:00:06Z</time></trkpt>
<trkpt lat="46.14615192" lon="7.26303393"><ele>1328.599976</ele><time>2011-11-12T09:00:13Z</time></trkpt>
<trkpt lat="46.14608796" lon="7.26308992"><ele>1329.199951</ele><time>2011-11-12T09:00:21Z</time></trkpt>
<trkpt lat="46.14604597" lon="7.26315094"><ele>1329.199951</ele><time>2011-11-12T09:00:28Z</time></trkpt>
<trkpt lat="46.14603993" lon="7.26316100"><ele>1329.199951</ele><time>2011-11-12T09:00:29Z</time></trkpt>
<trkpt lat="46.14597900" lon="7.26328195"><ele>1328.800049</ele><time>2011-11-12T09:00:39Z</time></trkpt>
<trkpt lat="46.14591999" lon="7.26341296"><ele>1330</ele><time>2011-11-12T09:00:49Z</time></trkpt>
<trkpt lat="46.14586693" lon="7.26351899"><ele>1331.800049</ele><time>2011-11-12T09:00:57Z</time></trkpt>
<trkpt lat="46.14581094" lon="7.26360097"><ele>1333.800049</ele><time>2011-11-12T09:01:04Z</time></trkpt>
<trkpt lat="46.14584195" lon="7.26368596"><ele>1333.800049</ele><time>2011-11-12T09:01:07Z</time></trkpt>
<trkpt lat="46.14580298" lon="7.26373600"><ele>1335.400024</ele><time>2011-11-12T09:03:55Z</time></trkpt>
<trkpt lat="46.14570600" lon="7.26366894"><ele>1338.800049</ele><time>2011-11-12T09:04:05Z</time></trkpt>
<trkpt lat="46.14566996" lon="7.26368294"><ele>1340.199951</ele><time>2011-11-12T09:04:09Z</time></trkpt>
<trkpt lat="46.14561992" lon="7.26370499"><ele>1342.400024</ele><time>2011-11-12T09:04:14Z</time></trkpt>
<trkpt lat="46.14551699" lon="7.26376894"><ele>1346.800049</ele><time>2011-11-12T09:04:24Z</time></trkpt>
<trkpt lat="46.14550693" lon="7.26377497"><ele>1347.199951</ele><time>2011-11-12T09:04:25Z</time></trkpt>
<trkpt lat="46.14542495" lon="7.26384295"><ele>1350.599976</ele><time>2011-11-12T09:04:33Z</time></trkpt>
<trkpt lat="46.14534399" lon="7.26394194"><ele>1353.599976</ele><time>2011-11-12T09:04:41Z</time></trkpt>
<trkpt lat="46.14525497" lon="7.26408896"><ele>1356.400024</ele><time>2011-11-12T09:04:50Z</time></trkpt>
<trkpt lat="46.14519294" lon="7.26421192"><ele>1358</ele><time>2011-11-12T09:04:56Z</time></trkpt>
<trkpt lat="46.14514198" lon="7.26433296"><ele>1358.800049</ele><time>2011-11-12T09:05:02Z</time></trkpt>
<trkpt lat="46.14509295" lon="7.26446992"><ele>1359</ele><time>2011-11-12T09:05:09Z</time></trkpt>
<trkpt lat="46.14506294" lon="7.26460294"><ele>1358.599976</ele><time>2011-11-12T09:05:17Z</time></trkpt>
<trkpt lat="46.14504592" lon="7.26477795"><ele>1357.400024</ele><time>2011-11-12T09:05:26Z</time></trkpt>
<trkpt lat="46.14502799" lon="7.26495699"><ele>1356.199951</ele><time>2011-11-12T09:05:35Z</time></trkpt>
<trkpt lat="46.14501198" lon="7.26512094"><ele>1356.199951</ele><time>2011-11-12T09:05:45Z</time></trkpt>
<trkpt lat="46.14500293" lon="7.26525195"><ele>1356.599976</ele><time>2011-11-12T09:05:53Z</time></trkpt>
<trkpt lat="46.14501298" lon="7.26540199"><ele>1357</ele><time>2011-11-12T09:06:02Z</time></trkpt>
<trkpt lat="46.14504693" lon="7.26544993"><ele>1357.199951</ele><time>2011-11-12T09:06:09Z</time></trkpt>
<trkpt lat="46.14512295" lon="7.26547893"><ele>1357.800049</ele><time>2011-11-12T09:06:15Z</time></trkpt>
<trkpt lat="46.14523896" lon="7.26552495"><ele>1358.800049</ele><time>2011-11-12T09:06:21Z</time></trkpt>
<trkpt lat="46.14534893" lon="7.26564297"><ele>1360.800049</ele><time>2011-11-12T09:06:28Z</time></trkpt>
<trkpt lat="46.14538497" lon="7.26568697"><ele>1361.800049</ele><time>2011-11-12T09:06:31Z</time></trkpt>
<trkpt lat="46.14535094" lon="7.26581697"><ele>1362.800049</ele><time>2011-11-12T09:06:38Z</time></trkpt>
<trkpt lat="46.14529998" lon="7.26590096"><ele>1363.599976</ele><time>2011-11-12T09:06:45Z</time></trkpt>
<trkpt lat="46.14528095" lon="7.26593197"><ele>1363.800049</ele><time>2011-11-12T09:06:46Z</time></trkpt>
<trkpt lat="46.14526000" lon="7.26596693"><ele>1364.199951</ele><time>2011-11-12T09:06:51Z</time></trkpt>
<trkpt lat="46.14526897" lon="7.26595192"><ele>1364</ele><time>2011-11-12T09:06:54Z</time></trkpt>
<trkpt lat="46.14526696" lon="7.26595494"><ele>1364</ele><time>2011-11-12T09:08:57Z</time></trkpt>
<trkpt lat="46.14526696" lon="7.26595494"><ele>1364</ele><time>2011-11-12T09:08:59Z</time></trkpt>
<trkpt lat="46.14527894" lon="7.26593499"><ele>1363.800049</ele><time>2011-11-12T09:09:21Z</time></trkpt>
<trkpt lat="46.14536494" lon="7.26579392"><ele>1362.800049</ele><time>2011-11-12T09:09:24Z</time></trkpt>
<trkpt lat="46.14549000" lon="7.26577297"><ele>1364</ele><time>2011-11-12T09:09:26Z</time></trkpt>
<trkpt lat="46.14559494" lon="7.26575193"><ele>1365</ele><time>2011-11-12T09:09:28Z</time></trkpt>
<trkpt lat="46.14561900" lon="7.26574196"><ele>1365.199951</ele><time>2011-11-12T09:09:30Z</time></trkpt>
<trkpt lat="46.14552193" lon="7.26578093"><ele>1364.599976</ele><time>2011-11-12T09:09:40Z</time></trkpt>
<trkpt lat="46.14545396" lon="7.26576098"><ele>1363.400024</ele><time>2011-11-12T09:09:48Z</time></trkpt>
<trkpt lat="46.14528892" lon="7.26591898"><ele>1363.800049</ele><time>2011-11-12T09:09:56Z</time></trkpt>
<trkpt lat="46.14523896" lon="7.26600196"><ele>1364.400024</ele><time>2011-11-12T09:10:02Z</time></trkpt>
<trkpt lat="46.14517492" lon="7.26610699"><ele>1365.199951</ele><time>2011-11-12T09:10:11Z</time></trkpt>
<trkpt lat="46.14512798" lon="7.26618393"><ele>1365.599976</ele><time>2011-11-12T09:10:17Z</time></trkpt>
<trkpt lat="46.14506797" lon="7.26628292"><ele>1365.800049</ele><time>2011-11-12T09:10:25Z</time></trkpt>
<trkpt lat="46.14503997" lon="7.26633095"><ele>1366</ele><time>2011-11-12T09:10:28Z</time></trkpt>
<trkpt lat="46.14502396" lon="7.26636398"><ele>1366.199951</ele><time>2011-11-12T09:10:31Z</time></trkpt>
<trkpt lat="46.14502396" lon="7.26636398"><ele>1366.199951</ele><time>2011-11-12T09:10:37Z</time></trkpt>
<trkpt lat="46.14502396" lon="7.26636398"><ele>1366.199951</ele><time>2011-11-12T09:10:42Z</time></trkpt>
<trkpt lat="46.14502396" lon="7.26636398"><ele>1366.199951</ele><time>2011-11-12T09:10:43Z</time></trkpt>
<trkpt lat="46.14495993" lon="7.26649096"><ele>1370.400024</ele><time>2011-11-12T09:10:51Z</time></trkpt>
<trkpt lat="46.14494098" lon="7.26655399"><ele>1372.599976</ele><time>2011-11-12T09:10:55Z</time></trkpt>
<trkpt lat="46.14493394" lon="7.26657595"><ele>1373.400024</ele><time>2011-11-12T09:11:01Z</time></trkpt>
<trkpt lat="46.14493394" lon="7.26657595"><ele>1373.400024</ele><time>2011-11-12T09:11:06Z</time></trkpt>
<trkpt lat="46.14493394" lon="7.26657595"><ele>1373.400024</ele><time>2011-11-12T09:11:13Z</time></trkpt>
<trkpt lat="46.14493394" lon="7.26657595"><ele>1373.400024</ele><time>2011-11-12T09:11:23Z</time></trkpt>
<trkpt lat="46.14493394" lon="7.26657595"><ele>1373.400024</ele><time>2011-11-12T09:11:30Z</time></trkpt>
<trkpt lat="46.14493394" lon="7.26657595"><ele>1373.400024</ele><time>2011-11-12T09:11:40Z</time></trkpt>
<trkpt lat="46.14493394" lon="7.26657595"><ele>1373.400024</ele><time>2011-11-12T09:11:46Z</time></trkpt>
<trkpt lat="46.14493394" lon="7.26657595"><ele>1373.400024</ele><time>2011-11-12T09:11:54Z</time></trkpt>
<trkpt lat="46.14493394" lon="7.26657595"><ele>1373.400024</ele><time>2011-11-12T09:12:00Z</time></trkpt>
<trkpt lat="46.14493394" lon="7.26657595"><ele>1373.400024</ele><time>2011-11-12T09:12:03Z</time></trkpt>
<trkpt lat="46.14493394" lon="7.26657595"><ele>1373.400024</ele><time>2011-11-12T09:12:10Z</time></trkpt>
<trkpt lat="46.14493394" lon="7.26657595"><ele>1373.400024</ele><time>2011-11-12T09:12:18Z</time></trkpt>
<trkpt lat="46.14493394" lon="7.26657595"><ele>1373.400024</ele><time>2011-11-12T09:12:24Z</time></trkpt>
<trkpt lat="46.14493394" lon="7.26657595"><ele>1373.400024</ele><time>2011-11-12T09:12:31Z</time></trkpt>
<trkpt lat="46.14493394" lon="7.26657595"><ele>1373.400024</ele><time>2011-11-12T09:12:36Z</time></trkpt>
<trkpt lat="46.14493394" lon="7.26657595"><ele>1373.400024</ele><time>2011-11-12T09:12:38Z</time></trkpt>
<trkpt lat="46.14493394" lon="7.26657595"><ele>1373.400024</ele><time>2011-11-12T09:12:44Z</time></trkpt>
<trkpt lat="46.14493394" lon="7.26657595"><ele>1373.400024</ele><time>2011-11-12T09:12:50Z</time></trkpt>
<trkpt lat="46.14493394" lon="7.26657595"><ele>1373.400024</ele><time>2011-11-12T09:13:00Z</time></trkpt>
<trkpt lat="46.14493394" lon="7.26657595"><ele>1373.400024</ele><time>2011-11-12T09:13:09Z</time></trkpt>
<trkpt lat="46.14493394" lon="7.26657595"><ele>1373.400024</ele><time>2011-11-12T09:13:16Z</time></trkpt>
<trkpt lat="46.14493394" lon="7.26657595"><ele>1373.400024</ele><time>2011-11-12T09:13:22Z</time></trkpt>
<trkpt lat="46.14458593" lon="7.26771497"><ele>1412.199951</ele><time>2011-11-12T09:13:29Z</time></trkpt>
<trkpt lat="46.14458593" lon="7.26771497"><ele>1412.199951</ele><time>2011-11-12T09:13:39Z</time></trkpt>
<trkpt lat="46.14458593" lon="7.26771497"><ele>1412.199951</ele><time>2011-11-12T09:13:40Z</time></trkpt>
<trkpt lat="46.14458593" lon="7.26771497"><ele>1412.199951</ele><time>2011-11-12T09:14:27Z</time></trkpt>
<trkpt lat="46.14451996" lon="7.26785797"><ele>1414.599976</ele><time>2011-11-12T09:14:36Z</time></trkpt>
<trkpt lat="46.14448392" lon="7.26793399"><ele>1415.599976</ele><time>2011-11-12T09:14:44Z</time></trkpt>
<trkpt lat="46.14446498" lon="7.26797397"><ele>1416</ele><time>2011-11-12T09:14:50Z</time></trkpt>
<trkpt lat="46.14446498" lon="7.26797397"><ele>1416</ele><time>2011-11-12T09:14:58Z</time></trkpt>
<trkpt lat="46.14446498" lon="7.26797397"><ele>1416</ele><time>2011-11-12T09:15:03Z</time></trkpt>
<trkpt lat="46.14446498" lon="7.26797397"><ele>1416</ele><time>2011-11-12T09:15:10Z</time></trkpt>
<trkpt lat="46.14446498" lon="7.26797397"><ele>1416</ele><time>2011-11-12T09:15:16Z</time></trkpt>
<trkpt lat="46.14446498" lon="7.26797397"><ele>1416</ele><time>2011-11-12T09:15:25Z</time></trkpt>
<trkpt lat="46.14430396" lon="7.26828494"><ele>1417</ele><time>2011-11-12T09:15:30Z</time></trkpt>
<trkpt lat="46.14430396" lon="7.26828494"><ele>1417</ele><time>2011-11-12T09:15:36Z</time></trkpt>
<trkpt lat="46.14430396" lon="7.26828494"><ele>1417</ele><time>2011-11-12T09:15:43Z</time></trkpt>
<trkpt lat="46.14430396" lon="7.26828494"><ele>1417</ele><time>2011-11-12T09:15:48Z</time></trkpt>
<trkpt lat="46.14430396" lon="7.26828494"><ele>1417</ele><time>2011-11-12T09:15:54Z</time></trkpt>
<trkpt lat="46.14417697" lon="7.26853095"><ele>1417.599976</ele><time>2011-11-12T09:16:03Z</time></trkpt>
<trkpt lat="46.14417697" lon="7.26853095"><ele>1417.599976</ele><time>2011-11-12T09:16:09Z</time></trkpt>
<trkpt lat="46.14417697" lon="7.26853095"><ele>1417.599976</ele><time>2011-11-12T09:16:14Z</time></trkpt>
<trkpt lat="46.14417697" lon="7.26853095"><ele>1417.599976</ele><time>2011-11-12T09:16:22Z</time></trkpt>
<trkpt lat="46.14417697" lon="7.26853095"><ele>1417.599976</ele><time>2011-11-12T09:16:30Z</time></trkpt>
<trkpt lat="46.14417697" lon="7.26853095"><ele>1417.599976</ele><time>2011-11-12T09:16:37Z</time></trkpt>
<trkpt lat="46.14417697" lon="7.26853095"><ele>1417.599976</ele><time>2011-11-12T09:16:40Z</time></trkpt>
<trkpt lat="46.14417697" lon="7.26853095"><ele>1417.599976</ele><time>2011-11-12T09:16:55Z</time></trkpt>
<trkpt lat="46.14411897" lon="7.26874896"><ele>1423</ele><time>2011-11-12T09:18:05Z</time></trkpt>
<trkpt lat="46.14420597" lon="7.26847496"><ele>1417.599976</ele><time>2011-11-12T09:18:11Z</time></trkpt>
<trkpt lat="46.14432198" lon="7.26824999"><ele>1417</ele><time>2011-11-12T09:18:18Z</time></trkpt>
<trkpt lat="46.14441996" lon="7.26806198"><ele>1416.599976</ele><time>2011-11-12T09:18:25Z</time></trkpt>
<trkpt lat="46.14452993" lon="7.26783592"><ele>1414.199951</ele><time>2011-11-12T09:18:33Z</time></trkpt>
<trkpt lat="46.14497200" lon="7.26791094"><ele>1406.199951</ele><time>2011-11-12T09:18:39Z</time></trkpt>
<trkpt lat="46.14521499" lon="7.26779292"><ele>1408.199951</ele><time>2011-11-12T09:18:46Z</time></trkpt>
<trkpt lat="46.14544298" lon="7.26771698"><ele>1411.400024</ele><time>2011-11-12T09:18:52Z</time></trkpt>
<trkpt lat="46.14572193" lon="7.26764892"><ele>1415.400024</ele><time>2011-11-12T09:19:00Z</time></trkpt>
<trkpt lat="46.14591597" lon="7.26758698"><ele>1419</ele><time>2011-11-12T09:19:06Z</time></trkpt>
<trkpt lat="46.14604295" lon="7.26753493"><ele>1422.599976</ele><time>2011-11-12T09:19:11Z</time></trkpt>
<trkpt lat="46.14615192" lon="7.26742898"><ele>1424.400024</ele><time>2011-11-12T09:19:16Z</time></trkpt>
<trkpt lat="46.14618394" lon="7.26726294"><ele>1422.199951</ele><time>2011-11-12T09:19:21Z</time></trkpt>
<trkpt lat="46.14618394" lon="7.26726294"><ele>1422.199951</ele><time>2011-11-12T09:19:30Z</time></trkpt>
<trkpt lat="46.14616692" lon="7.26684099"><ele>1412.199951</ele><time>2011-11-12T09:19:37Z</time></trkpt>
<trkpt lat="46.14616692" lon="7.26682699"><ele>1411.800049</ele><time>2011-11-12T09:19:38Z</time></trkpt>
<trkpt lat="46.14616298" lon="7.26672792"><ele>1409.400024</ele><time>2011-11-12T09:19:43Z</time></trkpt>
<trkpt lat="46.14615100" lon="7.26658794"><ele>1405.599976</ele><time>2011-11-12T09:19:51Z</time></trkpt>
<trkpt lat="46.14614395" lon="7.26650798"><ele>1403.199951</ele><time>2011-11-12T09:19:55Z</time></trkpt>
<trkpt lat="46.14613599" lon="7.26643698"><ele>1401</ele><time>2011-11-12T09:20:00Z</time></trkpt>
<trkpt lat="46.14579694" lon="7.26563198"><ele>1365</ele><time>2011-11-12T09:20:07Z</time></trkpt>
<trkpt lat="46.14629692" lon="7.26629399"><ele>1404.599976</ele><time>2011-11-12T09:20:13Z</time></trkpt>
<trkpt lat="46.14634696" lon="7.26627597"><ele>1406.599976</ele><time>2011-11-12T09:20:19Z</time></trkpt>
<trkpt lat="46.14647395" lon="7.26628292"><ele>1412.599976</ele><time>2011-11-12T09:20:28Z</time></trkpt>
<trkpt lat="46.14649298" lon="7.26629399"><ele>1413.800049</ele><time>2011-11-12T09:20:29Z</time></trkpt>
<trkpt lat="46.14651393" lon="7.26630698"><ele>1415</ele><time>2011-11-12T09:20:31Z</time></trkpt>
<trkpt lat="46.14657294" lon="7.26634193"><ele>1418.599976</ele><time>2011-11-12T09:20:37Z</time></trkpt>
<trkpt lat="46.14662600" lon="7.26636892"><ele>1421.599976</ele><time>2011-11-12T09:20:43Z</time></trkpt>
<trkpt lat="46.14668098" lon="7.26638795"><ele>1424.400024</ele><time>2011-11-12T09:20:48Z</time></trkpt>
<trkpt lat="46.14677000" lon="7.26640195"><ele>1428.400024</ele><time>2011-11-12T09:20:56Z</time></trkpt>
<trkpt lat="46.14689900" lon="7.26633196"><ele>1431.800049</ele><time>2011-11-12T09:21:06Z</time></trkpt>
<trkpt lat="46.14694493" lon="7.26625392"><ele>1431.599976</ele><time>2011-11-12T09:21:11Z</time></trkpt>
<trkpt lat="46.14696094" lon="7.26616792"><ele>1429.800049</ele><time>2011-11-12T09:21:19Z</time></trkpt>
<trkpt lat="46.14697594" lon="7.26605192"><ele>1427.400024</ele><time>2011-11-12T09:21:27Z</time></trkpt>
<trkpt lat="46.14698499" lon="7.26596793"><ele>1425.400024</ele><time>2011-11-12T09:21:32Z</time></trkpt>
<trkpt lat="46.14698793" lon="7.26593600"><ele>1424.599976</ele><time>2011-11-12T09:21:35Z</time></trkpt>
<trkpt lat="46.14700394" lon="7.26579292"><ele>1421</ele><time>2011-11-12T09:21:43Z</time></trkpt>
<trkpt lat="46.14705792" lon="7.26560198"><ele>1415.599976</ele><time>2011-11-12T09:21:53Z</time></trkpt>
<trkpt lat="46.14712900" lon="7.26552495"><ele>1415</ele><time>2011-11-12T09:22:00Z</time></trkpt>
<trkpt lat="46.14722094" lon="7.26550299"><ele>1417</ele><time>2011-11-12T09:22:07Z</time></trkpt>
<trkpt lat="46.14732496" lon="7.26556099"><ele>1422.199951</ele><time>2011-11-12T09:22:14Z</time></trkpt>
<trkpt lat="46.14736092" lon="7.26561195"><ele>1425.199951</ele><time>2011-11-12T09:22:19Z</time></trkpt>
<trkpt lat="46.14743996" lon="7.26570893"><ele>1431.199951</ele><time>2011-11-12T09:22:27Z</time></trkpt>
<trkpt lat="46.14745698" lon="7.26572494"><ele>1432.400024</ele><time>2011-11-12T09:22:29Z</time></trkpt>
<trkpt lat="46.14756494" lon="7.26576098"><ele>1437.400024</ele><time>2011-11-12T09:22:37Z</time></trkpt>
<trkpt lat="46.14768597" lon="7.26576098"><ele>1441.599976</ele><time>2011-11-12T09:22:45Z</time></trkpt>
<trkpt lat="46.14778798" lon="7.26577599"><ele>1445.800049</ele><time>2011-11-12T09:22:52Z</time></trkpt>
<trkpt lat="46.14780500" lon="7.26577892"><ele>1446.599976</ele><time>2011-11-12T09:22:53Z</time></trkpt>
<trkpt lat="46.14787096" lon="7.26579200"><ele>1449.400024</ele><time>2011-11-12T09:22:57Z</time></trkpt>
<trkpt lat="46.14795092" lon="7.26580700"><ele>1453</ele><time>2011-11-12T09:23:03Z</time></trkpt>
<trkpt lat="46.14803298" lon="7.26582192"><ele>1456.599976</ele><time>2011-11-12T09:23:09Z</time></trkpt>
<trkpt lat="46.14813097" lon="7.26582494"><ele>1460.199951</ele><time>2011-11-12T09:23:16Z</time></trkpt>
<trkpt lat="46.14825292" lon="7.26576098"><ele>1461.199951</ele><time>2011-11-12T09:23:24Z</time></trkpt>
<trkpt lat="46.14834496" lon="7.26569996"><ele>1461.199951</ele><time>2011-11-12T09:23:32Z</time></trkpt>
<trkpt lat="46.14844596" lon="7.26561195"><ele>1459.800049</ele><time>2011-11-12T09:23:41Z</time></trkpt>
<trkpt lat="46.14852198" lon="7.26551196"><ele>1457</ele><time>2011-11-12T09:23:48Z</time></trkpt>
<trkpt lat="46.14857395" lon="7.26543593"><ele>1455</ele><time>2011-11-12T09:23:55Z</time></trkpt>
<trkpt lat="46.14862693" lon="7.26535496"><ele>1453</ele><time>2011-11-12T09:24:02Z</time></trkpt>
<trkpt lat="46.14866498" lon="7.26529595"><ele>1451.599976</ele><time>2011-11-12T09:24:06Z</time></trkpt>
<trkpt lat="46.14875793" lon="7.26515497"><ele>1448.400024</ele><time>2011-11-12T09:24:15Z</time></trkpt>
<trkpt lat="46.14883195" lon="7.26504098"><ele>1446</ele><time>2011-11-12T09:24:22Z</time></trkpt>
<trkpt lat="46.14888400" lon="7.26496194"><ele>1444.599976</ele><time>2011-11-12T09:24:28Z</time></trkpt>
<trkpt lat="46.14893898" lon="7.26487292"><ele>1442.800049</ele><time>2011-11-12T09:24:35Z</time></trkpt>
<trkpt lat="46.14902196" lon="7.26477192"><ele>1441.599976</ele><time>2011-11-12T09:24:42Z</time></trkpt>
<trkpt lat="46.14911693" lon="7.26475197"><ele>1444.599976</ele><time>2011-11-12T09:24:50Z</time></trkpt>
<trkpt lat="46.14919296" lon="7.26475197"><ele>1447.199951</ele><time>2011-11-12T09:24:56Z</time></trkpt>
<trkpt lat="46.14925297" lon="7.26475792"><ele>1449</ele><time>2011-11-12T09:25:01Z</time></trkpt>
<trkpt lat="46.14935699" lon="7.26478793"><ele>1452.800049</ele><time>2011-11-12T09:25:08Z</time></trkpt>
<trkpt lat="46.14940292" lon="7.26480293"><ele>1454.599976</ele><time>2011-11-12T09:25:11Z</time></trkpt>
<trkpt lat="46.14952094" lon="7.26484098"><ele>1459.199951</ele><time>2011-11-12T09:25:20Z</time></trkpt>
<trkpt lat="46.14959797" lon="7.26485800"><ele>1461.800049</ele><time>2011-11-12T09:25:27Z</time></trkpt>
<trkpt lat="46.14962094" lon="7.26484694"><ele>1462</ele><time>2011-11-12T09:25:29Z</time></trkpt>
<trkpt lat="46.14975194" lon="7.26478097"><ele>1462.199951</ele><time>2011-11-12T09:25:39Z</time></trkpt>
<trkpt lat="46.14985898" lon="7.26472800"><ele>1462.400024</ele><time>2011-11-12T09:25:47Z</time></trkpt>
<trkpt lat="46.14995294" lon="7.26469497"><ele>1463.199951</ele><time>2011-11-12T09:25:54Z</time></trkpt>
<trkpt lat="46.15009795" lon="7.26466999"><ele>1464.400024</ele><time>2011-11-12T09:26:03Z</time></trkpt>
<trkpt lat="46.15024497" lon="7.26464795"><ele>1465.400024</ele><time>2011-11-12T09:26:13Z</time></trkpt>
<trkpt lat="46.15036994" lon="7.26462297"><ele>1465.800049</ele><time>2011-11-12T09:26:22Z</time></trkpt>
<trkpt lat="46.15046893" lon="7.26460696"><ele>1466.400024</ele><time>2011-11-12T09:26:29Z</time></trkpt>
<trkpt lat="46.15060698" lon="7.26455893"><ele>1466</ele><time>2011-11-12T09:26:39Z</time></trkpt>
<trkpt lat="46.15071092" lon="7.26460495"><ele>1469.400024</ele><time>2011-11-12T09:26:46Z</time></trkpt>
<trkpt lat="46.15080094" lon="7.26465692"><ele>1472.800049</ele><time>2011-11-12T09:26:53Z</time></trkpt>
<trkpt lat="46.15091493" lon="7.26469296"><ele>1477</ele><time>2011-11-12T09:27:01Z</time></trkpt>
<trkpt lat="46.15099498" lon="7.26471400"><ele>1480.199951</ele><time>2011-11-12T09:27:07Z</time></trkpt>
<trkpt lat="46.15101996" lon="7.26471995"><ele>1481.199951</ele><time>2011-11-12T09:27:09Z</time></trkpt>
<trkpt lat="46.15107000" lon="7.26473395"><ele>1483.199951</ele><time>2011-11-12T09:27:15Z</time></trkpt>
<trkpt lat="46.15107000" lon="7.26473395"><ele>1483.199951</ele><time>2011-11-12T09:27:18Z</time></trkpt>
<trkpt lat="46.15107092" lon="7.26473395"><ele>1483.199951</ele><time>2011-11-12T09:27:57Z</time></trkpt>
<trkpt lat="46.15107092" lon="7.26473395"><ele>1483.199951</ele><time>2011-11-12T09:36:48Z</time></trkpt>
<trkpt lat="46.15107092" lon="7.26473395"><ele>1483.199951</ele><time>2011-11-12T09:36:55Z</time></trkpt>
<trkpt lat="46.15108995" lon="7.26484492"><ele>1488.800049</ele><time>2011-11-12T09:37:01Z</time></trkpt>
<trkpt lat="46.15105592" lon="7.26472992"><ele>1482.599976</ele><time>2011-11-12T09:37:07Z</time></trkpt>
<trkpt lat="46.15100294" lon="7.26471593"><ele>1480.400024</ele><time>2011-11-12T09:37:13Z</time></trkpt>
<trkpt lat="46.15095299" lon="7.26470293"><ele>1478.599976</ele><time>2011-11-12T09:37:19Z</time></trkpt>
<trkpt lat="46.15084997" lon="7.26500292"><ele>1489.400024</ele><time>2011-11-12T09:37:26Z</time></trkpt>
<trkpt lat="46.15082097" lon="7.26501097"><ele>1489.199951</ele><time>2011-11-12T09:37:29Z</time></trkpt>
<trkpt lat="46.15070698" lon="7.26504198"><ele>1489</ele><time>2011-11-12T09:37:39Z</time></trkpt>
<trkpt lat="46.15067194" lon="7.26505196"><ele>1489</ele><time>2011-11-12T09:37:42Z</time></trkpt>
<trkpt lat="46.15062693" lon="7.26507098"><ele>1489.199951</ele><time>2011-11-12T09:37:46Z</time></trkpt>
<trkpt lat="46.15053699" lon="7.26510895"><ele>1489.800049</ele><time>2011-11-12T09:37:55Z</time></trkpt>
<trkpt lat="46.15050598" lon="7.26513594"><ele>1490.400024</ele><time>2011-11-12T09:37:57Z</time></trkpt>
<trkpt lat="46.15048997" lon="7.26515899"><ele>1491.199951</ele><time>2011-11-12T09:38:00Z</time></trkpt>
<trkpt lat="46.15047497" lon="7.26524692"><ele>1495</ele><time>2011-11-12T09:38:09Z</time></trkpt>
<trkpt lat="46.15047497" lon="7.26524692"><ele>1495</ele><time>2011-11-12T09:38:15Z</time></trkpt>
<trkpt lat="46.15047497" lon="7.26518196"><ele>1492</ele><time>2011-11-12T09:38:23Z</time></trkpt>
<trkpt lat="46.15047497" lon="7.26518196"><ele>1492</ele><time>2011-11-12T09:38:31Z</time></trkpt>
<trkpt lat="46.15047497" lon="7.26518196"><ele>1492</ele><time>2011-11-12T09:38:35Z</time></trkpt>
<trkpt lat="46.15047497" lon="7.26518196"><ele>1492</ele><time>2011-11-12T09:38:42Z</time></trkpt>
<trkpt lat="46.15080496" lon="7.26524893"><ele>1499</ele><time>2011-11-12T09:38:49Z</time></trkpt>
<trkpt lat="46.15092499" lon="7.26525497"><ele>1502</ele><time>2011-11-12T09:38:57Z</time></trkpt>
<trkpt lat="46.15100898" lon="7.26525899"><ele>1504.199951</ele><time>2011-11-12T09:39:05Z</time></trkpt>
<trkpt lat="46.15112498" lon="7.26526494"><ele>1507.400024</ele><time>2011-11-12T09:39:13Z</time></trkpt>
<trkpt lat="46.15122993" lon="7.26524197"><ele>1509.199951</ele><time>2011-11-12T09:39:20Z</time></trkpt>
<trkpt lat="46.15130494" lon="7.26515598"><ele>1507.800049</ele><time>2011-11-12T09:39:29Z</time></trkpt>
<trkpt lat="46.15134995" lon="7.26507492"><ele>1506</ele><time>2011-11-12T09:39:36Z</time></trkpt>
<trkpt lat="46.15140092" lon="7.26498297"><ele>1503.800049</ele><time>2011-11-12T09:39:43Z</time></trkpt>
<trkpt lat="46.15145992" lon="7.26488197"><ele>1500.599976</ele><time>2011-11-12T09:39:50Z</time></trkpt>
<trkpt lat="46.15154198" lon="7.26474099"><ele>1496.199951</ele><time>2011-11-12T09:39:59Z</time></trkpt>
<trkpt lat="46.15162295" lon="7.26465600"><ele>1494.199951</ele><time>2011-11-12T09:40:06Z</time></trkpt>
<trkpt lat="46.15171792" lon="7.26456095"><ele>1492</ele><time>2011-11-12T09:40:14Z</time></trkpt>
<trkpt lat="46.15179897" lon="7.26448794"><ele>1490.599976</ele><time>2011-11-12T09:40:22Z</time></trkpt>
<trkpt lat="46.15189394" lon="7.26441393"><ele>1489.400024</ele><time>2011-11-12T09:40:31Z</time></trkpt>
<trkpt lat="46.15198296" lon="7.26435995"><ele>1489.199951</ele><time>2011-11-12T09:40:39Z</time></trkpt>
<trkpt lat="46.15213492" lon="7.26432692"><ele>1491.599976</ele><time>2011-11-12T09:40:50Z</time></trkpt>
<trkpt lat="46.15225897" lon="7.26432298"><ele>1494.599976</ele><time>2011-11-12T09:40:59Z</time></trkpt>
<trkpt lat="46.15238898" lon="7.26435894"><ele>1499.400024</ele><time>2011-11-12T09:41:08Z</time></trkpt>
<trkpt lat="46.15246994" lon="7.26445097"><ele>1505.400024</ele><time>2011-11-12T09:41:15Z</time></trkpt>
<trkpt lat="46.15253599" lon="7.26453496"><ele>1509.199951</ele><time>2011-11-12T09:41:22Z</time></trkpt>
<trkpt lat="46.15261495" lon="7.26463496"><ele>1512.400024</ele><time>2011-11-12T09:41:30Z</time></trkpt>
<trkpt lat="46.15266994" lon="7.26470495"><ele>1514.800049</ele><time>2011-11-12T09:41:36Z</time></trkpt>
<trkpt lat="46.15269198" lon="7.26473194"><ele>1515.599976</ele><time>2011-11-12T09:41:38Z</time></trkpt>
<trkpt lat="46.15275493" lon="7.26481198"><ele>1518.199951</ele><time>2011-11-12T09:41:45Z</time></trkpt>
<trkpt lat="46.15277295" lon="7.26483495"><ele>1519</ele><time>2011-11-12T09:41:47Z</time></trkpt>
<trkpt lat="46.15283598" lon="7.26489094"><ele>1520.599976</ele><time>2011-11-12T09:41:53Z</time></trkpt>
<trkpt lat="46.15286096" lon="7.26490896"><ele>1521.199951</ele><time>2011-11-12T09:41:55Z</time></trkpt>
<trkpt lat="46.15294193" lon="7.26496596"><ele>1522.599976</ele><time>2011-11-12T09:42:02Z</time></trkpt>
<trkpt lat="46.15301393" lon="7.26502396"><ele>1524</ele><time>2011-11-12T09:42:08Z</time></trkpt>
<trkpt lat="46.15309892" lon="7.26509194"><ele>1525.199951</ele><time>2011-11-12T09:42:16Z</time></trkpt>
<trkpt lat="46.15315097" lon="7.26513393"><ele>1526</ele><time>2011-11-12T09:42:22Z</time></trkpt>
<trkpt lat="46.15320797" lon="7.26517894"><ele>1527</ele><time>2011-11-12T09:42:29Z</time></trkpt>
<trkpt lat="46.15326899" lon="7.26522798"><ele>1528</ele><time>2011-11-12T09:42:35Z</time></trkpt>
<trkpt lat="46.15334393" lon="7.26520493"><ele>1526.199951</ele><time>2011-11-12T09:42:41Z</time></trkpt>
<trkpt lat="46.15344199" lon="7.26521398"><ele>1525.800049</ele><time>2011-11-12T09:42:48Z</time></trkpt>
<trkpt lat="46.15349296" lon="7.26521892"><ele>1525.800049</ele><time>2011-11-12T09:42:53Z</time></trkpt>
<trkpt lat="46.15360100" lon="7.26523192"><ele>1525.400024</ele><time>2011-11-12T09:43:02Z</time></trkpt>
<trkpt lat="46.15371399" lon="7.26524499"><ele>1525.199951</ele><time>2011-11-12T09:43:10Z</time></trkpt>
<trkpt lat="46.15381599" lon="7.26525698"><ele>1524.800049</ele><time>2011-11-12T09:43:17Z</time></trkpt>
<trkpt lat="46.15392798" lon="7.26526695"><ele>1524.400024</ele><time>2011-11-12T09:43:26Z</time></trkpt>
<trkpt lat="46.15396796" lon="7.26526695"><ele>1524.199951</ele><time>2011-11-12T09:43:29Z</time></trkpt>
<trkpt lat="46.15404700" lon="7.26526695"><ele>1523.599976</ele><time>2011-11-12T09:43:35Z</time></trkpt>
<trkpt lat="46.15414792" lon="7.26524499"><ele>1522.199951</ele><time>2011-11-12T09:43:47Z</time></trkpt>
<trkpt lat="46.15421296" lon="7.26522295"><ele>1521.599976</ele><time>2011-11-12T09:43:53Z</time></trkpt>
<trkpt lat="46.15427298" lon="7.26520300"><ele>1521.400024</ele><time>2011-11-12T09:44:00Z</time></trkpt>
<trkpt lat="46.15427298" lon="7.26520300"><ele>1521.400024</ele><time>2011-11-12T09:44:01Z</time></trkpt>
<trkpt lat="46.15441798" lon="7.26543794"><ele>1530.199951</ele><time>2011-11-12T09:44:08Z</time></trkpt>
<trkpt lat="46.15453198" lon="7.26542696"><ele>1530.599976</ele><time>2011-11-12T09:44:16Z</time></trkpt>
<trkpt lat="46.15443894" lon="7.26508800"><ele>1518.599976</ele><time>2011-11-12T09:44:20Z</time></trkpt>
<trkpt lat="46.15468696" lon="7.26541297"><ele>1531.199951</ele><time>2011-11-12T09:44:27Z</time></trkpt>
<trkpt lat="46.15476097" lon="7.26540693"><ele>1531.400024</ele><time>2011-11-12T09:44:33Z</time></trkpt>
<trkpt lat="46.15481596" lon="7.26540199"><ele>1531.599976</ele><time>2011-11-12T09:44:37Z</time></trkpt>
<trkpt lat="46.15490899" lon="7.26540794"><ele>1532.400024</ele><time>2011-11-12T09:44:44Z</time></trkpt>
<trkpt lat="46.15497898" lon="7.26543099"><ele>1533.800049</ele><time>2011-11-12T09:44:49Z</time></trkpt>
<trkpt lat="46.15508895" lon="7.26546996"><ele>1535.599976</ele><time>2011-11-12T09:44:56Z</time></trkpt>
<trkpt lat="46.15518392" lon="7.26551095"><ele>1537.199951</ele><time>2011-11-12T09:45:03Z</time></trkpt>
<trkpt lat="46.15527998" lon="7.26555194"><ele>1538.800049</ele><time>2011-11-12T09:45:10Z</time></trkpt>
<trkpt lat="46.15535692" lon="7.26558396"><ele>1540</ele><time>2011-11-12T09:45:16Z</time></trkpt>
<trkpt lat="46.15543094" lon="7.26562696"><ele>1541.199951</ele><time>2011-11-12T09:45:23Z</time></trkpt>
<trkpt lat="46.15548299" lon="7.26565897"><ele>1542.199951</ele><time>2011-11-12T09:45:27Z</time></trkpt>
<trkpt lat="46.15554895" lon="7.26569795"><ele>1543.199951</ele><time>2011-11-12T09:45:31Z</time></trkpt>
<trkpt lat="46.15560293" lon="7.26576098"><ele>1544.599976</ele><time>2011-11-12T09:45:37Z</time></trkpt>
<trkpt lat="46.15562699" lon="7.26584899"><ele>1546.800049</ele><time>2011-11-12T09:45:43Z</time></trkpt>
<trkpt lat="46.15560796" lon="7.26582997"><ele>1546.400024</ele><time>2011-11-12T09:45:45Z</time></trkpt>
<trkpt lat="46.15560293" lon="7.26582494"><ele>1546.199951</ele><time>2011-11-12T09:45:53Z</time></trkpt>
<trkpt lat="46.15560293" lon="7.26582494"><ele>1546.199951</ele><time>2011-11-12T09:45:59Z</time></trkpt>
<trkpt lat="46.15560293" lon="7.26582494"><ele>1546.199951</ele><time>2011-11-12T09:46:07Z</time></trkpt>
<trkpt lat="46.15523497" lon="7.26553199"><ele>1538</ele><time>2011-11-12T09:46:15Z</time></trkpt>
<trkpt lat="46.15507194" lon="7.26577800"><ele>1545.800049</ele><time>2011-11-12T09:46:23Z</time></trkpt>
<trkpt lat="46.15508292" lon="7.26546695"><ele>1535.400024</ele><time>2011-11-12T09:46:30Z</time></trkpt>
<trkpt lat="46.15487396" lon="7.26590792"><ele>1549.599976</ele><time>2011-11-12T09:46:39Z</time></trkpt>
<trkpt lat="46.15482794" lon="7.26594798"><ele>1550.800049</ele><time>2011-11-12T09:46:43Z</time></trkpt>
<trkpt lat="46.15478000" lon="7.26598897"><ele>1552.199951</ele><time>2011-11-12T09:46:47Z</time></trkpt>
<trkpt lat="46.15471998" lon="7.26602895"><ele>1553.400024</ele><time>2011-11-12T09:46:55Z</time></trkpt>
<trkpt lat="46.15465192" lon="7.26605695"><ele>1554.199951</ele><time>2011-11-12T09:47:02Z</time></trkpt>
<trkpt lat="46.15459593" lon="7.26608000"><ele>1555</ele><time>2011-11-12T09:47:09Z</time></trkpt>
<trkpt lat="46.15451295" lon="7.26611394"><ele>1556.199951</ele><time>2011-11-12T09:47:16Z</time></trkpt>
<trkpt lat="46.15443399" lon="7.26614596"><ele>1557.400024</ele><time>2011-11-12T09:47:24Z</time></trkpt>
<trkpt lat="46.15433995" lon="7.26617899"><ele>1558.800049</ele><time>2011-11-12T09:47:32Z</time></trkpt>
<trkpt lat="46.15422796" lon="7.26620698"><ele>1559.800049</ele><time>2011-11-12T09:47:40Z</time></trkpt>
<trkpt lat="46.15413794" lon="7.26622894"><ele>1561.199951</ele><time>2011-11-12T09:47:47Z</time></trkpt>
<trkpt lat="46.15402998" lon="7.26623297"><ele>1562.599976</ele><time>2011-11-12T09:47:56Z</time></trkpt>
<trkpt lat="46.15396000" lon="7.26622995"><ele>1563.199951</ele><time>2011-11-12T09:48:03Z</time></trkpt>
<trkpt lat="46.15388095" lon="7.26621293"><ele>1563.199951</ele><time>2011-11-12T09:48:08Z</time></trkpt>
<trkpt lat="46.15377593" lon="7.26618997"><ele>1563.199951</ele><time>2011-11-12T09:48:16Z</time></trkpt>
<trkpt lat="46.15369999" lon="7.26618100"><ele>1563.400024</ele><time>2011-11-12T09:48:23Z</time></trkpt>
<trkpt lat="46.15362296" lon="7.26617295"><ele>1563.800049</ele><time>2011-11-12T09:48:29Z</time></trkpt>
<trkpt lat="46.15351098" lon="7.26617597"><ele>1565.199951</ele><time>2011-11-12T09:48:37Z</time></trkpt>
<trkpt lat="46.15342892" lon="7.26618393"><ele>1566.400024</ele><time>2011-11-12T09:48:43Z</time></trkpt>
<trkpt lat="46.15335298" lon="7.26619198"><ele>1567.599976</ele><time>2011-11-12T09:48:50Z</time></trkpt>
<trkpt lat="46.15325793" lon="7.26620497"><ele>1569.400024</ele><time>2011-11-12T09:48:58Z</time></trkpt>
<trkpt lat="46.15316195" lon="7.26621796"><ele>1571.199951</ele><time>2011-11-12T09:49:05Z</time></trkpt>
<trkpt lat="46.15306598" lon="7.26623096"><ele>1573.199951</ele><time>2011-11-12T09:49:12Z</time></trkpt>
<trkpt lat="46.15301594" lon="7.26622693"><ele>1573.400024</ele><time>2011-11-12T09:49:19Z</time></trkpt>
<trkpt lat="46.15295492" lon="7.26621696"><ele>1573.599976</ele><time>2011-11-12T09:49:24Z</time></trkpt>
<trkpt lat="46.15286892" lon="7.26620296"><ele>1574</ele><time>2011-11-12T09:49:31Z</time></trkpt>
<trkpt lat="46.15276993" lon="7.26618594"><ele>1574.199951</ele><time>2011-11-12T09:49:38Z</time></trkpt>
<trkpt lat="46.15270196" lon="7.26617496"><ele>1574.599976</ele><time>2011-11-12T09:49:45Z</time></trkpt>
<trkpt lat="46.15263297" lon="7.26616298"><ele>1574.800049</ele><time>2011-11-12T09:49:50Z</time></trkpt>
<trkpt lat="46.15257095" lon="7.26615292"><ele>1575</ele><time>2011-11-12T09:49:54Z</time></trkpt>
<trkpt lat="46.15253096" lon="7.26614596"><ele>1575</ele><time>2011-11-12T09:50:01Z</time></trkpt>
<trkpt lat="46.15253096" lon="7.26614596"><ele>1575</ele><time>2011-11-12T09:50:02Z</time></trkpt>
<trkpt lat="46.15250196" lon="7.26613892"><ele>1575</ele><time>2011-11-12T09:50:07Z</time></trkpt>
<trkpt lat="46.15248998" lon="7.26619693"><ele>1577.800049</ele><time>2011-11-12T09:50:12Z</time></trkpt>
<trkpt lat="46.15250498" lon="7.26613993"><ele>1575</ele><time>2011-11-12T09:50:15Z</time></trkpt>
<trkpt lat="46.15238898" lon="7.26615594"><ele>1573.400024</ele><time>2011-11-12T09:53:35Z</time></trkpt>
<trkpt lat="46.15237598" lon="7.26616197"><ele>1573.400024</ele><time>2011-11-12T09:53:39Z</time></trkpt>
<trkpt lat="46.15234195" lon="7.26618997"><ele>1574</ele><time>2011-11-12T09:53:45Z</time></trkpt>
<trkpt lat="46.15228998" lon="7.26624194"><ele>1575.599976</ele><time>2011-11-12T09:53:52Z</time></trkpt>
<trkpt lat="46.15223098" lon="7.26631192"><ele>1577.800049</ele><time>2011-11-12T09:53:59Z</time></trkpt>
<trkpt lat="46.15221597" lon="7.26633095"><ele>1578.400024</ele><time>2011-11-12T09:54:01Z</time></trkpt>
<trkpt lat="46.15211095" lon="7.26643497"><ele>1581.199951</ele><time>2011-11-12T09:54:12Z</time></trkpt>
<trkpt lat="46.15208999" lon="7.26645400"><ele>1581.800049</ele><time>2011-11-12T09:54:14Z</time></trkpt>
<trkpt lat="46.15200793" lon="7.26652793"><ele>1583.400024</ele><time>2011-11-12T09:54:22Z</time></trkpt>
<trkpt lat="46.15199000" lon="7.26654394"><ele>1583.800049</ele><time>2011-11-12T09:54:24Z</time></trkpt>
<trkpt lat="46.15191699" lon="7.26660999"><ele>1585.400024</ele><time>2011-11-12T09:54:30Z</time></trkpt>
<trkpt lat="46.15187299" lon="7.26664997"><ele>1586.199951</ele><time>2011-11-12T09:54:35Z</time></trkpt>
<trkpt lat="46.15181699" lon="7.26670093"><ele>1587.400024</ele><time>2011-11-12T09:54:41Z</time></trkpt>
<trkpt lat="46.15170593" lon="7.26681199"><ele>1590.199951</ele><time>2011-11-12T09:54:49Z</time></trkpt>
<trkpt lat="46.15166394" lon="7.26686195"><ele>1591.599976</ele><time>2011-11-12T09:54:53Z</time></trkpt>
<trkpt lat="46.15161893" lon="7.26691592"><ele>1593.400024</ele><time>2011-11-12T09:54:57Z</time></trkpt>
<trkpt lat="46.15153595" lon="7.26701592"><ele>1596.599976</ele><time>2011-11-12T09:55:06Z</time></trkpt>
<trkpt lat="46.15148499" lon="7.26707594"><ele>1598.400024</ele><time>2011-11-12T09:55:12Z</time></trkpt>
<trkpt lat="46.15141894" lon="7.26715598"><ele>1600.800049</ele><time>2011-11-12T09:55:19Z</time></trkpt>
<trkpt lat="46.15132397" lon="7.26719798"><ele>1600.800049</ele><time>2011-11-12T09:55:26Z</time></trkpt>
<trkpt lat="46.15122599" lon="7.26724198"><ele>1600.599976</ele><time>2011-11-12T09:55:33Z</time></trkpt>
<trkpt lat="46.15114493" lon="7.26725799"><ele>1599.599976</ele><time>2011-11-12T09:55:40Z</time></trkpt>
<trkpt lat="46.15107193" lon="7.26727199"><ele>1598.599976</ele><time>2011-11-12T09:55:46Z</time></trkpt>
<trkpt lat="46.15098995" lon="7.26728196"><ele>1597</ele><time>2011-11-12T09:55:53Z</time></trkpt>
<trkpt lat="46.15085995" lon="7.26726595"><ele>1593.199951</ele><time>2011-11-12T09:56:02Z</time></trkpt>
<trkpt lat="46.15072399" lon="7.26728196"><ele>1592.199951</ele><time>2011-11-12T09:56:11Z</time></trkpt>
<trkpt lat="46.15063892" lon="7.26729898"><ele>1592.199951</ele><time>2011-11-12T09:56:18Z</time></trkpt>
<trkpt lat="46.15052995" lon="7.26737894"><ele>1594.800049</ele><time>2011-11-12T09:56:25Z</time></trkpt>
<trkpt lat="46.15045393" lon="7.26749796"><ele>1599.800049</ele><time>2011-11-12T09:56:31Z</time></trkpt>
<trkpt lat="46.15036692" lon="7.26757097"><ele>1603</ele><time>2011-11-12T09:56:38Z</time></trkpt>
<trkpt lat="46.15027799" lon="7.26757994"><ele>1602.599976</ele><time>2011-11-12T09:56:45Z</time></trkpt>
<trkpt lat="46.15018596" lon="7.26756996"><ele>1601</ele><time>2011-11-12T09:56:51Z</time></trkpt>
<trkpt lat="46.15010994" lon="7.26756292"><ele>1599.599976</ele><time>2011-11-12T09:56:58Z</time></trkpt>
<trkpt lat="46.15002897" lon="7.26756292"><ele>1598.800049</ele><time>2011-11-12T09:57:05Z</time></trkpt>
<trkpt lat="46.14992595" lon="7.26757793"><ele>1597.400024</ele><time>2011-11-12T09:57:13Z</time></trkpt>
<trkpt lat="46.14984498" lon="7.26761095"><ele>1597.199951</ele><time>2011-11-12T09:57:19Z</time></trkpt>
<trkpt lat="46.14977298" lon="7.26764096"><ele>1596.800049</ele><time>2011-11-12T09:57:25Z</time></trkpt>
<trkpt lat="46.14967098" lon="7.26769393"><ele>1596.599976</ele><time>2011-11-12T09:57:33Z</time></trkpt>
<trkpt lat="46.14960996" lon="7.26774297"><ele>1597.199951</ele><time>2011-11-12T09:57:40Z</time></trkpt>
<trkpt lat="46.14960099" lon="7.26775395"><ele>1597.400024</ele><time>2011-11-12T09:57:41Z</time></trkpt>
<trkpt lat="46.14953100" lon="7.26784196"><ele>1599.199951</ele><time>2011-11-12T09:57:49Z</time></trkpt>
<trkpt lat="46.14950099" lon="7.26790197"><ele>1600.800049</ele><time>2011-11-12T09:57:57Z</time></trkpt>
<trkpt lat="46.14946092" lon="7.26798294"><ele>1602.800049</ele><time>2011-11-12T09:58:04Z</time></trkpt>
<trkpt lat="46.14941692" lon="7.26807095"><ele>1604.599976</ele><time>2011-11-12T09:58:10Z</time></trkpt>
<trkpt lat="46.14937593" lon="7.26813893"><ele>1605.800049</ele><time>2011-11-12T09:58:14Z</time></trkpt>
<trkpt lat="46.14923093" lon="7.26827195"><ele>1604.599976</ele><time>2011-11-12T09:58:22Z</time></trkpt>
<trkpt lat="46.14923093" lon="7.26827195"><ele>1604.599976</ele><time>2011-11-12T09:58:26Z</time></trkpt>
<trkpt lat="46.14867495" lon="7.26715297"><ele>1533.199951</ele><time>2011-11-12T09:58:28Z</time></trkpt>
<trkpt lat="46.14863095" lon="7.26719697"><ele>1533</ele><time>2011-11-12T09:58:35Z</time></trkpt>
<trkpt lat="46.14862500" lon="7.26720393"><ele>1533</ele><time>2011-11-12T09:58:36Z</time></trkpt>
<trkpt lat="46.14919296" lon="7.26834697"><ele>1605.599976</ele><time>2011-11-12T09:58:44Z</time></trkpt>
<trkpt lat="46.14918793" lon="7.26835694"><ele>1605.599976</ele><time>2011-11-12T09:58:45Z</time></trkpt>
<trkpt lat="46.14917996" lon="7.26837597"><ele>1606</ele><time>2011-11-12T09:58:49Z</time></trkpt>
<trkpt lat="46.14914593" lon="7.26846096"><ele>1607.199951</ele><time>2011-11-12T09:58:56Z</time></trkpt>
<trkpt lat="46.14912196" lon="7.26852399"><ele>1608</ele><time>2011-11-12T09:59:00Z</time></trkpt>
<trkpt lat="46.14908399" lon="7.26862793"><ele>1609.400024</ele><time>2011-11-12T09:59:08Z</time></trkpt>
<trkpt lat="46.14907997" lon="7.26863598"><ele>1609.400024</ele><time>2011-11-12T09:59:15Z</time></trkpt>
<trkpt lat="46.14907192" lon="7.26869398"><ele>1611</ele><time>2011-11-12T09:59:21Z</time></trkpt>
<trkpt lat="46.14905993" lon="7.26877998"><ele>1613.199951</ele><time>2011-11-12T09:59:29Z</time></trkpt>
<trkpt lat="46.14905097" lon="7.26883898"><ele>1614.599976</ele><time>2011-11-12T09:59:37Z</time></trkpt>
<trkpt lat="46.14901694" lon="7.26907795"><ele>1620.599976</ele><time>2011-11-12T09:59:45Z</time></trkpt>
<trkpt lat="46.14900193" lon="7.26918792"><ele>1623.199951</ele><time>2011-11-12T09:59:50Z</time></trkpt>
<trkpt lat="46.14899296" lon="7.26925892"><ele>1624.800049</ele><time>2011-11-12T09:59:57Z</time></trkpt>
<trkpt lat="46.14899296" lon="7.26925892"><ele>1624.800049</ele><time>2011-11-12T09:59:58Z</time></trkpt>
<trkpt lat="46.14897997" lon="7.26942798"><ele>1629.199951</ele><time>2011-11-12T10:00:05Z</time></trkpt>
<trkpt lat="46.14897293" lon="7.26951599"><ele>1631.599976</ele><time>2011-11-12T10:00:10Z</time></trkpt>
<trkpt lat="46.14883396" lon="7.27001195"><ele>1639</ele><time>2011-11-12T10:00:18Z</time></trkpt>
<trkpt lat="46.14875299" lon="7.27010792"><ele>1638.400024</ele><time>2011-11-12T10:00:27Z</time></trkpt>
<trkpt lat="46.14864394" lon="7.27022292"><ele>1637.199951</ele><time>2011-11-12T10:00:35Z</time></trkpt>
<trkpt lat="46.14857395" lon="7.27027296"><ele>1635.599976</ele><time>2011-11-12T10:00:42Z</time></trkpt>
<trkpt lat="46.14846993" lon="7.27033197"><ele>1632.599976</ele><time>2011-11-12T10:00:49Z</time></trkpt>
<trkpt lat="46.14840497" lon="7.27035997"><ele>1630.199951</ele><time>2011-11-12T10:00:55Z</time></trkpt>
<trkpt lat="46.14832895" lon="7.27038293"><ele>1627.199951</ele><time>2011-11-12T10:01:01Z</time></trkpt>
<trkpt lat="46.14823298" lon="7.27040598"><ele>1623.800049</ele><time>2011-11-12T10:01:09Z</time></trkpt>
<trkpt lat="46.14820498" lon="7.27041596"><ele>1623</ele><time>2011-11-12T10:01:12Z</time></trkpt>
<trkpt lat="46.14816098" lon="7.27044295"><ele>1622</ele><time>2011-11-12T10:01:18Z</time></trkpt>
<trkpt lat="46.14811898" lon="7.27048896"><ele>1622.199951</ele><time>2011-11-12T10:01:23Z</time></trkpt>
<trkpt lat="46.14810096" lon="7.27051796"><ele>1622.599976</ele><time>2011-11-12T10:01:29Z</time></trkpt>
<trkpt lat="46.14810096" lon="7.27051796"><ele>1622.599976</ele><time>2011-11-12T10:01:30Z</time></trkpt>
<trkpt lat="46.14804095" lon="7.27069197"><ele>1627.599976</ele><time>2011-11-12T10:01:39Z</time></trkpt>
<trkpt lat="46.14802393" lon="7.27079599"><ele>1631.400024</ele><time>2011-11-12T10:01:46Z</time></trkpt>
<trkpt lat="46.14802192" lon="7.27082499"><ele>1632.800049</ele><time>2011-11-12T10:01:50Z</time></trkpt>
<trkpt lat="46.14801496" lon="7.27090294"><ele>1635.199951</ele><time>2011-11-12T10:01:57Z</time></trkpt>
<trkpt lat="46.14801295" lon="7.27092792"><ele>1636</ele><time>2011-11-12T10:02:05Z</time></trkpt>
<trkpt lat="46.14799795" lon="7.27107595"><ele>1640.599976</ele><time>2011-11-12T10:02:13Z</time></trkpt>
<trkpt lat="46.14799795" lon="7.27107595"><ele>1640.599976</ele><time>2011-11-12T10:02:20Z</time></trkpt>
<trkpt lat="46.14799795" lon="7.27107595"><ele>1640.599976</ele><time>2011-11-12T10:02:25Z</time></trkpt>
<trkpt lat="46.14793399" lon="7.27130393"><ele>1645.599976</ele><time>2011-11-12T10:02:34Z</time></trkpt>
<trkpt lat="46.14790097" lon="7.27138893"><ele>1647</ele><time>2011-11-12T10:02:40Z</time></trkpt>
<trkpt lat="46.14790097" lon="7.27138893"><ele>1647</ele><time>2011-11-12T10:02:42Z</time></trkpt>
<trkpt lat="46.14787599" lon="7.27146294"><ele>1648.400024</ele><time>2011-11-12T10:02:45Z</time></trkpt>
<trkpt lat="46.14785696" lon="7.27159697"><ele>1652</ele><time>2011-11-12T10:02:54Z</time></trkpt>
<trkpt lat="46.14785495" lon="7.27161298"><ele>1652.599976</ele><time>2011-11-12T10:02:56Z</time></trkpt>
<trkpt lat="46.14783894" lon="7.27170493"><ele>1655</ele><time>2011-11-12T10:03:01Z</time></trkpt>
<trkpt lat="46.14782293" lon="7.27180299"><ele>1657.599976</ele><time>2011-11-12T10:03:07Z</time></trkpt>
<trkpt lat="46.14780298" lon="7.27191095"><ele>1660.400024</ele><time>2011-11-12T10:03:14Z</time></trkpt>
<trkpt lat="46.14769000" lon="7.27215897"><ele>1663.599976</ele><time>2011-11-12T10:03:23Z</time></trkpt>
<trkpt lat="46.14759997" lon="7.27219795"><ele>1660.400024</ele><time>2011-11-12T10:03:29Z</time></trkpt>
<trkpt lat="46.14756393" lon="7.27223399"><ele>1659.800049</ele><time>2011-11-12T10:03:37Z</time></trkpt>
<trkpt lat="46.14755698" lon="7.27224095"><ele>1659.800049</ele><time>2011-11-12T10:03:41Z</time></trkpt>
<trkpt lat="46.14750098" lon="7.27241093"><ele>1662.800049</ele><time>2011-11-12T10:03:49Z</time></trkpt>
<trkpt lat="46.14736796" lon="7.27249894"><ele>1661.800049</ele><time>2011-11-12T10:03:56Z</time></trkpt>
<trkpt lat="46.14726998" lon="7.27252794"><ele>1659.599976</ele><time>2011-11-12T10:04:05Z</time></trkpt>
<trkpt lat="46.14708994" lon="7.27259399"><ele>1655.599976</ele><time>2011-11-12T10:04:15Z</time></trkpt>
<trkpt lat="46.14701693" lon="7.27253792"><ele>1651.800049</ele><time>2011-11-12T10:04:21Z</time></trkpt>
<trkpt lat="46.14695599" lon="7.27249894"><ele>1648.800049</ele><time>2011-11-12T10:04:29Z</time></trkpt>
<trkpt lat="46.14689598" lon="7.27250397"><ele>1647.199951</ele><time>2011-11-12T10:04:36Z</time></trkpt>
<trkpt lat="46.14675592" lon="7.27254697"><ele>1643.599976</ele><time>2011-11-12T10:04:44Z</time></trkpt>
<trkpt lat="46.14676698" lon="7.27269399"><ele>1646.800049</ele><time>2011-11-12T10:04:52Z</time></trkpt>
<trkpt lat="46.14676899" lon="7.27271394"><ele>1647.199951</ele><time>2011-11-12T10:04:53Z</time></trkpt>
<trkpt lat="46.14677494" lon="7.27277798"><ele>1648.599976</ele><time>2011-11-12T10:05:00Z</time></trkpt>
<trkpt lat="46.14678400" lon="7.27289599"><ele>1651.199951</ele><time>2011-11-12T10:10:00Z</time></trkpt>
<trkpt lat="46.14678400" lon="7.27297093"><ele>1652.800049</ele><time>2011-11-12T10:10:06Z</time></trkpt>
<trkpt lat="46.14669993" lon="7.27318592"><ele>1653</ele><time>2011-11-12T10:10:16Z</time></trkpt>
<trkpt lat="46.14667897" lon="7.27331299"><ele>1654.199951</ele><time>2011-11-12T10:10:23Z</time></trkpt>
<trkpt lat="46.14665500" lon="7.27344895"><ele>1656</ele><time>2011-11-12T10:10:31Z</time></trkpt>
<trkpt lat="46.14664595" lon="7.27359496"><ele>1658.800049</ele><time>2011-11-12T10:10:39Z</time></trkpt>
<trkpt lat="46.14663698" lon="7.27374592"><ele>1661.800049</ele><time>2011-11-12T10:10:47Z</time></trkpt>
<trkpt lat="46.14662399" lon="7.27391599"><ele>1665</ele><time>2011-11-12T10:10:56Z</time></trkpt>
<trkpt lat="46.14660999" lon="7.27409192"><ele>1668.400024</ele><time>2011-11-12T10:11:05Z</time></trkpt>
<trkpt lat="46.14659892" lon="7.27419896"><ele>1670.199951</ele><time>2011-11-12T10:11:11Z</time></trkpt>
<trkpt lat="46.14655098" lon="7.27435495"><ele>1671.400024</ele><time>2011-11-12T10:11:21Z</time></trkpt>
<trkpt lat="46.14648594" lon="7.27447699"><ele>1671.800049</ele><time>2011-11-12T10:11:30Z</time></trkpt>
<trkpt lat="46.14644998" lon="7.27454396"><ele>1672.199951</ele><time>2011-11-12T10:11:35Z</time></trkpt>
<trkpt lat="46.14638695" lon="7.27462593"><ele>1672.400024</ele><time>2011-11-12T10:11:42Z</time></trkpt>
<trkpt lat="46.14631595" lon="7.27467899"><ele>1672</ele><time>2011-11-12T10:11:49Z</time></trkpt>
<trkpt lat="46.14624395" lon="7.27473096"><ele>1671.599976</ele><time>2011-11-12T10:11:56Z</time></trkpt>
<trkpt lat="46.14617296" lon="7.27473792"><ele>1670.400024</ele><time>2011-11-12T10:12:02Z</time></trkpt>
<trkpt lat="46.14606299" lon="7.27474898"><ele>1668.599976</ele><time>2011-11-12T10:12:11Z</time></trkpt>
<trkpt lat="46.14597992" lon="7.27473792"><ele>1666.599976</ele><time>2011-11-12T10:12:18Z</time></trkpt>
<trkpt lat="46.14594799" lon="7.27472995"><ele>1665.800049</ele><time>2011-11-12T10:12:21Z</time></trkpt>
<trkpt lat="46.14583994" lon="7.27475896"><ele>1664.599976</ele><time>2011-11-12T10:12:29Z</time></trkpt>
<trkpt lat="46.14580097" lon="7.27486197"><ele>1667</ele><time>2011-11-12T10:12:35Z</time></trkpt>
<trkpt lat="46.14575797" lon="7.27497797"><ele>1670</ele><time>2011-11-12T10:12:43Z</time></trkpt>
<trkpt lat="46.14574196" lon="7.27512600"><ele>1671.800049</ele><time>2011-11-12T10:12:51Z</time></trkpt>
<trkpt lat="46.14571899" lon="7.27524796"><ele>1672.800049</ele><time>2011-11-12T10:12:58Z</time></trkpt>
<trkpt lat="46.14567700" lon="7.27531694"><ele>1673.199951</ele><time>2011-11-12T10:13:04Z</time></trkpt>
<trkpt lat="46.14559595" lon="7.27545993"><ele>1674.400024</ele><time>2011-11-12T10:13:14Z</time></trkpt>
<trkpt lat="46.14554398" lon="7.27555197"><ele>1675.400024</ele><time>2011-11-12T10:13:21Z</time></trkpt>
<trkpt lat="46.14547793" lon="7.27566898"><ele>1677.199951</ele><time>2011-11-12T10:13:30Z</time></trkpt>
<trkpt lat="46.14541892" lon="7.27577199"><ele>1678.800049</ele><time>2011-11-12T10:13:37Z</time></trkpt>
<trkpt lat="46.14534197" lon="7.27590795"><ele>1681.599976</ele><time>2011-11-12T10:13:47Z</time></trkpt>
<trkpt lat="46.14527693" lon="7.27602194"><ele>1683.800049</ele><time>2011-11-12T10:13:55Z</time></trkpt>
<trkpt lat="46.14521993" lon="7.27612093"><ele>1685.800049</ele><time>2011-11-12T10:14:02Z</time></trkpt>
<trkpt lat="46.14513997" lon="7.27626099"><ele>1688.199951</ele><time>2011-11-12T10:14:12Z</time></trkpt>
<trkpt lat="46.14506193" lon="7.27634498"><ele>1689.599976</ele><time>2011-11-12T10:14:20Z</time></trkpt>
<trkpt lat="46.14496898" lon="7.27643894"><ele>1691</ele><time>2011-11-12T10:14:30Z</time></trkpt>
<trkpt lat="46.14489296" lon="7.27647599"><ele>1691.599976</ele><time>2011-11-12T10:14:37Z</time></trkpt>
<trkpt lat="46.14479095" lon="7.27649200"><ele>1691.800049</ele><time>2011-11-12T10:14:45Z</time></trkpt>
<trkpt lat="46.14465399" lon="7.27651094"><ele>1692.199951</ele><time>2011-11-12T10:14:55Z</time></trkpt>
<trkpt lat="46.14453698" lon="7.27652594"><ele>1692.199951</ele><time>2011-11-12T10:15:04Z</time></trkpt>
<trkpt lat="46.14447093" lon="7.27652997"><ele>1692.199951</ele><time>2011-11-12T10:15:09Z</time></trkpt>
<trkpt lat="46.14438694" lon="7.27651496"><ele>1692</ele><time>2011-11-12T10:15:16Z</time></trkpt>
<trkpt lat="46.14434897" lon="7.27650792"><ele>1691.800049</ele><time>2011-11-12T10:15:19Z</time></trkpt>
<trkpt lat="46.14428493" lon="7.27649694"><ele>1691.800049</ele><time>2011-11-12T10:15:25Z</time></trkpt>
<trkpt lat="46.14426297" lon="7.27649292"><ele>1691.599976</ele><time>2011-11-12T10:15:27Z</time></trkpt>
<trkpt lat="46.14413297" lon="7.27646995"><ele>1691.599976</ele><time>2011-11-12T10:15:37Z</time></trkpt>
<trkpt lat="46.14405594" lon="7.27644699"><ele>1692</ele><time>2011-11-12T10:15:43Z</time></trkpt>
<trkpt lat="46.14394999" lon="7.27641396"><ele>1692.400024</ele><time>2011-11-12T10:15:51Z</time></trkpt>
<trkpt lat="46.14392594" lon="7.27640600"><ele>1692.400024</ele><time>2011-11-12T10:15:53Z</time></trkpt>
<trkpt lat="46.14387598" lon="7.27638999"><ele>1692.599976</ele><time>2011-11-12T10:15:57Z</time></trkpt>
<trkpt lat="46.14375696" lon="7.27635294"><ele>1692.800049</ele><time>2011-11-12T10:16:06Z</time></trkpt>
<trkpt lat="46.14363399" lon="7.27632998"><ele>1693.199951</ele><time>2011-11-12T10:16:15Z</time></trkpt>
<trkpt lat="46.14352000" lon="7.27634498"><ele>1694.400024</ele><time>2011-11-12T10:16:23Z</time></trkpt>
<trkpt lat="46.14340198" lon="7.27640793"><ele>1696.800049</ele><time>2011-11-12T10:16:32Z</time></trkpt>
<trkpt lat="46.14330593" lon="7.27644900"><ele>1698.800049</ele><time>2011-11-12T10:16:40Z</time></trkpt>
<trkpt lat="46.14317198" lon="7.27649594"><ele>1701.599976</ele><time>2011-11-12T10:16:50Z</time></trkpt>
<trkpt lat="46.14308196" lon="7.27652796"><ele>1703.599976</ele><time>2011-11-12T10:16:57Z</time></trkpt>
<trkpt lat="46.14297794" lon="7.27655092"><ele>1705.599976</ele><time>2011-11-12T10:17:06Z</time></trkpt>
<trkpt lat="46.14286998" lon="7.27653994"><ele>1706.800049</ele><time>2011-11-12T10:17:14Z</time></trkpt>
<trkpt lat="46.14275993" lon="7.27652997"><ele>1707.800049</ele><time>2011-11-12T10:17:22Z</time></trkpt>
<trkpt lat="46.14265792" lon="7.27651899"><ele>1708.800049</ele><time>2011-11-12T10:17:30Z</time></trkpt>
<trkpt lat="46.14257293" lon="7.27651094"><ele>1709.599976</ele><time>2011-11-12T10:17:37Z</time></trkpt>
<trkpt lat="46.14251392" lon="7.27651496"><ele>1710.400024</ele><time>2011-11-12T10:17:42Z</time></trkpt>
<trkpt lat="46.14243899" lon="7.27651899"><ele>1710.599976</ele><time>2011-11-12T10:17:49Z</time></trkpt>
<trkpt lat="46.14235299" lon="7.27652393"><ele>1710.599976</ele><time>2011-11-12T10:17:56Z</time></trkpt>
<trkpt lat="46.14228392" lon="7.27652796"><ele>1710.400024</ele><time>2011-11-12T10:18:01Z</time></trkpt>
<trkpt lat="46.14217596" lon="7.27654899"><ele>1711</ele><time>2011-11-12T10:18:09Z</time></trkpt>
<trkpt lat="46.14208795" lon="7.27658696"><ele>1712.199951</ele><time>2011-11-12T10:18:16Z</time></trkpt>
<trkpt lat="46.14206498" lon="7.27659593"><ele>1712.599976</ele><time>2011-11-12T10:18:18Z</time></trkpt>
<trkpt lat="46.14203498" lon="7.27662100"><ele>1713.599976</ele><time>2011-11-12T10:18:22Z</time></trkpt>
<trkpt lat="46.14202400" lon="7.27662996"><ele>1713.800049</ele><time>2011-11-12T10:18:26Z</time></trkpt>
<trkpt lat="46.14202400" lon="7.27662996"><ele>1713.800049</ele><time>2011-11-12T10:20:21Z</time></trkpt>
<trkpt lat="46.14202400" lon="7.27662996"><ele>1713.800049</ele><time>2011-11-12T10:20:24Z</time></trkpt>
<trkpt lat="46.14196692" lon="7.27667799"><ele>1715.800049</ele><time>2011-11-12T10:20:29Z</time></trkpt>
<trkpt lat="46.14192199" lon="7.27672393"><ele>1717.800049</ele><time>2011-11-12T10:20:34Z</time></trkpt>
<trkpt lat="46.14185594" lon="7.27682300"><ele>1722</ele><time>2011-11-12T10:20:42Z</time></trkpt>
<trkpt lat="46.14181898" lon="7.27688293"><ele>1724.599976</ele><time>2011-11-12T10:20:50Z</time></trkpt>
<trkpt lat="46.14172099" lon="7.27701494"><ele>1730</ele><time>2011-11-12T10:20:58Z</time></trkpt>
<trkpt lat="46.14168294" lon="7.27703397"><ele>1730.800049</ele><time>2011-11-12T10:21:03Z</time></trkpt>
<trkpt lat="46.14168998" lon="7.27703095"><ele>1730.599976</ele><time>2011-11-12T10:21:09Z</time></trkpt>
<trkpt lat="46.14177992" lon="7.27711494"><ele>1734.599976</ele><time>2011-11-12T10:21:15Z</time></trkpt>
<trkpt lat="46.14183792" lon="7.27706297"><ele>1732.400024</ele><time>2011-11-12T10:21:21Z</time></trkpt>
<trkpt lat="46.14192593" lon="7.27698192"><ele>1729</ele><time>2011-11-12T10:21:29Z</time></trkpt>
<trkpt lat="46.14201696" lon="7.27689793"><ele>1725.599976</ele><time>2011-11-12T10:21:38Z</time></trkpt>
<trkpt lat="46.14210195" lon="7.27684697"><ele>1723.400024</ele><time>2011-11-12T10:21:45Z</time></trkpt>
<trkpt lat="46.14221393" lon="7.27683792"><ele>1723.199951</ele><time>2011-11-12T10:21:54Z</time></trkpt>
<trkpt lat="46.14230194" lon="7.27684697"><ele>1723.800049</ele><time>2011-11-12T10:22:01Z</time></trkpt>
<trkpt lat="46.14242499" lon="7.27690699"><ele>1726.800049</ele><time>2011-11-12T10:22:11Z</time></trkpt>
<trkpt lat="46.14250294" lon="7.27697295"><ele>1729.800049</ele><time>2011-11-12T10:22:19Z</time></trkpt>
<trkpt lat="46.14258994" lon="7.27704797"><ele>1731.400024</ele><time>2011-11-12T10:22:28Z</time></trkpt>
<trkpt lat="46.14265893" lon="7.27710698"><ele>1732.599976</ele><time>2011-11-12T10:22:35Z</time></trkpt>
<trkpt lat="46.14274492" lon="7.27718099"><ele>1733.800049</ele><time>2011-11-12T10:22:43Z</time></trkpt>
<trkpt lat="46.14281693" lon="7.27724293"><ele>1734.800049</ele><time>2011-11-12T10:22:50Z</time></trkpt>
<trkpt lat="46.14290100" lon="7.27731493"><ele>1735.599976</ele><time>2011-11-12T10:22:57Z</time></trkpt>
<trkpt lat="46.14300594" lon="7.27742398"><ele>1737</ele><time>2011-11-12T10:23:07Z</time></trkpt>
<trkpt lat="46.14309395" lon="7.27754292"><ele>1739.400024</ele><time>2011-11-12T10:23:16Z</time></trkpt>
<trkpt lat="46.14315195" lon="7.27766597"><ele>1743</ele><time>2011-11-12T10:23:24Z</time></trkpt>
<trkpt lat="46.14321196" lon="7.27779195"><ele>1746.599976</ele><time>2011-11-12T10:23:32Z</time></trkpt>
<trkpt lat="46.14326796" lon="7.27790896"><ele>1749.599976</ele><time>2011-11-12T10:23:39Z</time></trkpt>
<trkpt lat="46.14332194" lon="7.27798196"><ele>1751</ele><time>2011-11-12T10:23:44Z</time></trkpt>
<trkpt lat="46.14341799" lon="7.27810895"><ele>1753.800049</ele><time>2011-11-12T10:23:54Z</time></trkpt>
<trkpt lat="46.14350692" lon="7.27822797"><ele>1756.400024</ele><time>2011-11-12T10:24:03Z</time></trkpt>
<trkpt lat="46.14358697" lon="7.27826393"><ele>1755.800049</ele><time>2011-11-12T10:24:09Z</time></trkpt>
<trkpt lat="46.14366794" lon="7.27828095"><ele>1754.400024</ele><time>2011-11-12T10:24:13Z</time></trkpt>
<trkpt lat="46.14375696" lon="7.27829696"><ele>1752.800049</ele><time>2011-11-12T10:24:22Z</time></trkpt>
<trkpt lat="46.14380398" lon="7.27830199"><ele>1751.800049</ele><time>2011-11-12T10:24:26Z</time></trkpt>
<trkpt lat="46.14387196" lon="7.27830894"><ele>1750.400024</ele><time>2011-11-12T10:24:32Z</time></trkpt>
<trkpt lat="46.14392795" lon="7.27831498"><ele>1749.199951</ele><time>2011-11-12T10:24:38Z</time></trkpt>
<trkpt lat="46.14394295" lon="7.27831699"><ele>1749</ele><time>2011-11-12T10:24:39Z</time></trkpt>
<trkpt lat="46.14403297" lon="7.27832495"><ele>1747</ele><time>2011-11-12T10:24:47Z</time></trkpt>
<trkpt lat="46.14409592" lon="7.27832998"><ele>1745.599976</ele><time>2011-11-12T10:24:52Z</time></trkpt>
<trkpt lat="46.14425099" lon="7.27838195"><ele>1744.800049</ele><time>2011-11-12T10:25:01Z</time></trkpt>
<trkpt lat="46.14437596" lon="7.27846694"><ele>1746.800049</ele><time>2011-11-12T10:25:08Z</time></trkpt>
<trkpt lat="46.14442097" lon="7.27852000"><ele>1748.199951</ele><time>2011-11-12T10:25:14Z</time></trkpt>
<trkpt lat="46.14450194" lon="7.27862796"><ele>1751.199951</ele><time>2011-11-12T10:25:23Z</time></trkpt>
<trkpt lat="46.14452893" lon="7.27866593"><ele>1752.199951</ele><time>2011-11-12T10:25:26Z</time></trkpt>
<trkpt lat="46.14457293" lon="7.27880297"><ele>1756.599976</ele><time>2011-11-12T10:25:30Z</time></trkpt>
<trkpt lat="46.14457394" lon="7.27880700"><ele>1756.599976</ele><time>2011-11-12T10:25:33Z</time></trkpt>
<trkpt lat="46.14444293" lon="7.27888092"><ele>1760.400024</ele><time>2011-11-12T10:25:38Z</time></trkpt>
<trkpt lat="46.14457394" lon="7.27880700"><ele>1756.599976</ele><time>2011-11-12T10:25:43Z</time></trkpt>
<trkpt lat="46.14446699" lon="7.27889299"><ele>1760.599976</ele><time>2011-11-12T10:25:44Z</time></trkpt>
<trkpt lat="46.14467192" lon="7.27892099"><ele>1759.599976</ele><time>2011-11-12T10:25:50Z</time></trkpt>
<trkpt lat="46.14454494" lon="7.27883692"><ele>1758</ele><time>2011-11-12T10:25:55Z</time></trkpt>
<trkpt lat="46.14457394" lon="7.27880700"><ele>1756.599976</ele><time>2011-11-12T10:26:09Z</time></trkpt>
<trkpt lat="46.14457394" lon="7.27880700"><ele>1756.599976</ele><time>2011-11-12T10:26:10Z</time></trkpt>
<trkpt lat="46.14448995" lon="7.27888092"><ele>1760</ele><time>2011-11-12T10:26:14Z</time></trkpt>
<trkpt lat="46.14448995" lon="7.27888092"><ele>1760</ele><time>2011-11-12T10:26:15Z</time></trkpt>
<trkpt lat="46.14476698" lon="7.27897899"><ele>1760.800049</ele><time>2011-11-12T10:27:24Z</time></trkpt>
<trkpt lat="46.14483193" lon="7.27897899"><ele>1760.199951</ele><time>2011-11-12T10:27:30Z</time></trkpt>
<trkpt lat="46.14492095" lon="7.27896994"><ele>1759</ele><time>2011-11-12T10:27:37Z</time></trkpt>
<trkpt lat="46.14505397" lon="7.27892200"><ele>1757.400024</ele><time>2011-11-12T10:27:45Z</time></trkpt>
<trkpt lat="46.14522496" lon="7.27891194"><ele>1759</ele><time>2011-11-12T10:27:53Z</time></trkpt>
<trkpt lat="46.14533099" lon="7.27893599"><ele>1761</ele><time>2011-11-12T10:28:00Z</time></trkpt>
<trkpt lat="46.14544599" lon="7.27890993"><ele>1761.400024</ele><time>2011-11-12T10:28:09Z</time></trkpt>
<trkpt lat="46.14553493" lon="7.27889299"><ele>1761.800049</ele><time>2011-11-12T10:28:15Z</time></trkpt>
<trkpt lat="46.14565495" lon="7.27894094"><ele>1765</ele><time>2011-11-12T10:28:24Z</time></trkpt>
<trkpt lat="46.14574095" lon="7.27899198"><ele>1768.199951</ele><time>2011-11-12T10:28:31Z</time></trkpt>
<trkpt lat="46.14577197" lon="7.27901093"><ele>1769.400024</ele><time>2011-11-12T10:28:38Z</time></trkpt>
<trkpt lat="46.14579896" lon="7.27902694"><ele>1770.400024</ele><time>2011-11-12T10:28:44Z</time></trkpt>
<trkpt lat="46.14589694" lon="7.27907597"><ele>1774</ele><time>2011-11-12T10:28:51Z</time></trkpt>
<trkpt lat="46.14599492" lon="7.27910900"><ele>1777.199951</ele><time>2011-11-12T10:28:57Z</time></trkpt>
<trkpt lat="46.14606894" lon="7.27912693"><ele>1779.199951</ele><time>2011-11-12T10:29:02Z</time></trkpt>
<trkpt lat="46.14612300" lon="7.27911897"><ele>1779.800049</ele><time>2011-11-12T10:29:05Z</time></trkpt>
<trkpt lat="46.14624999" lon="7.27909994"><ele>1781.199951</ele><time>2011-11-12T10:29:12Z</time></trkpt>
<trkpt lat="46.14636700" lon="7.27908192"><ele>1782.599976</ele><time>2011-11-12T10:29:19Z</time></trkpt>
<trkpt lat="46.14650496" lon="7.27905099"><ele>1783.800049</ele><time>2011-11-12T10:29:27Z</time></trkpt>
<trkpt lat="46.14662097" lon="7.27896298"><ele>1782.400024</ele><time>2011-11-12T10:29:35Z</time></trkpt>
<trkpt lat="46.14670898" lon="7.27880096"><ele>1778.400024</ele><time>2011-11-12T10:29:44Z</time></trkpt>
<trkpt lat="46.14681099" lon="7.27865595"><ele>1775.800049</ele><time>2011-11-12T10:29:53Z</time></trkpt>
<trkpt lat="46.14692498" lon="7.27855395"><ele>1774.800049</ele><time>2011-11-12T10:30:02Z</time></trkpt>
<trkpt lat="46.14702992" lon="7.27848496"><ele>1774.599976</ele><time>2011-11-12T10:30:10Z</time></trkpt>
<trkpt lat="46.14707393" lon="7.27846694"><ele>1775</ele><time>2011-11-12T10:30:14Z</time></trkpt>
<trkpt lat="46.14715196" lon="7.27843392"><ele>1775.599976</ele><time>2011-11-12T10:30:20Z</time></trkpt>
<trkpt lat="46.14726696" lon="7.27839695"><ele>1777</ele><time>2011-11-12T10:30:31Z</time></trkpt>
<trkpt lat="46.14734592" lon="7.27839000"><ele>1778.599976</ele><time>2011-11-12T10:30:41Z</time></trkpt>
<trkpt lat="46.14737593" lon="7.27838798"><ele>1779.199951</ele><time>2011-11-12T10:30:44Z</time></trkpt>
<trkpt lat="46.14749193" lon="7.27837793"><ele>1781.599976</ele><time>2011-11-12T10:30:54Z</time></trkpt>
<trkpt lat="46.14753493" lon="7.27838296"><ele>1783.199951</ele><time>2011-11-12T10:30:59Z</time></trkpt>
<trkpt lat="46.14794296" lon="7.27812094"><ele>1790.199951</ele><time>2011-11-12T10:31:03Z</time></trkpt>
<trkpt lat="46.14768597" lon="7.27844196"><ele>1790.800049</ele><time>2011-11-12T10:31:11Z</time></trkpt>
<trkpt lat="46.14744399" lon="7.27838195"><ele>1780.599976</ele><time>2011-11-12T10:31:19Z</time></trkpt>
<trkpt lat="46.14736193" lon="7.27838899"><ele>1779</ele><time>2011-11-12T10:31:27Z</time></trkpt>
<trkpt lat="46.14727098" lon="7.27839695"><ele>1777</ele><time>2011-11-12T10:31:36Z</time></trkpt>
<trkpt lat="46.14721600" lon="7.27869493"><ele>1788</ele><time>2011-11-12T10:31:45Z</time></trkpt>
<trkpt lat="46.14703394" lon="7.27848295"><ele>1774.599976</ele><time>2011-11-12T10:31:54Z</time></trkpt>
<trkpt lat="46.14694895" lon="7.27853299"><ele>1774.599976</ele><time>2011-11-12T10:32:01Z</time></trkpt>
<trkpt lat="46.14691400" lon="7.27856392"><ele>1774.800049</ele><time>2011-11-12T10:32:05Z</time></trkpt>
<trkpt lat="46.14700000" lon="7.27874598"><ele>1784.199951</ele><time>2011-11-12T10:32:09Z</time></trkpt>
<trkpt lat="46.14682297" lon="7.27826997"><ele>1761.400024</ele><time>2011-11-12T10:32:12Z</time></trkpt>
<trkpt lat="46.14712698" lon="7.27875696"><ele>1788.199951</ele><time>2011-11-12T10:32:21Z</time></trkpt>
<trkpt lat="46.14719999" lon="7.27870599"><ele>1788</ele><time>2011-11-12T10:32:28Z</time></trkpt>
<trkpt lat="46.14726596" lon="7.27865998"><ele>1787.800049</ele><time>2011-11-12T10:32:36Z</time></trkpt>
<trkpt lat="46.14736394" lon="7.27887196"><ele>1799.400024</ele><time>2011-11-12T10:32:43Z</time></trkpt>
<trkpt lat="46.14737794" lon="7.27886994"><ele>1799.599976</ele><time>2011-11-12T10:32:44Z</time></trkpt>
<trkpt lat="46.14748992" lon="7.27885997"><ele>1802.400024</ele><time>2011-11-12T10:32:53Z</time></trkpt>
<trkpt lat="46.14753694" lon="7.27885595"><ele>1803.599976</ele><time>2011-11-12T10:32:57Z</time></trkpt>
<trkpt lat="46.14760693" lon="7.27884497"><ele>1805.199951</ele><time>2011-11-12T10:33:03Z</time></trkpt>
<trkpt lat="46.14769394" lon="7.27878495"><ele>1805.199951</ele><time>2011-11-12T10:33:13Z</time></trkpt>
<trkpt lat="46.14778094" lon="7.27872393"><ele>1805.400024</ele><time>2011-11-12T10:33:22Z</time></trkpt>
<trkpt lat="46.14787398" lon="7.27865998"><ele>1805.800049</ele><time>2011-11-12T10:33:31Z</time></trkpt>
<trkpt lat="46.14792394" lon="7.27862997"><ele>1806.199951</ele><time>2011-11-12T10:33:36Z</time></trkpt>
<trkpt lat="46.14803399" lon="7.27856392"><ele>1807.199951</ele><time>2011-11-12T10:33:47Z</time></trkpt>
<trkpt lat="46.14811898" lon="7.27851296"><ele>1808</ele><time>2011-11-12T10:33:55Z</time></trkpt>
<trkpt lat="46.14820699" lon="7.27845596"><ele>1809</ele><time>2011-11-12T10:34:04Z</time></trkpt>
<trkpt lat="46.14827497" lon="7.27837097"><ele>1808.199951</ele><time>2011-11-12T10:34:12Z</time></trkpt>
<trkpt lat="46.14829693" lon="7.27832495"><ele>1807.400024</ele><time>2011-11-12T10:34:16Z</time></trkpt>
<trkpt lat="46.14832392" lon="7.27824893"><ele>1807</ele><time>2011-11-12T10:34:21Z</time></trkpt>
<trkpt lat="46.14837396" lon="7.27810895"><ele>1806.199951</ele><time>2011-11-12T10:34:30Z</time></trkpt>
<trkpt lat="46.14842299" lon="7.27797995"><ele>1805.599976</ele><time>2011-11-12T10:34:38Z</time></trkpt>
<trkpt lat="46.14848393" lon="7.27787895"><ele>1805.800049</ele><time>2011-11-12T10:34:45Z</time></trkpt>
<trkpt lat="46.14856699" lon="7.27774392"><ele>1806.400024</ele><time>2011-11-12T10:34:54Z</time></trkpt>
<trkpt lat="46.14865299" lon="7.27760294"><ele>1807</ele><time>2011-11-12T10:35:03Z</time></trkpt>
<trkpt lat="46.14873195" lon="7.27748995"><ele>1808.199951</ele><time>2011-11-12T10:35:11Z</time></trkpt>
<trkpt lat="46.14881895" lon="7.27736598"><ele>1809.599976</ele><time>2011-11-12T10:35:20Z</time></trkpt>
<trkpt lat="46.14891300" lon="7.27723195"><ele>1811.599976</ele><time>2011-11-12T10:35:30Z</time></trkpt>
<trkpt lat="46.14899196" lon="7.27712693"><ele>1813.400024</ele><time>2011-11-12T10:35:39Z</time></trkpt>
<trkpt lat="46.14905893" lon="7.27704696"><ele>1815.199951</ele><time>2011-11-12T10:35:47Z</time></trkpt>
<trkpt lat="46.14913294" lon="7.27695795"><ele>1817.400024</ele><time>2011-11-12T10:35:55Z</time></trkpt>
<trkpt lat="46.14920192" lon="7.27686197"><ele>1818.599976</ele><time>2011-11-12T10:36:03Z</time></trkpt>
<trkpt lat="46.14925892" lon="7.27677296"><ele>1819</ele><time>2011-11-12T10:36:10Z</time></trkpt>
<trkpt lat="46.14933897" lon="7.27664296"><ele>1819.800049</ele><time>2011-11-12T10:36:20Z</time></trkpt>
<trkpt lat="46.14942295" lon="7.27650792"><ele>1820.800049</ele><time>2011-11-12T10:36:30Z</time></trkpt>
<trkpt lat="46.14946294" lon="7.27645998"><ele>1821.400024</ele><time>2011-11-12T10:36:34Z</time></trkpt>
<trkpt lat="46.14953192" lon="7.27640399"><ele>1822.599976</ele><time>2011-11-12T10:36:42Z</time></trkpt>
<trkpt lat="46.14956394" lon="7.27640399"><ele>1823.400024</ele><time>2011-11-12T10:36:48Z</time></trkpt>
<trkpt lat="46.14956394" lon="7.27640399"><ele>1823.400024</ele><time>2011-11-12T10:39:02Z</time></trkpt>
<trkpt lat="46.14956394" lon="7.27640399"><ele>1823.400024</ele><time>2011-11-12T10:39:08Z</time></trkpt>
<trkpt lat="46.14956394" lon="7.27640399"><ele>1823.400024</ele><time>2011-11-12T10:39:52Z</time></trkpt>
<trkpt lat="46.14956394" lon="7.27640399"><ele>1823.400024</ele><time>2011-11-12T10:40:05Z</time></trkpt>
<trkpt lat="46.14960694" lon="7.27640399"><ele>1824.400024</ele><time>2011-11-12T10:45:33Z</time></trkpt>
<trkpt lat="46.14969595" lon="7.27644397"><ele>1826.599976</ele><time>2011-11-12T10:45:40Z</time></trkpt>
<trkpt lat="46.14974599" lon="7.27647892"><ele>1827.800049</ele><time>2011-11-12T10:45:44Z</time></trkpt>
<trkpt lat="46.14986292" lon="7.27657397"><ele>1831.199951</ele><time>2011-11-12T10:45:53Z</time></trkpt>
<trkpt lat="46.14992193" lon="7.27672493"><ele>1833.800049</ele><time>2011-11-12T10:46:00Z</time></trkpt>
<trkpt lat="46.14992897" lon="7.27693498"><ele>1836.199951</ele><time>2011-11-12T10:46:08Z</time></trkpt>
<trkpt lat="46.14989896" lon="7.27711393"><ele>1837.400024</ele><time>2011-11-12T10:46:15Z</time></trkpt>
<trkpt lat="46.14981900" lon="7.27732499"><ele>1837.800049</ele><time>2011-11-12T10:46:24Z</time></trkpt>
<trkpt lat="46.14979696" lon="7.27744292"><ele>1838.400024</ele><time>2011-11-12T10:46:30Z</time></trkpt>
<trkpt lat="46.14977592" lon="7.27760595"><ele>1840.199951</ele><time>2011-11-12T10:46:40Z</time></trkpt>
<trkpt lat="46.14976192" lon="7.27771693"><ele>1841.400024</ele><time>2011-11-12T10:46:47Z</time></trkpt>
<trkpt lat="46.14974499" lon="7.27784199"><ele>1842.800049</ele><time>2011-11-12T10:46:54Z</time></trkpt>
<trkpt lat="46.14969595" lon="7.27800292"><ele>1844</ele><time>2011-11-12T10:47:03Z</time></trkpt>
<trkpt lat="46.14964994" lon="7.27815296"><ele>1845</ele><time>2011-11-12T10:47:12Z</time></trkpt>
<trkpt lat="46.14960493" lon="7.27829897"><ele>1846</ele><time>2011-11-12T10:47:22Z</time></trkpt>
<trkpt lat="46.14958297" lon="7.27837097"><ele>1846.599976</ele><time>2011-11-12T10:47:27Z</time></trkpt>
<trkpt lat="46.14954298" lon="7.27849997"><ele>1848</ele><time>2011-11-12T10:47:36Z</time></trkpt>
<trkpt lat="46.14953494" lon="7.27852696"><ele>1848.199951</ele><time>2011-11-12T10:47:38Z</time></trkpt>
<trkpt lat="46.14952597" lon="7.27855495"><ele>1848.599976</ele><time>2011-11-12T10:47:40Z</time></trkpt>
<trkpt lat="46.14950895" lon="7.27861094"><ele>1849.199951</ele><time>2011-11-12T10:47:44Z</time></trkpt>
<trkpt lat="46.14948800" lon="7.27867892"><ele>1849.800049</ele><time>2011-11-12T10:47:50Z</time></trkpt>
<trkpt lat="46.14948800" lon="7.27867892"><ele>1849.800049</ele><time>2011-11-12T10:47:56Z</time></trkpt>
<trkpt lat="46.14948800" lon="7.27867892"><ele>1849.800049</ele><time>2011-11-12T10:48:02Z</time></trkpt>
<trkpt lat="46.14955396" lon="7.27866199"><ele>1851.199951</ele><time>2011-11-12T10:48:09Z</time></trkpt>
<trkpt lat="46.14963896" lon="7.27864095"><ele>1853</ele><time>2011-11-12T10:48:16Z</time></trkpt>
<trkpt lat="46.14965798" lon="7.27863592"><ele>1853.400024</ele><time>2011-11-12T10:48:18Z</time></trkpt>
<trkpt lat="46.14967299" lon="7.27862997"><ele>1853.800049</ele><time>2011-11-12T10:48:22Z</time></trkpt>
<trkpt lat="46.14968698" lon="7.27862393"><ele>1854</ele><time>2011-11-12T10:48:25Z</time></trkpt>
<trkpt lat="46.14975496" lon="7.27859493"><ele>1855.199951</ele><time>2011-11-12T10:48:32Z</time></trkpt>
<trkpt lat="46.14983895" lon="7.27855696"><ele>1856.800049</ele><time>2011-11-12T10:48:41Z</time></trkpt>
<trkpt lat="46.14991095" lon="7.27852092"><ele>1858</ele><time>2011-11-12T10:48:49Z</time></trkpt>
<trkpt lat="46.14997096" lon="7.27849100"><ele>1859</ele><time>2011-11-12T10:48:56Z</time></trkpt>
<trkpt lat="46.15002293" lon="7.27846493"><ele>1859.800049</ele><time>2011-11-12T10:49:02Z</time></trkpt>
<trkpt lat="46.15009292" lon="7.27841799"><ele>1860.599976</ele><time>2011-11-12T10:49:11Z</time></trkpt>
<trkpt lat="46.15014900" lon="7.27838094"><ele>1861.199951</ele><time>2011-11-12T10:49:17Z</time></trkpt>
<trkpt lat="46.15021898" lon="7.27833392"><ele>1862</ele><time>2011-11-12T10:49:26Z</time></trkpt>
<trkpt lat="46.15029098" lon="7.27828598"><ele>1862.800049</ele><time>2011-11-12T10:49:36Z</time></trkpt>
<trkpt lat="46.15033298" lon="7.27825798"><ele>1863.400024</ele><time>2011-11-12T10:49:41Z</time></trkpt>
<trkpt lat="46.15037296" lon="7.27823895"><ele>1864</ele><time>2011-11-12T10:49:46Z</time></trkpt>
<trkpt lat="46.15040598" lon="7.27822596"><ele>1864.599976</ele><time>2011-11-12T10:49:50Z</time></trkpt>
<trkpt lat="46.15048192" lon="7.27820098"><ele>1866</ele><time>2011-11-12T10:49:57Z</time></trkpt>
<trkpt lat="46.15057698" lon="7.27818196"><ele>1867.800049</ele><time>2011-11-12T10:50:07Z</time></trkpt>
<trkpt lat="46.15065694" lon="7.27816595"><ele>1869.400024</ele><time>2011-11-12T10:50:16Z</time></trkpt>
<trkpt lat="46.15068795" lon="7.27816092"><ele>1870</ele><time>2011-11-12T10:50:20Z</time></trkpt>
<trkpt lat="46.15072198" lon="7.27815698"><ele>1870.800049</ele><time>2011-11-12T10:50:25Z</time></trkpt>
<trkpt lat="46.15071595" lon="7.27815798"><ele>1870.599976</ele><time>2011-11-12T10:51:27Z</time></trkpt>
<trkpt lat="46.15078996" lon="7.27814793"><ele>1872.199951</ele><time>2011-11-12T10:51:34Z</time></trkpt>
<trkpt lat="46.15088895" lon="7.27812194"><ele>1875</ele><time>2011-11-12T10:51:44Z</time></trkpt>
<trkpt lat="46.15097595" lon="7.27806997"><ele>1877.400024</ele><time>2011-11-12T10:51:53Z</time></trkpt>
<trkpt lat="46.15103697" lon="7.27800795"><ele>1878.599976</ele><time>2011-11-12T10:52:00Z</time></trkpt>
<trkpt lat="46.15107897" lon="7.27794995"><ele>1879.400024</ele><time>2011-11-12T10:52:05Z</time></trkpt>
<trkpt lat="46.15116295" lon="7.27783092"><ele>1880.599976</ele><time>2011-11-12T10:52:15Z</time></trkpt>
<trkpt lat="46.15124392" lon="7.27771894"><ele>1882</ele><time>2011-11-12T10:52:24Z</time></trkpt>
<trkpt lat="46.15133394" lon="7.27759195"><ele>1883.400024</ele><time>2011-11-12T10:52:34Z</time></trkpt>
<trkpt lat="46.15141693" lon="7.27744494"><ele>1884</ele><time>2011-11-12T10:52:45Z</time></trkpt>
<trkpt lat="46.15147795" lon="7.27734896"><ele>1884.800049</ele><time>2011-11-12T10:52:53Z</time></trkpt>
<trkpt lat="46.15155900" lon="7.27722793"><ele>1885.599976</ele><time>2011-11-12T10:53:03Z</time></trkpt>
<trkpt lat="46.15160292" lon="7.27716297"><ele>1886</ele><time>2011-11-12T10:53:09Z</time></trkpt>
<trkpt lat="46.15166293" lon="7.27707596"><ele>1886.599976</ele><time>2011-11-12T10:53:17Z</time></trkpt>
<trkpt lat="46.15172898" lon="7.27701092"><ele>1887.599976</ele><time>2011-11-12T10:53:24Z</time></trkpt>
<trkpt lat="46.15181699" lon="7.27699994"><ele>1890.199951</ele><time>2011-11-12T10:53:30Z</time></trkpt>
<trkpt lat="46.15189897" lon="7.27707697"><ele>1894</ele><time>2011-11-12T10:53:37Z</time></trkpt>
<trkpt lat="46.15199293" lon="7.27717093"><ele>1898</ele><time>2011-11-12T10:53:45Z</time></trkpt>
<trkpt lat="46.15211799" lon="7.27721896"><ele>1902.199951</ele><time>2011-11-12T10:53:53Z</time></trkpt>
<trkpt lat="46.15219795" lon="7.27713699"><ele>1903.599976</ele><time>2011-11-12T10:54:00Z</time></trkpt>
<trkpt lat="46.15224799" lon="7.27705694"><ele>1904.400024</ele><time>2011-11-12T10:54:07Z</time></trkpt>
<trkpt lat="46.15232393" lon="7.27692593"><ele>1905.800049</ele><time>2011-11-12T10:54:17Z</time></trkpt>
<trkpt lat="46.15233198" lon="7.27689500"><ele>1905.800049</ele><time>2011-11-12T10:54:19Z</time></trkpt>
<trkpt lat="46.15235897" lon="7.27678696"><ele>1905.800049</ele><time>2011-11-12T10:54:26Z</time></trkpt>
<trkpt lat="46.15237598" lon="7.27670398"><ele>1905.800049</ele><time>2011-11-12T10:54:32Z</time></trkpt>
<trkpt lat="46.15240599" lon="7.27655696"><ele>1905.800049</ele><time>2011-11-12T10:54:42Z</time></trkpt>
<trkpt lat="46.15243097" lon="7.27642997"><ele>1905.800049</ele><time>2011-11-12T10:54:50Z</time></trkpt>
<trkpt lat="46.15246399" lon="7.27626694"><ele>1905.800049</ele><time>2011-11-12T10:55:00Z</time></trkpt>
<trkpt lat="46.15249693" lon="7.27610995"><ele>1905.800049</ele><time>2011-11-12T10:55:10Z</time></trkpt>
<trkpt lat="46.15253893" lon="7.27596897"><ele>1906.400024</ele><time>2011-11-12T10:55:19Z</time></trkpt>
<trkpt lat="46.15258796" lon="7.27580493"><ele>1907</ele><time>2011-11-12T10:55:29Z</time></trkpt>
<trkpt lat="46.15266197" lon="7.27557192"><ele>1908.599976</ele><time>2011-11-12T10:55:42Z</time></trkpt>
<trkpt lat="46.15273297" lon="7.27535793"><ele>1910.199951</ele><time>2011-11-12T10:55:54Z</time></trkpt>
<trkpt lat="46.15280296" lon="7.27518199"><ele>1911.800049</ele><time>2011-11-12T10:56:04Z</time></trkpt>
<trkpt lat="46.15287496" lon="7.27500798"><ele>1913.400024</ele><time>2011-11-12T10:56:14Z</time></trkpt>
<trkpt lat="46.15290396" lon="7.27493799"><ele>1913.800049</ele><time>2011-11-12T10:56:20Z</time></trkpt>
<trkpt lat="46.15295098" lon="7.27482593"><ele>1914.599976</ele><time>2011-11-12T10:56:29Z</time></trkpt>
<trkpt lat="46.15300295" lon="7.27473398"><ele>1915.599976</ele><time>2011-11-12T10:56:37Z</time></trkpt>
<trkpt lat="46.15305592" lon="7.27464999"><ele>1916.599976</ele><time>2011-11-12T10:56:46Z</time></trkpt>
<trkpt lat="46.15310295" lon="7.27457598"><ele>1917.599976</ele><time>2011-11-12T10:56:53Z</time></trkpt>
<trkpt lat="46.15313597" lon="7.27453692"><ele>1918.400024</ele><time>2011-11-12T10:56:57Z</time></trkpt>
<trkpt lat="46.15322792" lon="7.27444899"><ele>1920.800049</ele><time>2011-11-12T10:57:08Z</time></trkpt>
<trkpt lat="46.15329296" lon="7.27439099"><ele>1922.599976</ele><time>2011-11-12T10:57:16Z</time></trkpt>
<trkpt lat="46.15336295" lon="7.27432695"><ele>1924.400024</ele><time>2011-11-12T10:57:24Z</time></trkpt>
<trkpt lat="46.15337896" lon="7.27431195"><ele>1924.599976</ele><time>2011-11-12T10:57:26Z</time></trkpt>
<trkpt lat="46.15345993" lon="7.27421195"><ele>1926</ele><time>2011-11-12T10:57:37Z</time></trkpt>
<trkpt lat="46.15351693" lon="7.27412595"><ele>1926.400024</ele><time>2011-11-12T10:57:45Z</time></trkpt>
<trkpt lat="46.15355599" lon="7.27406695"><ele>1926.599976</ele><time>2011-11-12T10:57:50Z</time></trkpt>
<trkpt lat="46.15359094" lon="7.27401498"><ele>1926.599976</ele><time>2011-11-12T10:57:54Z</time></trkpt>
<trkpt lat="46.15363000" lon="7.27395697"><ele>1926.599976</ele><time>2011-11-12T10:57:59Z</time></trkpt>
<trkpt lat="46.15368498" lon="7.27387399"><ele>1926.599976</ele><time>2011-11-12T10:58:05Z</time></trkpt>
<trkpt lat="46.15378398" lon="7.27378498"><ele>1927.400024</ele><time>2011-11-12T10:58:13Z</time></trkpt>
<trkpt lat="46.15390099" lon="7.27377299"><ele>1930.199951</ele><time>2011-11-12T10:58:22Z</time></trkpt>
<trkpt lat="46.15398095" lon="7.27380593"><ele>1933</ele><time>2011-11-12T10:58:29Z</time></trkpt>
<trkpt lat="46.15399092" lon="7.27381197"><ele>1933.199951</ele><time>2011-11-12T10:58:30Z</time></trkpt>
<trkpt lat="46.15402998" lon="7.27383896"><ele>1934.800049</ele><time>2011-11-12T10:58:35Z</time></trkpt>
<trkpt lat="46.15402998" lon="7.27383896"><ele>1934.800049</ele><time>2011-11-12T11:03:36Z</time></trkpt>
<trkpt lat="46.15402998" lon="7.27383896"><ele>1934.800049</ele><time>2011-11-12T11:03:38Z</time></trkpt>
<trkpt lat="46.15406192" lon="7.27386000"><ele>1936.199951</ele><time>2011-11-12T11:03:42Z</time></trkpt>
<trkpt lat="46.15406192" lon="7.27386000"><ele>1936.199951</ele><time>2011-11-12T11:04:34Z</time></trkpt>
<trkpt lat="46.15406192" lon="7.27386000"><ele>1936.199951</ele><time>2011-11-12T11:04:35Z</time></trkpt>
<trkpt lat="46.15413099" lon="7.27390593"><ele>1939</ele><time>2011-11-12T11:04:48Z</time></trkpt>
<trkpt lat="46.15415999" lon="7.27392697"><ele>1940.199951</ele><time>2011-11-12T11:04:51Z</time></trkpt>
<trkpt lat="46.15423794" lon="7.27399000"><ele>1942.199951</ele><time>2011-11-12T11:05:00Z</time></trkpt>
<trkpt lat="46.15430692" lon="7.27404498"><ele>1943.800049</ele><time>2011-11-12T11:05:06Z</time></trkpt>
<trkpt lat="46.15431698" lon="7.27405295"><ele>1944.199951</ele><time>2011-11-12T11:05:07Z</time></trkpt>
<trkpt lat="46.15432193" lon="7.27420893"><ele>1948</ele><time>2011-11-12T11:05:14Z</time></trkpt>
<trkpt lat="46.15427197" lon="7.27421195"><ele>1947.599976</ele><time>2011-11-12T11:05:20Z</time></trkpt>
<trkpt lat="46.15424599" lon="7.27420994"><ele>1947.199951</ele><time>2011-11-12T11:05:22Z</time></trkpt>
<trkpt lat="46.15420994" lon="7.27420692"><ele>1946.800049</ele><time>2011-11-12T11:05:26Z</time></trkpt>
<trkpt lat="46.15414297" lon="7.27420097"><ele>1945.599976</ele><time>2011-11-12T11:05:32Z</time></trkpt>
<trkpt lat="46.15409092" lon="7.27419695"><ele>1944.199951</ele><time>2011-11-12T11:05:38Z</time></trkpt>
<trkpt lat="46.15400392" lon="7.27422997"><ele>1942</ele><time>2011-11-12T11:05:45Z</time></trkpt>
<trkpt lat="46.15394399" lon="7.27432000"><ele>1941.400024</ele><time>2011-11-12T11:05:51Z</time></trkpt>
<trkpt lat="46.15391599" lon="7.27443793"><ele>1942</ele><time>2011-11-12T11:05:59Z</time></trkpt>
<trkpt lat="46.15390794" lon="7.27453994"><ele>1943</ele><time>2011-11-12T11:06:05Z</time></trkpt>
<trkpt lat="46.15390794" lon="7.27470397"><ele>1945</ele><time>2011-11-12T11:06:15Z</time></trkpt>
<trkpt lat="46.15390099" lon="7.27480598"><ele>1946</ele><time>2011-11-12T11:06:21Z</time></trkpt>
<trkpt lat="46.15388892" lon="7.27497797"><ele>1947.599976</ele><time>2011-11-12T11:06:31Z</time></trkpt>
<trkpt lat="46.15389495" lon="7.27510295"><ele>1949.400024</ele><time>2011-11-12T11:06:39Z</time></trkpt>
<trkpt lat="46.15389495" lon="7.27511695"><ele>1949.599976</ele><time>2011-11-12T11:06:40Z</time></trkpt>
<trkpt lat="46.15389998" lon="7.27520596"><ele>1950.800049</ele><time>2011-11-12T11:06:46Z</time></trkpt>
<trkpt lat="46.15390694" lon="7.27534695"><ele>1952.800049</ele><time>2011-11-12T11:06:56Z</time></trkpt>
<trkpt lat="46.15391197" lon="7.27545097"><ele>1954.400024</ele><time>2011-11-12T11:07:03Z</time></trkpt>
<trkpt lat="46.15391700" lon="7.27554996"><ele>1955.800049</ele><time>2011-11-12T11:07:10Z</time></trkpt>
<trkpt lat="46.15392295" lon="7.27566998"><ele>1957.599976</ele><time>2011-11-12T11:07:18Z</time></trkpt>
<trkpt lat="46.15392999" lon="7.27579898"><ele>1959.599976</ele><time>2011-11-12T11:07:27Z</time></trkpt>
<trkpt lat="46.15392999" lon="7.27585900"><ele>1960.199951</ele><time>2011-11-12T11:07:31Z</time></trkpt>
<trkpt lat="46.15392999" lon="7.27598296"><ele>1961.599976</ele><time>2011-11-12T11:07:40Z</time></trkpt>
<trkpt lat="46.15392999" lon="7.27612495"><ele>1963</ele><time>2011-11-12T11:07:50Z</time></trkpt>
<trkpt lat="46.15392999" lon="7.27628597"><ele>1964.599976</ele><time>2011-11-12T11:08:00Z</time></trkpt>
<trkpt lat="46.15392999" lon="7.27630097"><ele>1964.800049</ele><time>2011-11-12T11:08:01Z</time></trkpt>
<trkpt lat="46.15392999" lon="7.27634297"><ele>1965.199951</ele><time>2011-11-12T11:08:05Z</time></trkpt>
<trkpt lat="46.15392898" lon="7.27637398"><ele>1965.599976</ele><time>2011-11-12T11:08:08Z</time></trkpt>
<trkpt lat="46.15392194" lon="7.27645696"><ele>1966.199951</ele><time>2011-11-12T11:08:14Z</time></trkpt>
<trkpt lat="46.15391599" lon="7.27654698"><ele>1966.800049</ele><time>2011-11-12T11:08:20Z</time></trkpt>
<trkpt lat="46.15390895" lon="7.27663499"><ele>1967.400024</ele><time>2011-11-12T11:08:26Z</time></trkpt>
<trkpt lat="46.15390694" lon="7.27665000"><ele>1967.599976</ele><time>2011-11-12T11:08:27Z</time></trkpt>
<trkpt lat="46.15388799" lon="7.27680498"><ele>1968.400024</ele><time>2011-11-12T11:08:37Z</time></trkpt>
<trkpt lat="46.15387492" lon="7.27690598"><ele>1969</ele><time>2011-11-12T11:08:44Z</time></trkpt>
<trkpt lat="46.15385799" lon="7.27704193"><ele>1970</ele><time>2011-11-12T11:08:54Z</time></trkpt>
<trkpt lat="46.15384198" lon="7.27717294"><ele>1970.800049</ele><time>2011-11-12T11:09:03Z</time></trkpt>
<trkpt lat="46.15382999" lon="7.27726992"><ele>1971.400024</ele><time>2011-11-12T11:09:10Z</time></trkpt>
<trkpt lat="46.15382195" lon="7.27740495"><ele>1972.599976</ele><time>2011-11-12T11:09:19Z</time></trkpt>
<trkpt lat="46.15382195" lon="7.27752096"><ele>1973.599976</ele><time>2011-11-12T11:09:27Z</time></trkpt>
<trkpt lat="46.15382697" lon="7.27768298"><ele>1973.800049</ele><time>2011-11-12T11:09:38Z</time></trkpt>
<trkpt lat="46.15385598" lon="7.27776999"><ele>1975</ele><time>2011-11-12T11:09:46Z</time></trkpt>
<trkpt lat="46.15388498" lon="7.27785598"><ele>1976.199951</ele><time>2011-11-12T11:09:54Z</time></trkpt>
<trkpt lat="46.15394097" lon="7.27796294"><ele>1978.400024</ele><time>2011-11-12T11:13:02Z</time></trkpt>
<trkpt lat="46.15401196" lon="7.27809194"><ele>1981.199951</ele><time>2011-11-12T11:13:10Z</time></trkpt>
<trkpt lat="46.15408899" lon="7.27820995"><ele>1984</ele><time>2011-11-12T11:13:18Z</time></trkpt>
<trkpt lat="46.15414197" lon="7.27832193"><ele>1986</ele><time>2011-11-12T11:13:26Z</time></trkpt>
<trkpt lat="46.15415194" lon="7.27834499"><ele>1986.400024</ele><time>2011-11-12T11:13:29Z</time></trkpt>
<trkpt lat="46.15417600" lon="7.27843693"><ele>1988.800049</ele><time>2011-11-12T11:13:36Z</time></trkpt>
<trkpt lat="46.15419494" lon="7.27853794"><ele>1991</ele><time>2011-11-12T11:13:44Z</time></trkpt>
<trkpt lat="46.15420500" lon="7.27859393"><ele>1992.199951</ele><time>2011-11-12T11:13:48Z</time></trkpt>
<trkpt lat="46.15423492" lon="7.27874497"><ele>1995.400024</ele><time>2011-11-12T11:13:58Z</time></trkpt>
<trkpt lat="46.15424892" lon="7.27881395"><ele>1997</ele><time>2011-11-12T11:14:03Z</time></trkpt>
<trkpt lat="46.15428496" lon="7.27883792"><ele>1999</ele><time>2011-11-12T11:14:07Z</time></trkpt>
<trkpt lat="46.15432193" lon="7.27873198"><ele>1999.400024</ele><time>2011-11-12T11:14:15Z</time></trkpt>
<trkpt lat="46.15432695" lon="7.27870993"><ele>1999.400024</ele><time>2011-11-12T11:14:17Z</time></trkpt>
<trkpt lat="46.15433693" lon="7.27863592"><ele>1999</ele><time>2011-11-12T11:14:21Z</time></trkpt>
<trkpt lat="46.15418899" lon="7.27850592"><ele>1990.199951</ele><time>2011-11-12T11:14:30Z</time></trkpt>
<trkpt lat="46.15416493" lon="7.27837600"><ele>1987.400024</ele><time>2011-11-12T11:14:38Z</time></trkpt>
<trkpt lat="46.15428194" lon="7.27816595"><ele>1992.800049</ele><time>2011-11-12T11:14:45Z</time></trkpt>
<trkpt lat="46.15425093" lon="7.27801197"><ele>1991.599976</ele><time>2011-11-12T11:14:54Z</time></trkpt>
<trkpt lat="46.15422294" lon="7.27785699"><ele>1990.400024</ele><time>2011-11-12T11:15:03Z</time></trkpt>
<trkpt lat="46.15420894" lon="7.27774492"><ele>1990</ele><time>2011-11-12T11:15:10Z</time></trkpt>
<trkpt lat="46.15421296" lon="7.27759497"><ele>1990.599976</ele><time>2011-11-12T11:15:20Z</time></trkpt>
<trkpt lat="46.15425898" lon="7.27748400"><ele>1992.199951</ele><time>2011-11-12T11:15:29Z</time></trkpt>
<trkpt lat="46.15431095" lon="7.27737998"><ele>1993</ele><time>2011-11-12T11:15:37Z</time></trkpt>
<trkpt lat="46.15435897" lon="7.27728392"><ele>1993.599976</ele><time>2011-11-12T11:15:44Z</time></trkpt>
<trkpt lat="46.15443399" lon="7.27714193"><ele>1994.599976</ele><time>2011-11-12T11:15:53Z</time></trkpt>
<trkpt lat="46.15450893" lon="7.27704696"><ele>1996.199951</ele><time>2011-11-12T11:16:01Z</time></trkpt>
<trkpt lat="46.15457498" lon="7.27696197"><ele>1997.400024</ele><time>2011-11-12T11:16:08Z</time></trkpt>
<trkpt lat="46.15464396" lon="7.27687296"><ele>1998.800049</ele><time>2011-11-12T11:16:15Z</time></trkpt>
<trkpt lat="46.15472493" lon="7.27678897"><ele>2000.599976</ele><time>2011-11-12T11:16:22Z</time></trkpt>
<trkpt lat="46.15482794" lon="7.27668093"><ele>2003</ele><time>2011-11-12T11:16:31Z</time></trkpt>
<trkpt lat="46.15490397" lon="7.27653894"><ele>2003.199951</ele><time>2011-11-12T11:16:40Z</time></trkpt>
<trkpt lat="46.15494395" lon="7.27643492"><ele>2002.599976</ele><time>2011-11-12T11:16:47Z</time></trkpt>
<trkpt lat="46.15498493" lon="7.27635697"><ele>2002.400024</ele><time>2011-11-12T11:16:53Z</time></trkpt>
<trkpt lat="46.15510697" lon="7.27629695"><ele>2002.800049</ele><time>2011-11-12T11:17:02Z</time></trkpt>
<trkpt lat="46.15520094" lon="7.27633199"><ele>2004.599976</ele><time>2011-11-12T11:17:10Z</time></trkpt>
<trkpt lat="46.15530294" lon="7.27641296"><ele>2007.599976</ele><time>2011-11-12T11:17:19Z</time></trkpt>
<trkpt lat="46.15536698" lon="7.27650398"><ele>2010.400024</ele><time>2011-11-12T11:17:27Z</time></trkpt>
<trkpt lat="46.15541794" lon="7.27657800"><ele>2012.800049</ele><time>2011-11-12T11:17:34Z</time></trkpt>
<trkpt lat="46.15543395" lon="7.27678997"><ele>2017.599976</ele><time>2011-11-12T11:17:40Z</time></trkpt>
<trkpt lat="46.15547192" lon="7.27661697"><ele>2014.400024</ele><time>2011-11-12T11:17:42Z</time></trkpt>
<trkpt lat="46.15554996" lon="7.27669300"><ele>2017.400024</ele><time>2011-11-12T11:17:46Z</time></trkpt>
<trkpt lat="46.15549598" lon="7.27680699"><ele>2018.800049</ele><time>2011-11-12T11:17:50Z</time></trkpt>
<trkpt lat="46.15548198" lon="7.27678997"><ele>2018.400024</ele><time>2011-11-12T11:17:55Z</time></trkpt>
<trkpt lat="46.15535692" lon="7.27678997"><ele>2016.400024</ele><time>2011-11-12T11:18:06Z</time></trkpt>
<trkpt lat="46.15527998" lon="7.27678997"><ele>2015.199951</ele><time>2011-11-12T11:18:13Z</time></trkpt>
<trkpt lat="46.15526900" lon="7.27678997"><ele>2015</ele><time>2011-11-12T11:18:14Z</time></trkpt>
<trkpt lat="46.15517294" lon="7.27684194"><ele>2014.199951</ele><time>2011-11-12T11:18:23Z</time></trkpt>
<trkpt lat="46.15516892" lon="7.27687296"><ele>2014.800049</ele><time>2011-11-12T11:18:29Z</time></trkpt>
<trkpt lat="46.15514595" lon="7.27704193"><ele>2017</ele><time>2011-11-12T11:21:19Z</time></trkpt>
<trkpt lat="46.15512994" lon="7.27716397"><ele>2018.599976</ele><time>2011-11-12T11:21:26Z</time></trkpt>
<trkpt lat="46.15511695" lon="7.27726397"><ele>2020</ele><time>2011-11-12T11:21:32Z</time></trkpt>
<trkpt lat="46.15509599" lon="7.27741996"><ele>2022</ele><time>2011-11-12T11:21:40Z</time></trkpt>
<trkpt lat="46.15508795" lon="7.27758994"><ele>2024</ele><time>2011-11-12T11:21:49Z</time></trkpt>
<trkpt lat="46.15509097" lon="7.27771198"><ele>2025.400024</ele><time>2011-11-12T11:21:57Z</time></trkpt>
<trkpt lat="46.15510697" lon="7.27781793"><ele>2027</ele><time>2011-11-12T11:22:04Z</time></trkpt>
<trkpt lat="46.15511100" lon="7.27784794"><ele>2027.599976</ele><time>2011-11-12T11:22:06Z</time></trkpt>
<trkpt lat="46.15512894" lon="7.27797794"><ele>2029.599976</ele><time>2011-11-12T11:22:15Z</time></trkpt>
<trkpt lat="46.15512692" lon="7.27813192"><ele>2031.199951</ele><time>2011-11-12T11:22:23Z</time></trkpt>
<trkpt lat="46.15512298" lon="7.27829000"><ele>2033</ele><time>2011-11-12T11:22:31Z</time></trkpt>
<trkpt lat="46.15511796" lon="7.27844993"><ele>2034</ele><time>2011-11-12T11:22:39Z</time></trkpt>
<trkpt lat="46.15511494" lon="7.27857892"><ele>2034.599976</ele><time>2011-11-12T11:22:45Z</time></trkpt>
<trkpt lat="46.15510899" lon="7.27876198"><ele>2035.599976</ele><time>2011-11-12T11:22:53Z</time></trkpt>
<trkpt lat="46.15509692" lon="7.27898394"><ele>2036.400024</ele><time>2011-11-12T11:23:02Z</time></trkpt>
<trkpt lat="46.15508895" lon="7.27913397"><ele>2036.800049</ele><time>2011-11-12T11:23:09Z</time></trkpt>
<trkpt lat="46.15508795" lon="7.27927898"><ele>2039.599976</ele><time>2011-11-12T11:23:16Z</time></trkpt>
<trkpt lat="46.15509398" lon="7.27934595"><ele>2041.400024</ele><time>2011-11-12T11:23:21Z</time></trkpt>
<trkpt lat="46.15510195" lon="7.27937596"><ele>2042.400024</ele><time>2011-11-12T11:23:23Z</time></trkpt>
<trkpt lat="46.15515299" lon="7.27930698"><ele>2043.199951</ele><time>2011-11-12T11:23:31Z</time></trkpt>
<trkpt lat="46.15515299" lon="7.27924897"><ele>2042</ele><time>2011-11-12T11:23:34Z</time></trkpt>
<trkpt lat="46.15517696" lon="7.27912794"><ele>2041</ele><time>2011-11-12T11:23:42Z</time></trkpt>
<trkpt lat="46.15519700" lon="7.27903892"><ele>2041.199951</ele><time>2011-11-12T11:23:48Z</time></trkpt>
<trkpt lat="46.15521896" lon="7.27897195"><ele>2041.800049</ele><time>2011-11-12T11:23:53Z</time></trkpt>
<trkpt lat="46.15525198" lon="7.27888897"><ele>2042.599976</ele><time>2011-11-12T11:24:00Z</time></trkpt>
<trkpt lat="46.15526296" lon="7.27886592"><ele>2042.800049</ele><time>2011-11-12T11:24:02Z</time></trkpt>
<trkpt lat="46.15529599" lon="7.27879995"><ele>2043.800049</ele><time>2011-11-12T11:24:08Z</time></trkpt>
<trkpt lat="46.15534695" lon="7.27869795"><ele>2045</ele><time>2011-11-12T11:24:17Z</time></trkpt>
<trkpt lat="46.15537000" lon="7.27865092"><ele>2045.599976</ele><time>2011-11-12T11:24:23Z</time></trkpt>
<trkpt lat="46.15540596" lon="7.27858094"><ele>2046.400024</ele><time>2011-11-12T11:24:27Z</time></trkpt>
<trkpt lat="46.15548793" lon="7.27843794"><ele>2048.199951</ele><time>2011-11-12T11:24:38Z</time></trkpt>
<trkpt lat="46.15555993" lon="7.27833794"><ele>2049.800049</ele><time>2011-11-12T11:24:48Z</time></trkpt>
<trkpt lat="46.15556798" lon="7.27832797"><ele>2050</ele><time>2011-11-12T11:24:49Z</time></trkpt>
<trkpt lat="46.15565398" lon="7.27823493"><ele>2051.199951</ele><time>2011-11-12T11:24:59Z</time></trkpt>
<trkpt lat="46.15574894" lon="7.27817198"><ele>2053.199951</ele><time>2011-11-12T11:25:08Z</time></trkpt>
<trkpt lat="46.15577099" lon="7.27816000"><ele>2053.800049</ele><time>2011-11-12T11:25:10Z</time></trkpt>
<trkpt lat="46.15586998" lon="7.27810895"><ele>2056</ele><time>2011-11-12T11:25:18Z</time></trkpt>
<trkpt lat="46.15594299" lon="7.27808297"><ele>2057.600098</ele><time>2011-11-12T11:25:25Z</time></trkpt>
<trkpt lat="46.15599898" lon="7.27806293"><ele>2058.800049</ele><time>2011-11-12T11:25:30Z</time></trkpt>
<trkpt lat="46.15608296" lon="7.27802999"><ele>2060.600098</ele><time>2011-11-12T11:25:37Z</time></trkpt>
<trkpt lat="46.15611599" lon="7.27800996"><ele>2061</ele><time>2011-11-12T11:25:40Z</time></trkpt>
<trkpt lat="46.15614398" lon="7.27799194"><ele>2061.399902</ele><time>2011-11-12T11:25:43Z</time></trkpt>
<trkpt lat="46.15615195" lon="7.27806796"><ele>2063.600098</ele><time>2011-11-12T11:25:49Z</time></trkpt>
<trkpt lat="46.15615899" lon="7.27807199"><ele>2063.800049</ele><time>2011-11-12T11:29:50Z</time></trkpt>
<trkpt lat="46.15614893" lon="7.27806696"><ele>2063.399902</ele><time>2011-11-12T11:30:00Z</time></trkpt>
<trkpt lat="46.15618497" lon="7.27808297"><ele>2065</ele><time>2011-11-12T11:30:04Z</time></trkpt>
<trkpt lat="46.15631296" lon="7.27812094"><ele>2069.800049</ele><time>2011-11-12T11:30:11Z</time></trkpt>
<trkpt lat="46.15646099" lon="7.27812094"><ele>2074.399902</ele><time>2011-11-12T11:30:19Z</time></trkpt>
<trkpt lat="46.15662192" lon="7.27807794"><ele>2078.199951</ele><time>2011-11-12T11:30:26Z</time></trkpt>
<trkpt lat="46.15666995" lon="7.27766999"><ele>2067.800049</ele><time>2011-11-12T11:30:33Z</time></trkpt>
<trkpt lat="46.15677992" lon="7.27759195"><ele>2068</ele><time>2011-11-12T11:30:41Z</time></trkpt>
<trkpt lat="46.15689693" lon="7.27748693"><ele>2067</ele><time>2011-11-12T11:30:49Z</time></trkpt>
<trkpt lat="46.15703800" lon="7.27739800"><ele>2066.600098</ele><time>2011-11-12T11:30:58Z</time></trkpt>
<trkpt lat="46.15716993" lon="7.27736397"><ele>2068.199951</ele><time>2011-11-12T11:31:06Z</time></trkpt>
<trkpt lat="46.15726800" lon="7.27735500"><ele>2069.800049</ele><time>2011-11-12T11:31:12Z</time></trkpt>
<trkpt lat="46.15741099" lon="7.27734192"><ele>2072.399902</ele><time>2011-11-12T11:31:20Z</time></trkpt>
<trkpt lat="46.15753094" lon="7.27733094"><ele>2074.399902</ele><time>2011-11-12T11:31:27Z</time></trkpt>
<trkpt lat="46.15762096" lon="7.27730697"><ele>2075</ele><time>2011-11-12T11:31:33Z</time></trkpt>
<trkpt lat="46.15774300" lon="7.27724997"><ele>2075</ele><time>2011-11-12T11:31:41Z</time></trkpt>
<trkpt lat="46.15775792" lon="7.27724293"><ele>2075</ele><time>2011-11-12T11:31:42Z</time></trkpt>
<trkpt lat="46.15789195" lon="7.27718099"><ele>2075</ele><time>2011-11-12T11:31:50Z</time></trkpt>
<trkpt lat="46.15796898" lon="7.27714495"><ele>2075</ele><time>2011-11-12T11:31:55Z</time></trkpt>
<trkpt lat="46.15809496" lon="7.27708594"><ele>2075.199951</ele><time>2011-11-12T11:32:03Z</time></trkpt>
<trkpt lat="46.15818799" lon="7.27704596"><ele>2075.399902</ele><time>2011-11-12T11:32:10Z</time></trkpt>
<trkpt lat="46.15829092" lon="7.27702693"><ele>2076.399902</ele><time>2011-11-12T11:32:17Z</time></trkpt>
<trkpt lat="46.15842093" lon="7.27700195"><ele>2074.800049</ele><time>2011-11-12T11:32:26Z</time></trkpt>
<trkpt lat="46.15856996" lon="7.27700296"><ele>2072</ele><time>2011-11-12T11:32:35Z</time></trkpt>
<trkpt lat="46.15868798" lon="7.27716993"><ele>2074</ele><time>2011-11-12T11:32:43Z</time></trkpt>
<trkpt lat="46.15870097" lon="7.27735693"><ele>2078.600098</ele><time>2011-11-12T11:32:51Z</time></trkpt>
<trkpt lat="46.15870197" lon="7.27737998"><ele>2079.199951</ele><time>2011-11-12T11:32:52Z</time></trkpt>
<trkpt lat="46.15870994" lon="7.27757393"><ele>2083.600098</ele><time>2011-11-12T11:33:01Z</time></trkpt>
<trkpt lat="46.15871496" lon="7.27775197"><ele>2087.399902</ele><time>2011-11-12T11:33:09Z</time></trkpt>
<trkpt lat="46.15873097" lon="7.27788398"><ele>2090</ele><time>2011-11-12T11:33:16Z</time></trkpt>
<trkpt lat="46.15874497" lon="7.27791793"><ele>2090.600098</ele><time>2011-11-12T11:33:18Z</time></trkpt>
<trkpt lat="46.15876098" lon="7.27794198"><ele>2090.800049</ele><time>2011-11-12T11:33:20Z</time></trkpt>
<trkpt lat="46.15879199" lon="7.27797895"><ele>2090.800049</ele><time>2011-11-12T11:33:24Z</time></trkpt>
<trkpt lat="46.15886995" lon="7.27803100"><ele>2090.399902</ele><time>2011-11-12T11:33:32Z</time></trkpt>
<trkpt lat="46.15894999" lon="7.27809797"><ele>2090.199951</ele><time>2011-11-12T11:33:38Z</time></trkpt>
<trkpt lat="46.15904295" lon="7.27825094"><ele>2092.199951</ele><time>2011-11-12T11:33:45Z</time></trkpt>
<trkpt lat="46.15910992" lon="7.27840399"><ele>2094.600098</ele><time>2011-11-12T11:33:52Z</time></trkpt>
<trkpt lat="46.15916893" lon="7.27856694"><ele>2097.399902</ele><time>2011-11-12T11:33:59Z</time></trkpt>
<trkpt lat="46.15922593" lon="7.27870096"><ele>2099.800049</ele><time>2011-11-12T11:34:06Z</time></trkpt>
<trkpt lat="46.15930597" lon="7.27880398"><ele>2101.199951</ele><time>2011-11-12T11:34:14Z</time></trkpt>
<trkpt lat="46.15939692" lon="7.27890297"><ele>2102.399902</ele><time>2011-11-12T11:34:22Z</time></trkpt>
<trkpt lat="46.15948895" lon="7.27897698"><ele>2103.199951</ele><time>2011-11-12T11:34:29Z</time></trkpt>
<trkpt lat="46.15962792" lon="7.27908997"><ele>2104.800049</ele><time>2011-11-12T11:34:39Z</time></trkpt>
<trkpt lat="46.15973295" lon="7.27919198"><ele>2106.399902</ele><time>2011-11-12T11:34:47Z</time></trkpt>
<trkpt lat="46.15984594" lon="7.27935299"><ele>2109</ele><time>2011-11-12T11:34:56Z</time></trkpt>
<trkpt lat="46.15991995" lon="7.27944192"><ele>2110.399902</ele><time>2011-11-12T11:35:02Z</time></trkpt>
<trkpt lat="46.16003092" lon="7.27937194"><ele>2108.199951</ele><time>2011-11-12T11:35:09Z</time></trkpt>
<trkpt lat="46.16006697" lon="7.27930597"><ele>2106.800049</ele><time>2011-11-12T11:35:13Z</time></trkpt>
<trkpt lat="46.16014995" lon="7.27915099"><ele>2104</ele><time>2011-11-12T11:35:21Z</time></trkpt>
<trkpt lat="46.16022396" lon="7.27906398"><ele>2102.199951</ele><time>2011-11-12T11:35:27Z</time></trkpt>
<trkpt lat="46.16030694" lon="7.27899098"><ele>2100.800049</ele><time>2011-11-12T11:35:33Z</time></trkpt>
<trkpt lat="46.16043292" lon="7.27891395"><ele>2100</ele><time>2011-11-12T11:35:41Z</time></trkpt>
<trkpt lat="46.16054297" lon="7.27889299"><ele>2100.800049</ele><time>2011-11-12T11:35:48Z</time></trkpt>
<trkpt lat="46.16068999" lon="7.27890892"><ele>2103</ele><time>2011-11-12T11:35:57Z</time></trkpt>
<trkpt lat="46.16085696" lon="7.27895997"><ele>2106.199951</ele><time>2011-11-12T11:36:07Z</time></trkpt>
<trkpt lat="46.16098696" lon="7.27901193"><ele>2107.800049</ele><time>2011-11-12T11:36:15Z</time></trkpt>
<trkpt lat="46.16107900" lon="7.27908092"><ele>2109.600098</ele><time>2011-11-12T11:36:22Z</time></trkpt>
<trkpt lat="46.16115997" lon="7.27915199"><ele>2111.199951</ele><time>2011-11-12T11:36:30Z</time></trkpt>
<trkpt lat="46.16118394" lon="7.27917295"><ele>2111.600098</ele><time>2011-11-12T11:36:32Z</time></trkpt>
<trkpt lat="46.16130095" lon="7.27923296"><ele>2112.399902</ele><time>2011-11-12T11:36:40Z</time></trkpt>
<trkpt lat="46.16141796" lon="7.27925392"><ele>2112.600098</ele><time>2011-11-12T11:36:48Z</time></trkpt>
<trkpt lat="46.16152994" lon="7.27927093"><ele>2112.800049</ele><time>2011-11-12T11:36:56Z</time></trkpt>
<trkpt lat="46.16161896" lon="7.27928493"><ele>2112.800049</ele><time>2011-11-12T11:37:02Z</time></trkpt>
<trkpt lat="46.16175399" lon="7.27931192"><ele>2113.800049</ele><time>2011-11-12T11:37:10Z</time></trkpt>
<trkpt lat="46.16180898" lon="7.27932299"><ele>2114.199951</ele><time>2011-11-12T11:37:13Z</time></trkpt>
<trkpt lat="46.16189992" lon="7.27934092"><ele>2115</ele><time>2011-11-12T11:37:19Z</time></trkpt>
<trkpt lat="46.16200293" lon="7.27939197"><ele>2116.199951</ele><time>2011-11-12T11:37:26Z</time></trkpt>
<trkpt lat="46.16209497" lon="7.27948392"><ele>2118</ele><time>2011-11-12T11:37:35Z</time></trkpt>
<trkpt lat="46.16210595" lon="7.27949398"><ele>2118.199951</ele><time>2011-11-12T11:37:36Z</time></trkpt>
<trkpt lat="46.16213093" lon="7.27951996"><ele>2118.600098</ele><time>2011-11-12T11:37:39Z</time></trkpt>
<trkpt lat="46.16224794" lon="7.27963697"><ele>2120.399902</ele><time>2011-11-12T11:37:50Z</time></trkpt>
<trkpt lat="46.16232597" lon="7.27971492"><ele>2121.600098</ele><time>2011-11-12T11:37:57Z</time></trkpt>
<trkpt lat="46.16240594" lon="7.27979497"><ele>2122.600098</ele><time>2011-11-12T11:38:04Z</time></trkpt>
<trkpt lat="46.16250493" lon="7.27989899"><ele>2123.800049</ele><time>2011-11-12T11:38:12Z</time></trkpt>
<trkpt lat="46.16260593" lon="7.28001592"><ele>2124.199951</ele><time>2011-11-12T11:38:20Z</time></trkpt>
<trkpt lat="46.16272093" lon="7.28014793"><ele>2124.600098</ele><time>2011-11-12T11:38:29Z</time></trkpt>
<trkpt lat="46.16280693" lon="7.28026796"><ele>2125</ele><time>2011-11-12T11:38:36Z</time></trkpt>
<trkpt lat="46.16289292" lon="7.28039696"><ele>2125.199951</ele><time>2011-11-12T11:38:44Z</time></trkpt>
<trkpt lat="46.16296199" lon="7.28050693"><ele>2125.399902</ele><time>2011-11-12T11:38:51Z</time></trkpt>
<trkpt lat="46.16294196" lon="7.28069594"><ele>2127.600098</ele><time>2011-11-12T11:38:55Z</time></trkpt>
<trkpt lat="46.16294498" lon="7.28069594"><ele>2127.399902</ele><time>2011-11-12T11:39:01Z</time></trkpt>
<trkpt lat="46.16293400" lon="7.28078395"><ele>2128.600098</ele><time>2011-11-12T11:39:06Z</time></trkpt>
<trkpt lat="46.16287792" lon="7.28067398"><ele>2128.399902</ele><time>2011-11-12T11:40:53Z</time></trkpt>
<trkpt lat="46.16276694" lon="7.28056795"><ele>2129.199951</ele><time>2011-11-12T11:41:04Z</time></trkpt>
<trkpt lat="46.16269696" lon="7.28050894"><ele>2129.600098</ele><time>2011-11-12T11:41:10Z</time></trkpt>
<trkpt lat="46.16260492" lon="7.28048095"><ele>2130.800049</ele><time>2011-11-12T11:41:15Z</time></trkpt>
<trkpt lat="46.16254600" lon="7.28049193"><ele>2131.800049</ele><time>2011-11-12T11:41:19Z</time></trkpt>
<trkpt lat="46.16243100" lon="7.28053392"><ele>2133.800049</ele><time>2011-11-12T11:41:29Z</time></trkpt>
<trkpt lat="46.16232597" lon="7.28057600"><ele>2135.199951</ele><time>2011-11-12T11:41:37Z</time></trkpt>
<trkpt lat="46.16225095" lon="7.28061799"><ele>2136.600098</ele><time>2011-11-12T11:41:43Z</time></trkpt>
<trkpt lat="46.16217099" lon="7.28066199"><ele>2138.199951</ele><time>2011-11-12T11:41:50Z</time></trkpt>
<trkpt lat="46.16206798" lon="7.28071396"><ele>2140.399902</ele><time>2011-11-12T11:41:58Z</time></trkpt>
<trkpt lat="46.16196899" lon="7.28073592"><ele>2142</ele><time>2011-11-12T11:42:07Z</time></trkpt>
<trkpt lat="46.16187092" lon="7.28075495"><ele>2143.399902</ele><time>2011-11-12T11:42:15Z</time></trkpt>
<trkpt lat="46.16178098" lon="7.28073299"><ele>2143.800049</ele><time>2011-11-12T11:42:23Z</time></trkpt>
<trkpt lat="46.16167897" lon="7.28070793"><ele>2144.199951</ele><time>2011-11-12T11:42:31Z</time></trkpt>
<trkpt lat="46.16155693" lon="7.28069594"><ele>2143.199951</ele><time>2011-11-12T11:42:40Z</time></trkpt>
<trkpt lat="46.16143598" lon="7.28070198"><ele>2142.399902</ele><time>2011-11-12T11:42:49Z</time></trkpt>
<trkpt lat="46.16131797" lon="7.28075596"><ele>2142.800049</ele><time>2011-11-12T11:42:58Z</time></trkpt>
<trkpt lat="46.16124094" lon="7.28086995"><ele>2144.800049</ele><time>2011-11-12T11:43:08Z</time></trkpt>
<trkpt lat="46.16119794" lon="7.28102795"><ele>2148.199951</ele><time>2011-11-12T11:43:16Z</time></trkpt>
<trkpt lat="46.16113398" lon="7.28113096"><ele>2150</ele><time>2011-11-12T11:43:24Z</time></trkpt>
<trkpt lat="46.16112594" lon="7.28113993"><ele>2150</ele><time>2011-11-12T11:43:25Z</time></trkpt>
<trkpt lat="46.16103197" lon="7.28124697"><ele>2151.600098</ele><time>2011-11-12T11:43:35Z</time></trkpt>
<trkpt lat="46.16096299" lon="7.28133297"><ele>2152.800049</ele><time>2011-11-12T11:43:42Z</time></trkpt>
<trkpt lat="46.16087892" lon="7.28144797"><ele>2154.399902</ele><time>2011-11-12T11:43:51Z</time></trkpt>
<trkpt lat="46.16083399" lon="7.28150899"><ele>2155.399902</ele><time>2011-11-12T11:43:56Z</time></trkpt>
<trkpt lat="46.16077096" lon="7.28157998"><ele>2157.199951</ele><time>2011-11-12T11:44:03Z</time></trkpt>
<trkpt lat="46.16069293" lon="7.28167092"><ele>2159.600098</ele><time>2011-11-12T11:44:12Z</time></trkpt>
<trkpt lat="46.16061397" lon="7.28171895"><ele>2160.800049</ele><time>2011-11-12T11:44:19Z</time></trkpt>
<trkpt lat="46.16053593" lon="7.28176497"><ele>2162</ele><time>2011-11-12T11:44:26Z</time></trkpt>
<trkpt lat="46.16043694" lon="7.28179992"><ele>2163</ele><time>2011-11-12T11:44:35Z</time></trkpt>
<trkpt lat="46.16031599" lon="7.28181099"><ele>2163.399902</ele><time>2011-11-12T11:44:45Z</time></trkpt>
<trkpt lat="46.16019496" lon="7.28181099"><ele>2163.600098</ele><time>2011-11-12T11:44:55Z</time></trkpt>
<trkpt lat="46.16010695" lon="7.28176698"><ele>2163</ele><time>2011-11-12T11:45:03Z</time></trkpt>
<trkpt lat="46.15998197" lon="7.28167696"><ele>2162.199951</ele><time>2011-11-12T11:45:13Z</time></trkpt>
<trkpt lat="46.15985096" lon="7.28158392"><ele>2161.399902</ele><time>2011-11-12T11:45:23Z</time></trkpt>
<trkpt lat="46.15961099" lon="7.28181794"><ele>2167.600098</ele><time>2011-11-12T11:45:32Z</time></trkpt>
<trkpt lat="46.15957595" lon="7.28178592"><ele>2167.600098</ele><time>2011-11-12T11:45:37Z</time></trkpt>
<trkpt lat="46.15972297" lon="7.28163295"><ele>2164</ele><time>2011-11-12T11:45:42Z</time></trkpt>
<trkpt lat="46.15974594" lon="7.28169892"><ele>2165</ele><time>2011-11-12T11:45:50Z</time></trkpt>
<trkpt lat="46.15980696" lon="7.28180093"><ele>2165.600098</ele><time>2011-11-12T11:45:57Z</time></trkpt>
<trkpt lat="46.15986798" lon="7.28189296"><ele>2166.199951</ele><time>2011-11-12T11:46:04Z</time></trkpt>
<trkpt lat="46.15990092" lon="7.28192993"><ele>2166.399902</ele><time>2011-11-12T11:46:07Z</time></trkpt>
<trkpt lat="46.15999295" lon="7.28203394"><ele>2167.199951</ele><time>2011-11-12T11:46:15Z</time></trkpt>
<trkpt lat="46.16007795" lon="7.28216596"><ele>2169.399902</ele><time>2011-11-12T11:46:23Z</time></trkpt>
<trkpt lat="46.16019194" lon="7.28227895"><ele>2171.600098</ele><time>2011-11-12T11:46:32Z</time></trkpt>
<trkpt lat="46.16027794" lon="7.28235397"><ele>2173.199951</ele><time>2011-11-12T11:46:39Z</time></trkpt>
<trkpt lat="46.16026796" lon="7.28275093"><ele>2176.399902</ele><time>2011-11-12T11:46:46Z</time></trkpt>
<trkpt lat="46.16036092" lon="7.28285696"><ele>2177.600098</ele><time>2011-11-12T11:46:53Z</time></trkpt>
<trkpt lat="46.16044097" lon="7.28293592"><ele>2178.800049</ele><time>2011-11-12T11:47:00Z</time></trkpt>
<trkpt lat="46.16053392" lon="7.28303893"><ele>2180.399902</ele><time>2011-11-12T11:47:07Z</time></trkpt>
<trkpt lat="46.16055496" lon="7.28307196"><ele>2180.800049</ele><time>2011-11-12T11:47:10Z</time></trkpt>
<trkpt lat="46.16005892" lon="7.28248397"><ele>2174</ele><time>2011-11-12T11:47:13Z</time></trkpt>
<trkpt lat="46.16006294" lon="7.28247995"><ele>2174</ele><time>2011-11-12T11:50:05Z</time></trkpt>
<trkpt lat="46.16060492" lon="7.28314899"><ele>2182</ele><time>2011-11-12T11:50:14Z</time></trkpt>
<trkpt lat="46.16066200" lon="7.28323792"><ele>2183.399902</ele><time>2011-11-12T11:50:22Z</time></trkpt>
<trkpt lat="46.16071195" lon="7.28332199"><ele>2184.800049</ele><time>2011-11-12T11:50:31Z</time></trkpt>
<trkpt lat="46.16071195" lon="7.28332199"><ele>2184.800049</ele><time>2011-11-12T11:50:33Z</time></trkpt>
<trkpt lat="46.16072394" lon="7.28338192"><ele>2184.600098</ele><time>2011-11-12T11:50:54Z</time></trkpt>
<trkpt lat="46.16073894" lon="7.28345493"><ele>2184.399902</ele><time>2011-11-12T11:51:02Z</time></trkpt>
<trkpt lat="46.16074397" lon="7.28348292"><ele>2184.199951</ele><time>2011-11-12T11:51:09Z</time></trkpt>
<trkpt lat="46.16075898" lon="7.28355694"><ele>2183.800049</ele><time>2011-11-12T11:51:18Z</time></trkpt>
<trkpt lat="46.16075898" lon="7.28355694"><ele>2183.800049</ele><time>2011-11-12T11:51:26Z</time></trkpt>
<trkpt lat="46.16076392" lon="7.28357898"><ele>2183.800049</ele><time>2011-11-12T11:51:51Z</time></trkpt>
<trkpt lat="46.16076392" lon="7.28357898"><ele>2183.800049</ele><time>2011-11-12T11:51:55Z</time></trkpt>
<trkpt lat="46.16076392" lon="7.28357898"><ele>2183.800049</ele><time>2011-11-12T12:00:32Z</time></trkpt>
<trkpt lat="46.16099593" lon="7.28353699"><ele>2187.399902</ele><time>2011-11-12T12:19:39Z</time></trkpt>
<trkpt lat="46.16093793" lon="7.28349793"><ele>2187</ele><time>2011-11-12T12:26:25Z</time></trkpt>
<trkpt lat="46.16094195" lon="7.28269695"><ele>2182.800049</ele><time>2011-11-12T12:26:31Z</time></trkpt>
<trkpt lat="46.16051699" lon="7.28249797"><ele>2177.600098</ele><time>2011-11-12T12:26:34Z</time></trkpt>
<trkpt lat="46.16079393" lon="7.28373296"><ele>2183</ele><time>2011-11-12T12:26:38Z</time></trkpt>
<trkpt lat="46.16081899" lon="7.28385592"><ele>2182.399902</ele><time>2011-11-12T12:26:41Z</time></trkpt>
<trkpt lat="46.16086995" lon="7.28410997"><ele>2180.800049</ele><time>2011-11-12T12:26:47Z</time></trkpt>
<trkpt lat="46.16092192" lon="7.28438297"><ele>2179.399902</ele><time>2011-11-12T12:26:53Z</time></trkpt>
<trkpt lat="46.16094598" lon="7.28461197"><ele>2177.800049</ele><time>2011-11-12T12:26:58Z</time></trkpt>
<trkpt lat="46.16088898" lon="7.28472998"><ele>2176.800049</ele><time>2011-11-12T12:27:00Z</time></trkpt>
<trkpt lat="46.16083894" lon="7.28498697"><ele>2175</ele><time>2011-11-12T12:27:04Z</time></trkpt>
<trkpt lat="46.16083894" lon="7.28498697"><ele>2175</ele><time>2011-11-12T12:27:07Z</time></trkpt>
<trkpt lat="46.16087297" lon="7.28475295"><ele>2176.600098</ele><time>2011-11-12T12:27:12Z</time></trkpt>
<trkpt lat="46.16090692" lon="7.28470299"><ele>2177</ele><time>2011-11-12T12:27:16Z</time></trkpt>
<trkpt lat="46.16081798" lon="7.28483694"><ele>2176</ele><time>2011-11-12T12:27:22Z</time></trkpt>
<trkpt lat="46.16093793" lon="7.28446998"><ele>2178.800049</ele><time>2011-11-12T12:27:30Z</time></trkpt>
<trkpt lat="46.16088496" lon="7.28418994"><ele>2180.399902</ele><time>2011-11-12T12:27:37Z</time></trkpt>
<trkpt lat="46.16083399" lon="7.28393194"><ele>2181.800049</ele><time>2011-11-12T12:27:43Z</time></trkpt>
<trkpt lat="46.16078194" lon="7.28367093"><ele>2183.399902</ele><time>2011-11-12T12:27:51Z</time></trkpt>
<trkpt lat="46.16072193" lon="7.28337295"><ele>2184.800049</ele><time>2011-11-12T12:27:58Z</time></trkpt>
<trkpt lat="46.16064398" lon="7.28320993"><ele>2183</ele><time>2011-11-12T12:28:01Z</time></trkpt>
<trkpt lat="46.16051297" lon="7.28300893"><ele>2180</ele><time>2011-11-12T12:28:05Z</time></trkpt>
<trkpt lat="46.16029697" lon="7.28279293"><ele>2176.600098</ele><time>2011-11-12T12:28:09Z</time></trkpt>
<trkpt lat="46.16017099" lon="7.28255698"><ele>2175.199951</ele><time>2011-11-12T12:28:12Z</time></trkpt>
<trkpt lat="46.16001793" lon="7.28225498"><ele>2170.399902</ele><time>2011-11-12T12:28:16Z</time></trkpt>
<trkpt lat="46.16000494" lon="7.28218792"><ele>2169.399902</ele><time>2011-11-12T12:28:17Z</time></trkpt>
<trkpt lat="46.15998097" lon="7.28201995"><ele>2167.199951</ele><time>2011-11-12T12:28:21Z</time></trkpt>
<trkpt lat="46.15983495" lon="7.28184795"><ele>2166</ele><time>2011-11-12T12:28:28Z</time></trkpt>
<trkpt lat="46.15978793" lon="7.28176799"><ele>2165.399902</ele><time>2011-11-12T12:28:30Z</time></trkpt>
<trkpt lat="46.15972297" lon="7.28166095"><ele>2164.800049</ele><time>2011-11-12T12:28:34Z</time></trkpt>
<trkpt lat="46.15977293" lon="7.28174393"><ele>2165.199951</ele><time>2011-11-12T12:28:38Z</time></trkpt>
<trkpt lat="46.15978500" lon="7.28176396"><ele>2165.399902</ele><time>2011-11-12T12:28:39Z</time></trkpt>
<trkpt lat="46.16009094" lon="7.28175499"><ele>2163</ele><time>2011-11-12T12:28:43Z</time></trkpt>
<trkpt lat="46.16037299" lon="7.28180998"><ele>2163.399902</ele><time>2011-11-12T12:28:47Z</time></trkpt>
<trkpt lat="46.16073794" lon="7.28162399"><ele>2158.199951</ele><time>2011-11-12T12:28:51Z</time></trkpt>
<trkpt lat="46.16097699" lon="7.28131293"><ele>2152.600098</ele><time>2011-11-12T12:28:54Z</time></trkpt>
<trkpt lat="46.16123700" lon="7.28095000"><ele>2146.600098</ele><time>2011-11-12T12:28:57Z</time></trkpt>
<trkpt lat="46.16145794" lon="7.28076098"><ele>2144</ele><time>2011-11-12T12:29:01Z</time></trkpt>
<trkpt lat="46.16169398" lon="7.28078697"><ele>2146.199951</ele><time>2011-11-12T12:29:04Z</time></trkpt>
<trkpt lat="46.16196899" lon="7.28076098"><ele>2142.600098</ele><time>2011-11-12T12:29:07Z</time></trkpt>
<trkpt lat="46.16227199" lon="7.28066795"><ele>2137.399902</ele><time>2011-11-12T12:29:10Z</time></trkpt>
<trkpt lat="46.16255899" lon="7.28058396"><ele>2133</ele><time>2011-11-12T12:29:13Z</time></trkpt>
<trkpt lat="46.16280592" lon="7.28068798"><ele>2130</ele><time>2011-11-12T12:29:17Z</time></trkpt>
<trkpt lat="46.16296199" lon="7.28079393"><ele>2128</ele><time>2011-11-12T12:29:21Z</time></trkpt>
<trkpt lat="46.16296694" lon="7.28078999"><ele>2128</ele><time>2011-11-12T12:29:23Z</time></trkpt>
<trkpt lat="46.16302896" lon="7.28086693"><ele>2127.199951</ele><time>2011-11-12T12:29:59Z</time></trkpt>
<trkpt lat="46.16311295" lon="7.28104798"><ele>2125.399902</ele><time>2011-11-12T12:30:04Z</time></trkpt>
<trkpt lat="46.16316995" lon="7.28115393"><ele>2123.600098</ele><time>2011-11-12T12:30:09Z</time></trkpt>
<trkpt lat="46.16322896" lon="7.28126097"><ele>2121.399902</ele><time>2011-11-12T12:30:15Z</time></trkpt>
<trkpt lat="46.16328193" lon="7.28144394"><ele>2118.600098</ele><time>2011-11-12T12:30:20Z</time></trkpt>
<trkpt lat="46.16323692" lon="7.28160798"><ele>2119.600098</ele><time>2011-11-12T12:30:24Z</time></trkpt>
<trkpt lat="46.16318797" lon="7.28168693"><ele>2121.600098</ele><time>2011-11-12T12:30:26Z</time></trkpt>
<trkpt lat="46.16315193" lon="7.28178794"><ele>2123</ele><time>2011-11-12T12:30:28Z</time></trkpt>
<trkpt lat="46.16312594" lon="7.28190294"><ele>2124.199951</ele><time>2011-11-12T12:30:30Z</time></trkpt>
<trkpt lat="46.16310792" lon="7.28225196"><ele>2124.399902</ele><time>2011-11-12T12:30:36Z</time></trkpt>
<trkpt lat="46.16310398" lon="7.28236796"><ele>2124.399902</ele><time>2011-11-12T12:30:39Z</time></trkpt>
<trkpt lat="46.16312996" lon="7.28272193"><ele>2122.199951</ele><time>2011-11-12T12:30:44Z</time></trkpt>
<trkpt lat="46.16315000" lon="7.28294699"><ele>2120.600098</ele><time>2011-11-12T12:30:48Z</time></trkpt>
<trkpt lat="46.16319492" lon="7.28326592"><ele>2116.800049</ele><time>2011-11-12T12:30:53Z</time></trkpt>
<trkpt lat="46.16321697" lon="7.28335292"><ele>2115.199951</ele><time>2011-11-12T12:30:55Z</time></trkpt>
<trkpt lat="46.16337195" lon="7.28364495"><ele>2107</ele><time>2011-11-12T12:31:00Z</time></trkpt>
<trkpt lat="46.16339894" lon="7.28370194"><ele>2105.800049</ele><time>2011-11-12T12:31:01Z</time></trkpt>
<trkpt lat="46.16345393" lon="7.28389498"><ele>2104</ele><time>2011-11-12T12:31:04Z</time></trkpt>
<trkpt lat="46.16352693" lon="7.28418600"><ele>2101.600098</ele><time>2011-11-12T12:31:08Z</time></trkpt>
<trkpt lat="46.16367898" lon="7.28476100"><ele>2099</ele><time>2011-11-12T12:31:14Z</time></trkpt>
<trkpt lat="46.16372298" lon="7.28493995"><ele>2098.600098</ele><time>2011-11-12T12:31:16Z</time></trkpt>
<trkpt lat="46.16390194" lon="7.28533499"><ele>2091</ele><time>2011-11-12T12:31:21Z</time></trkpt>
<trkpt lat="46.16393094" lon="7.28538897"><ele>2089.800049</ele><time>2011-11-12T12:31:22Z</time></trkpt>
<trkpt lat="46.16403094" lon="7.28564093"><ele>2086.399902</ele><time>2011-11-12T12:31:27Z</time></trkpt>
<trkpt lat="46.16407896" lon="7.28580195"><ele>2085.199951</ele><time>2011-11-12T12:31:31Z</time></trkpt>
<trkpt lat="46.16416194" lon="7.28610495"><ele>2079.199951</ele><time>2011-11-12T12:31:36Z</time></trkpt>
<trkpt lat="46.16424895" lon="7.28627393"><ele>2074.199951</ele><time>2011-11-12T12:31:40Z</time></trkpt>
<trkpt lat="46.16424694" lon="7.28653897"><ele>2072</ele><time>2011-11-12T12:31:44Z</time></trkpt>
<trkpt lat="46.16429295" lon="7.28676494"><ele>2069</ele><time>2011-11-12T12:31:47Z</time></trkpt>
<trkpt lat="46.16440795" lon="7.28689495"><ele>2065.399902</ele><time>2011-11-12T12:31:51Z</time></trkpt>
<trkpt lat="46.16452496" lon="7.28697499"><ele>2062.199951</ele><time>2011-11-12T12:31:53Z</time></trkpt>
<trkpt lat="46.16468900" lon="7.28722695"><ele>2057.399902</ele><time>2011-11-12T12:31:57Z</time></trkpt>
<trkpt lat="46.16469696" lon="7.28734799"><ele>2056.800049</ele><time>2011-11-12T12:31:59Z</time></trkpt>
<trkpt lat="46.16469294" lon="7.28760296"><ele>2055.199951</ele><time>2011-11-12T12:32:04Z</time></trkpt>
<trkpt lat="46.16472194" lon="7.28780195"><ele>2052</ele><time>2011-11-12T12:32:09Z</time></trkpt>
<trkpt lat="46.16471892" lon="7.28781796"><ele>2052</ele><time>2011-11-12T12:32:12Z</time></trkpt>
<trkpt lat="46.16471096" lon="7.28789994"><ele>2051.199951</ele><time>2011-11-12T12:34:03Z</time></trkpt>
<trkpt lat="46.16470492" lon="7.28798694"><ele>2050.199951</ele><time>2011-11-12T12:34:05Z</time></trkpt>
<trkpt lat="46.16465195" lon="7.28840696"><ele>2047.599976</ele><time>2011-11-12T12:34:10Z</time></trkpt>
<trkpt lat="46.16460593" lon="7.28877098"><ele>2048.199951</ele><time>2011-11-12T12:34:14Z</time></trkpt>
<trkpt lat="46.16460199" lon="7.28885899"><ele>2048</ele><time>2011-11-12T12:34:17Z</time></trkpt>
<trkpt lat="46.16460199" lon="7.28887400"><ele>2048</ele><time>2011-11-12T12:34:18Z</time></trkpt>
<trkpt lat="46.16456796" lon="7.28902998"><ele>2049</ele><time>2011-11-12T12:34:23Z</time></trkpt>
<trkpt lat="46.16456193" lon="7.28921799"><ele>2048.399902</ele><time>2011-11-12T12:34:27Z</time></trkpt>
<trkpt lat="46.16455992" lon="7.28929896"><ele>2048</ele><time>2011-11-12T12:34:29Z</time></trkpt>
<trkpt lat="46.16462396" lon="7.28954094"><ele>2044</ele><time>2011-11-12T12:34:33Z</time></trkpt>
<trkpt lat="46.16470199" lon="7.28973398"><ele>2040</ele><time>2011-11-12T12:34:36Z</time></trkpt>
<trkpt lat="46.16474600" lon="7.28997295"><ele>2037.199951</ele><time>2011-11-12T12:34:40Z</time></trkpt>
<trkpt lat="46.16476192" lon="7.29018099"><ele>2035</ele><time>2011-11-12T12:34:45Z</time></trkpt>
<trkpt lat="46.16476293" lon="7.29023698"><ele>2034.400024</ele><time>2011-11-12T12:34:46Z</time></trkpt>
<trkpt lat="46.16480199" lon="7.29051199"><ele>2030.599976</ele><time>2011-11-12T12:34:51Z</time></trkpt>
<trkpt lat="46.16486292" lon="7.29085296"><ele>2025.599976</ele><time>2011-11-12T12:34:56Z</time></trkpt>
<trkpt lat="46.16486100" lon="7.29114600"><ele>2027.199951</ele><time>2011-11-12T12:35:01Z</time></trkpt>
<trkpt lat="46.16485597" lon="7.29136200"><ele>2028.599976</ele><time>2011-11-12T12:35:04Z</time></trkpt>
<trkpt lat="46.16490198" lon="7.29173298"><ele>2028.199951</ele><time>2011-11-12T12:35:08Z</time></trkpt>
<trkpt lat="46.16499796" lon="7.29173893"><ele>2024</ele><time>2011-11-12T12:35:12Z</time></trkpt>
<trkpt lat="46.16502293" lon="7.29159493"><ele>2022.599976</ele><time>2011-11-12T12:35:15Z</time></trkpt>
<trkpt lat="46.16504095" lon="7.29156492"><ele>2021.599976</ele><time>2011-11-12T12:35:16Z</time></trkpt>
<trkpt lat="46.16510893" lon="7.29141195"><ele>2018</ele><time>2011-11-12T12:35:19Z</time></trkpt>
<trkpt lat="46.16530993" lon="7.29111196"><ele>2009.400024</ele><time>2011-11-12T12:35:24Z</time></trkpt>
<trkpt lat="46.16534396" lon="7.29102295"><ele>2008</ele><time>2011-11-12T12:35:25Z</time></trkpt>
<trkpt lat="46.16545494" lon="7.29074299"><ele>2005</ele><time>2011-11-12T12:35:28Z</time></trkpt>
<trkpt lat="46.16566398" lon="7.29045600"><ele>2000.400024</ele><time>2011-11-12T12:35:32Z</time></trkpt>
<trkpt lat="46.16576398" lon="7.29046698"><ele>1996.800049</ele><time>2011-11-12T12:35:35Z</time></trkpt>
<trkpt lat="46.16584294" lon="7.29058692"><ele>1993</ele><time>2011-11-12T12:35:39Z</time></trkpt>
<trkpt lat="46.16595198" lon="7.29092295"><ele>1987.400024</ele><time>2011-11-12T12:35:44Z</time></trkpt>
<trkpt lat="46.16596699" lon="7.29101398"><ele>1986.400024</ele><time>2011-11-12T12:35:45Z</time></trkpt>
<trkpt lat="46.16606397" lon="7.29148094"><ele>1980.400024</ele><time>2011-11-12T12:35:51Z</time></trkpt>
<trkpt lat="46.16609297" lon="7.29164195"><ele>1978.199951</ele><time>2011-11-12T12:35:53Z</time></trkpt>
<trkpt lat="46.16616899" lon="7.29192099"><ele>1973.400024</ele><time>2011-11-12T12:35:58Z</time></trkpt>
<trkpt lat="46.16624099" lon="7.29209399"><ele>1969</ele><time>2011-11-12T12:36:02Z</time></trkpt>
<trkpt lat="46.16624594" lon="7.29214193"><ele>1968.400024</ele><time>2011-11-12T12:36:04Z</time></trkpt>
<trkpt lat="46.16624200" lon="7.29216096"><ele>1968.400024</ele><time>2011-11-12T12:36:07Z</time></trkpt>
<trkpt lat="46.16632096" lon="7.29241200"><ele>1962.599976</ele><time>2011-11-12T12:36:31Z</time></trkpt>
<trkpt lat="46.16639094" lon="7.29252499"><ele>1958.400024</ele><time>2011-11-12T12:36:34Z</time></trkpt>
<trkpt lat="46.16656093" lon="7.29269497"><ele>1949.400024</ele><time>2011-11-12T12:36:38Z</time></trkpt>
<trkpt lat="46.16684097" lon="7.29299597"><ele>1936.199951</ele><time>2011-11-12T12:36:43Z</time></trkpt>
<trkpt lat="46.16704096" lon="7.29331599"><ele>1927.199951</ele><time>2011-11-12T12:36:48Z</time></trkpt>
<trkpt lat="46.16708497" lon="7.29346694"><ele>1924</ele><time>2011-11-12T12:36:50Z</time></trkpt>
<trkpt lat="46.16722193" lon="7.29365294"><ele>1917.800049</ele><time>2011-11-12T12:36:54Z</time></trkpt>
<trkpt lat="46.16724699" lon="7.29365093"><ele>1917.199951</ele><time>2011-11-12T12:36:55Z</time></trkpt>
<trkpt lat="46.16735495" lon="7.29357700"><ele>1915.599976</ele><time>2011-11-12T12:37:01Z</time></trkpt>
<trkpt lat="46.16735595" lon="7.29357197"><ele>1915.800049</ele><time>2011-11-12T12:37:03Z</time></trkpt>
<trkpt lat="46.16741798" lon="7.29349796"><ele>1915.400024</ele><time>2011-11-12T12:37:18Z</time></trkpt>
<trkpt lat="46.16750197" lon="7.29333200"><ele>1915.800049</ele><time>2011-11-12T12:37:22Z</time></trkpt>
<trkpt lat="46.16752996" lon="7.29324600"><ele>1915.599976</ele><time>2011-11-12T12:37:26Z</time></trkpt>
<trkpt lat="46.16752896" lon="7.29323996"><ele>1915.800049</ele><time>2011-11-12T12:37:28Z</time></trkpt>
<trkpt lat="46.16751093" lon="7.29332093"><ele>1915.599976</ele><time>2011-11-12T12:37:39Z</time></trkpt>
<trkpt lat="46.16754195" lon="7.29313695"><ele>1916.199951</ele><time>2011-11-12T12:38:30Z</time></trkpt>
<trkpt lat="46.16756592" lon="7.29300493"><ele>1916.599976</ele><time>2011-11-12T12:38:32Z</time></trkpt>
<trkpt lat="46.16760297" lon="7.29271593"><ele>1917.599976</ele><time>2011-11-12T12:38:36Z</time></trkpt>
<trkpt lat="46.16765695" lon="7.29273395"><ele>1915.800049</ele><time>2011-11-12T12:38:38Z</time></trkpt>
<trkpt lat="46.16767799" lon="7.29284300"><ele>1914.199951</ele><time>2011-11-12T12:38:40Z</time></trkpt>
<trkpt lat="46.16771193" lon="7.29329797"><ele>1909.599976</ele><time>2011-11-12T12:38:45Z</time></trkpt>
<trkpt lat="46.16775200" lon="7.29382192"><ele>1901.400024</ele><time>2011-11-12T12:38:50Z</time></trkpt>
<trkpt lat="46.16777698" lon="7.29420095"><ele>1895.800049</ele><time>2011-11-12T12:38:54Z</time></trkpt>
<trkpt lat="46.16783800" lon="7.29464494"><ele>1887.400024</ele><time>2011-11-12T12:38:58Z</time></trkpt>
<trkpt lat="46.16777396" lon="7.29491995"><ele>1884.800049</ele><time>2011-11-12T12:39:02Z</time></trkpt>
<trkpt lat="46.16770900" lon="7.29515992"><ele>1882.400024</ele><time>2011-11-12T12:39:06Z</time></trkpt>
<trkpt lat="46.16765896" lon="7.29536092"><ele>1880</ele><time>2011-11-12T12:39:10Z</time></trkpt>
<trkpt lat="46.16763197" lon="7.29542596"><ele>1879.199951</ele><time>2011-11-12T12:39:15Z</time></trkpt>
<trkpt lat="46.16740096" lon="7.29565093"><ele>1880.599976</ele><time>2011-11-12T12:39:25Z</time></trkpt>
<trkpt lat="46.16717096" lon="7.29594698"><ele>1881.400024</ele><time>2011-11-12T12:39:29Z</time></trkpt>
<trkpt lat="46.16692998" lon="7.29633096"><ele>1881</ele><time>2011-11-12T12:39:34Z</time></trkpt>
<trkpt lat="46.16685396" lon="7.29649994"><ele>1880.199951</ele><time>2011-11-12T12:39:38Z</time></trkpt>
<trkpt lat="46.16687198" lon="7.29654294"><ele>1878.599976</ele><time>2011-11-12T12:39:43Z</time></trkpt>
<trkpt lat="46.16689595" lon="7.29647496"><ele>1879.199951</ele><time>2011-11-12T12:40:11Z</time></trkpt>
<trkpt lat="46.16699092" lon="7.29642995"><ele>1877.199951</ele><time>2011-11-12T12:41:10Z</time></trkpt>
<trkpt lat="46.16716493" lon="7.29643598"><ele>1871.599976</ele><time>2011-11-12T12:41:13Z</time></trkpt>
<trkpt lat="46.16753600" lon="7.29656096"><ele>1857.599976</ele><time>2011-11-12T12:41:17Z</time></trkpt>
<trkpt lat="46.16774898" lon="7.29661292"><ele>1853.599976</ele><time>2011-11-12T12:41:20Z</time></trkpt>
<trkpt lat="46.16799993" lon="7.29660898"><ele>1850.400024</ele><time>2011-11-12T12:41:24Z</time></trkpt>
<trkpt lat="46.16827193" lon="7.29663698"><ele>1846.199951</ele><time>2011-11-12T12:41:27Z</time></trkpt>
<trkpt lat="46.16844594" lon="7.29664092"><ele>1841.599976</ele><time>2011-11-12T12:41:29Z</time></trkpt>
<trkpt lat="46.16869899" lon="7.29644998"><ele>1835.400024</ele><time>2011-11-12T12:41:33Z</time></trkpt>
<trkpt lat="46.16875498" lon="7.29635493"><ele>1834.400024</ele><time>2011-11-12T12:41:34Z</time></trkpt>
<trkpt lat="46.16897492" lon="7.29601295"><ele>1829.400024</ele><time>2011-11-12T12:41:38Z</time></trkpt>
<trkpt lat="46.16927993" lon="7.29567097"><ele>1818.599976</ele><time>2011-11-12T12:41:43Z</time></trkpt>
<trkpt lat="46.16938999" lon="7.29553593"><ele>1814.199951</ele><time>2011-11-12T12:41:45Z</time></trkpt>
<trkpt lat="46.16948194" lon="7.29529797"><ele>1811.400024</ele><time>2011-11-12T12:41:49Z</time></trkpt>
<trkpt lat="46.16953097" lon="7.29506294"><ele>1810.400024</ele><time>2011-11-12T12:41:52Z</time></trkpt>
<trkpt lat="46.16957297" lon="7.29497996"><ele>1808.800049</ele><time>2011-11-12T12:41:53Z</time></trkpt>
<trkpt lat="46.16974798" lon="7.29463899"><ele>1801</ele><time>2011-11-12T12:41:56Z</time></trkpt>
<trkpt lat="46.17002400" lon="7.29416298"><ele>1785.800049</ele><time>2011-11-12T12:42:00Z</time></trkpt>
<trkpt lat="46.17030496" lon="7.29363794"><ele>1778</ele><time>2011-11-12T12:42:05Z</time></trkpt>
<trkpt lat="46.17040395" lon="7.29339293"><ele>1775.400024</ele><time>2011-11-12T12:42:08Z</time></trkpt>
<trkpt lat="46.17063998" lon="7.29290393"><ele>1766.800049</ele><time>2011-11-12T12:42:12Z</time></trkpt>
<trkpt lat="46.17074794" lon="7.29266496"><ele>1763.400024</ele><time>2011-11-12T12:42:14Z</time></trkpt>
<trkpt lat="46.17083193" lon="7.29240898"><ele>1761</ele><time>2011-11-12T12:42:18Z</time></trkpt>
<trkpt lat="46.17084693" lon="7.29224998"><ele>1760.599976</ele><time>2011-11-12T12:42:24Z</time></trkpt>
<trkpt lat="46.17085699" lon="7.29222097"><ele>1760</ele><time>2011-11-12T12:42:26Z</time></trkpt>
<trkpt lat="46.17086797" lon="7.29218594"><ele>1759.599976</ele><time>2011-11-12T12:42:28Z</time></trkpt>
<trkpt lat="46.17085800" lon="7.29215895"><ele>1760</ele><time>2011-11-12T12:42:32Z</time></trkpt>
<trkpt lat="46.17083696" lon="7.29209592"><ele>1761.199951</ele><time>2011-11-12T12:43:39Z</time></trkpt>
<trkpt lat="46.17081994" lon="7.29152394"><ele>1761.400024</ele><time>2011-11-12T12:43:47Z</time></trkpt>
<trkpt lat="46.17081097" lon="7.29092496"><ele>1756.800049</ele><time>2011-11-12T12:43:52Z</time></trkpt>
<trkpt lat="46.17081399" lon="7.29068097"><ele>1754.599976</ele><time>2011-11-12T12:43:54Z</time></trkpt>
<trkpt lat="46.17080100" lon="7.29039297"><ele>1753.199951</ele><time>2011-11-12T12:43:57Z</time></trkpt>
<trkpt lat="46.17079094" lon="7.28990899"><ele>1749</ele><time>2011-11-12T12:44:02Z</time></trkpt>
<trkpt lat="46.17078993" lon="7.28980196"><ele>1747.199951</ele><time>2011-11-12T12:44:03Z</time></trkpt>
<trkpt lat="46.17069698" lon="7.28940994"><ele>1746.199951</ele><time>2011-11-12T12:44:07Z</time></trkpt>
<trkpt lat="46.17061794" lon="7.28904993"><ele>1745.400024</ele><time>2011-11-12T12:44:10Z</time></trkpt>
<trkpt lat="46.17060897" lon="7.28878599"><ele>1742.400024</ele><time>2011-11-12T12:44:12Z</time></trkpt>
<trkpt lat="46.17058198" lon="7.28826094"><ele>1737.199951</ele><time>2011-11-12T12:44:16Z</time></trkpt>
<trkpt lat="46.17058198" lon="7.28751596"><ele>1732.400024</ele><time>2011-11-12T12:44:21Z</time></trkpt>
<trkpt lat="46.17067594" lon="7.28649798"><ele>1725.199951</ele><time>2011-11-12T12:44:27Z</time></trkpt>
<trkpt lat="46.17070595" lon="7.28617092"><ele>1724</ele><time>2011-11-12T12:44:29Z</time></trkpt>
<trkpt lat="46.17071399" lon="7.28568996"><ele>1722.400024</ele><time>2011-11-12T12:44:32Z</time></trkpt>
<trkpt lat="46.17079295" lon="7.28514799"><ele>1714.800049</ele><time>2011-11-12T12:44:36Z</time></trkpt>
<trkpt lat="46.17072992" lon="7.28482797"><ele>1713.400024</ele><time>2011-11-12T12:44:39Z</time></trkpt>
<trkpt lat="46.17063596" lon="7.28459193"><ele>1713.400024</ele><time>2011-11-12T12:44:41Z</time></trkpt>
<trkpt lat="46.17050998" lon="7.28405398"><ele>1709.599976</ele><time>2011-11-12T12:44:45Z</time></trkpt>
<trkpt lat="46.17042893" lon="7.28374796"><ele>1707.599976</ele><time>2011-11-12T12:44:49Z</time></trkpt>
<trkpt lat="46.17043496" lon="7.28367093"><ele>1705.800049</ele><time>2011-11-12T12:44:53Z</time></trkpt>
<trkpt lat="46.17048198" lon="7.28376196"><ele>1705.400024</ele><time>2011-11-12T12:46:25Z</time></trkpt>
<trkpt lat="46.17048793" lon="7.28378098"><ele>1705.400024</ele><time>2011-11-12T12:46:26Z</time></trkpt>
<trkpt lat="46.17054694" lon="7.28390093"><ele>1705</ele><time>2011-11-12T12:46:31Z</time></trkpt>
<trkpt lat="46.17072497" lon="7.28425096"><ele>1703.400024</ele><time>2011-11-12T12:46:36Z</time></trkpt>
<trkpt lat="46.17082195" lon="7.28446595"><ele>1702.800049</ele><time>2011-11-12T12:46:38Z</time></trkpt>
<trkpt lat="46.17111599" lon="7.28477692"><ele>1692.599976</ele><time>2011-11-12T12:46:42Z</time></trkpt>
<trkpt lat="46.17120299" lon="7.28491195"><ele>1690.400024</ele><time>2011-11-12T12:46:44Z</time></trkpt>
<trkpt lat="46.17123292" lon="7.28500600"><ele>1690.400024</ele><time>2011-11-12T12:46:45Z</time></trkpt>
<trkpt lat="46.17129696" lon="7.28521295"><ele>1689.199951</ele><time>2011-11-12T12:46:47Z</time></trkpt>
<trkpt lat="46.17143794" lon="7.28588392"><ele>1689.199951</ele><time>2011-11-12T12:46:52Z</time></trkpt>
<trkpt lat="46.17150399" lon="7.28639195"><ele>1686.400024</ele><time>2011-11-12T12:46:56Z</time></trkpt>
<trkpt lat="46.17151799" lon="7.28674600"><ele>1686.199951</ele><time>2011-11-12T12:46:59Z</time></trkpt>
<trkpt lat="46.17151799" lon="7.28685496"><ele>1686.199951</ele><time>2011-11-12T12:47:00Z</time></trkpt>
<trkpt lat="46.17153592" lon="7.28710198"><ele>1685.599976</ele><time>2011-11-12T12:47:04Z</time></trkpt>
<trkpt lat="46.17157096" lon="7.28708094"><ele>1684</ele><time>2011-11-12T12:47:08Z</time></trkpt>
<trkpt lat="46.17159393" lon="7.28701397"><ele>1682.800049</ele><time>2011-11-12T12:47:10Z</time></trkpt>
<trkpt lat="46.17167800" lon="7.28670392"><ele>1678.400024</ele><time>2011-11-12T12:47:16Z</time></trkpt>
<trkpt lat="46.17174597" lon="7.28653494"><ele>1675.199951</ele><time>2011-11-12T12:47:20Z</time></trkpt>
<trkpt lat="46.17177598" lon="7.28636395"><ele>1673.400024</ele><time>2011-11-12T12:47:24Z</time></trkpt>
<trkpt lat="46.17178897" lon="7.28600194"><ele>1672</ele><time>2011-11-12T12:47:29Z</time></trkpt>
<trkpt lat="46.17179492" lon="7.28560296"><ele>1668.199951</ele><time>2011-11-12T12:47:33Z</time></trkpt>
<trkpt lat="46.17178998" lon="7.28528093"><ele>1664.400024</ele><time>2011-11-12T12:47:36Z</time></trkpt>
<trkpt lat="46.17174195" lon="7.28472697"><ele>1658</ele><time>2011-11-12T12:47:41Z</time></trkpt>
<trkpt lat="46.17166199" lon="7.28425599"><ele>1652.800049</ele><time>2011-11-12T12:47:45Z</time></trkpt>
<trkpt lat="46.17166794" lon="7.28372994"><ele>1646.199951</ele><time>2011-11-12T12:47:49Z</time></trkpt>
<trkpt lat="46.17180398" lon="7.28317095"><ele>1638</ele><time>2011-11-12T12:47:53Z</time></trkpt>
<trkpt lat="46.17199995" lon="7.28272797"><ele>1634.199951</ele><time>2011-11-12T12:47:57Z</time></trkpt>
<trkpt lat="46.17226892" lon="7.28234399"><ele>1630.199951</ele><time>2011-11-12T12:48:01Z</time></trkpt>
<trkpt lat="46.17243497" lon="7.28217392"><ele>1627.400024</ele><time>2011-11-12T12:48:04Z</time></trkpt>
<trkpt lat="46.17269397" lon="7.28200394"><ele>1622</ele><time>2011-11-12T12:48:08Z</time></trkpt>
<trkpt lat="46.17288893" lon="7.28168492"><ele>1618.199951</ele><time>2011-11-12T12:48:12Z</time></trkpt>
<trkpt lat="46.17287200" lon="7.28135493"><ele>1616.199951</ele><time>2011-11-12T12:48:15Z</time></trkpt>
<trkpt lat="46.17284199" lon="7.28124596"><ele>1616.199951</ele><time>2011-11-12T12:48:16Z</time></trkpt>
<trkpt lat="46.17271593" lon="7.28077096"><ele>1616.400024</ele><time>2011-11-12T12:48:21Z</time></trkpt>
<trkpt lat="46.17269900" lon="7.28069100"><ele>1616.800049</ele><time>2011-11-12T12:48:22Z</time></trkpt>
<trkpt lat="46.17270495" lon="7.28032999"><ele>1615.400024</ele><time>2011-11-12T12:48:26Z</time></trkpt>
<trkpt lat="46.17275893" lon="7.28011097"><ele>1613.199951</ele><time>2011-11-12T12:48:30Z</time></trkpt>
<trkpt lat="46.17279095" lon="7.28006294"><ele>1612</ele><time>2011-11-12T12:48:35Z</time></trkpt>
<trkpt lat="46.17279195" lon="7.28006395"><ele>1612</ele><time>2011-11-12T12:48:36Z</time></trkpt>
<trkpt lat="46.17278692" lon="7.28009798"><ele>1612.199951</ele><time>2011-11-12T12:48:49Z</time></trkpt>
<trkpt lat="46.17280696" lon="7.27989597"><ele>1611.599976</ele><time>2011-11-12T12:49:50Z</time></trkpt>
<trkpt lat="46.17283797" lon="7.27977695"><ele>1610.800049</ele><time>2011-11-12T12:49:52Z</time></trkpt>
<trkpt lat="46.17283495" lon="7.27934293"><ele>1611.800049</ele><time>2011-11-12T12:49:57Z</time></trkpt>
<trkpt lat="46.17282095" lon="7.27912894"><ele>1612.400024</ele><time>2011-11-12T12:49:59Z</time></trkpt>
<trkpt lat="46.17289999" lon="7.27874396"><ele>1607.599976</ele><time>2011-11-12T12:50:03Z</time></trkpt>
<trkpt lat="46.17298599" lon="7.27857599"><ele>1604.199951</ele><time>2011-11-12T12:50:05Z</time></trkpt>
<trkpt lat="46.17304794" lon="7.27815497"><ele>1600</ele><time>2011-11-12T12:50:09Z</time></trkpt>
<trkpt lat="46.17301994" lon="7.27804894"><ele>1599.800049</ele><time>2011-11-12T12:50:10Z</time></trkpt>
<trkpt lat="46.17284593" lon="7.27742499"><ele>1600.400024</ele><time>2011-11-12T12:50:15Z</time></trkpt>
<trkpt lat="46.17280897" lon="7.27683499"><ele>1602.400024</ele><time>2011-11-12T12:50:19Z</time></trkpt>
<trkpt lat="46.17290494" lon="7.27643592"><ele>1597.800049</ele><time>2011-11-12T12:50:22Z</time></trkpt>
<trkpt lat="46.17297594" lon="7.27605497"><ele>1593.599976</ele><time>2011-11-12T12:50:26Z</time></trkpt>
<trkpt lat="46.17292497" lon="7.27550494"><ele>1590</ele><time>2011-11-12T12:50:30Z</time></trkpt>
<trkpt lat="46.17279598" lon="7.27481495"><ele>1584.599976</ele><time>2011-11-12T12:50:35Z</time></trkpt>
<trkpt lat="46.17269497" lon="7.27436199"><ele>1579.800049</ele><time>2011-11-12T12:50:38Z</time></trkpt>
<trkpt lat="46.17262700" lon="7.27377995"><ele>1574.599976</ele><time>2011-11-12T12:50:43Z</time></trkpt>
<trkpt lat="46.17262297" lon="7.27318299"><ele>1569.400024</ele><time>2011-11-12T12:50:48Z</time></trkpt>
<trkpt lat="46.17254100" lon="7.27243599"><ele>1566.199951</ele><time>2011-11-12T12:50:53Z</time></trkpt>
<trkpt lat="46.17253396" lon="7.27209393"><ele>1563.400024</ele><time>2011-11-12T12:50:55Z</time></trkpt>
<trkpt lat="46.17258794" lon="7.27148096"><ele>1558.800049</ele><time>2011-11-12T12:50:59Z</time></trkpt>
<trkpt lat="46.17260395" lon="7.27135993"><ele>1558.599976</ele><time>2011-11-12T12:51:00Z</time></trkpt>
<trkpt lat="46.17262792" lon="7.27085492"><ele>1558.599976</ele><time>2011-11-12T12:51:04Z</time></trkpt>
<trkpt lat="46.17259297" lon="7.27058896"><ele>1559.800049</ele><time>2011-11-12T12:51:06Z</time></trkpt>
<trkpt lat="46.17253295" lon="7.27004095"><ele>1561.599976</ele><time>2011-11-12T12:51:10Z</time></trkpt>
<trkpt lat="46.17259095" lon="7.26993299"><ele>1558.599976</ele><time>2011-11-12T12:51:11Z</time></trkpt>
<trkpt lat="46.17276597" lon="7.26949797"><ele>1548.400024</ele><time>2011-11-12T12:51:15Z</time></trkpt>
<trkpt lat="46.17278994" lon="7.26897100"><ele>1543.800049</ele><time>2011-11-12T12:51:19Z</time></trkpt>
<trkpt lat="46.17270998" lon="7.26824194"><ele>1541.800049</ele><time>2011-11-12T12:51:24Z</time></trkpt>
<trkpt lat="46.17271593" lon="7.26808797"><ele>1540.800049</ele><time>2011-11-12T12:51:25Z</time></trkpt>
<trkpt lat="46.17263094" lon="7.26730694"><ele>1540</ele><time>2011-11-12T12:51:30Z</time></trkpt>
<trkpt lat="46.17261300" lon="7.26660999"><ele>1537</ele><time>2011-11-12T12:51:34Z</time></trkpt>
<trkpt lat="46.17266094" lon="7.26609894"><ele>1529.599976</ele><time>2011-11-12T12:51:37Z</time></trkpt>
<trkpt lat="46.17256598" lon="7.26579895"><ele>1531.400024</ele><time>2011-11-12T12:51:39Z</time></trkpt>
<trkpt lat="46.17240496" lon="7.26537692"><ele>1531</ele><time>2011-11-12T12:51:43Z</time></trkpt>
<trkpt lat="46.17247998" lon="7.26519596"><ele>1522.599976</ele><time>2011-11-12T12:51:47Z</time></trkpt>
<trkpt lat="46.17245198" lon="7.26512597"><ele>1522.800049</ele><time>2011-11-12T12:51:49Z</time></trkpt>
<trkpt lat="46.17234092" lon="7.26485498"><ele>1523</ele><time>2011-11-12T12:51:56Z</time></trkpt>
<trkpt lat="46.17221192" lon="7.26454594"><ele>1522.199951</ele><time>2011-11-12T12:52:01Z</time></trkpt>
<trkpt lat="46.17205292" lon="7.26417395"><ele>1521</ele><time>2011-11-12T12:52:05Z</time></trkpt>
<trkpt lat="46.17190992" lon="7.26383097"><ele>1518</ele><time>2011-11-12T12:52:08Z</time></trkpt>
<trkpt lat="46.17176400" lon="7.26344892"><ele>1514</ele><time>2011-11-12T12:52:11Z</time></trkpt>
<trkpt lat="46.17146493" lon="7.26285196"><ele>1519.800049</ele><time>2011-11-12T12:52:16Z</time></trkpt>
<trkpt lat="46.17113795" lon="7.26207395"><ele>1519.800049</ele><time>2011-11-12T12:52:22Z</time></trkpt>
<trkpt lat="46.17102999" lon="7.26180397"><ele>1519</ele><time>2011-11-12T12:52:24Z</time></trkpt>
<trkpt lat="46.17075498" lon="7.26098598"><ele>1514.400024</ele><time>2011-11-12T12:52:30Z</time></trkpt>
<trkpt lat="46.17055893" lon="7.26007495"><ele>1509.400024</ele><time>2011-11-12T12:52:37Z</time></trkpt>
<trkpt lat="46.17055893" lon="7.26007495"><ele>1509.400024</ele><time>2011-11-12T12:52:42Z</time></trkpt>
<trkpt lat="46.17029398" lon="7.25889998"><ele>1509.800049</ele><time>2011-11-12T12:52:47Z</time></trkpt>
<trkpt lat="46.17010195" lon="7.25808098"><ele>1504.599976</ele><time>2011-11-12T12:52:53Z</time></trkpt>
<trkpt lat="46.16991193" lon="7.25737900"><ele>1500.400024</ele><time>2011-11-12T12:52:59Z</time></trkpt>
<trkpt lat="46.16967900" lon="7.25652094"><ele>1501</ele><time>2011-11-12T12:53:06Z</time></trkpt>
<trkpt lat="46.16964698" lon="7.25639999"><ele>1501.199951</ele><time>2011-11-12T12:53:07Z</time></trkpt>
<trkpt lat="46.16955092" lon="7.25588299"><ele>1496.800049</ele><time>2011-11-12T12:53:11Z</time></trkpt>
<trkpt lat="46.16939695" lon="7.25512393"><ele>1486</ele><time>2011-11-12T12:53:17Z</time></trkpt>
<trkpt lat="46.16928295" lon="7.25488697"><ele>1484.599976</ele><time>2011-11-12T12:53:19Z</time></trkpt>
<trkpt lat="46.16880292" lon="7.25414794"><ele>1486.199951</ele><time>2011-11-12T12:53:26Z</time></trkpt>
<trkpt lat="46.16844200" lon="7.25351293"><ele>1482.400024</ele><time>2011-11-12T12:53:32Z</time></trkpt>
<trkpt lat="46.16832297" lon="7.25330296"><ele>1480.599976</ele><time>2011-11-12T12:53:34Z</time></trkpt>
<trkpt lat="46.16784998" lon="7.25274799"><ele>1480</ele><time>2011-11-12T12:53:40Z</time></trkpt>
<trkpt lat="46.16735897" lon="7.25218892"><ele>1477</ele><time>2011-11-12T12:53:46Z</time></trkpt>
<trkpt lat="46.16710894" lon="7.25190293"><ele>1477.800049</ele><time>2011-11-12T12:53:49Z</time></trkpt>
<trkpt lat="46.16686000" lon="7.25165499"><ele>1476.199951</ele><time>2011-11-12T12:53:52Z</time></trkpt>
<trkpt lat="46.16650695" lon="7.25148694"><ele>1477.599976</ele><time>2011-11-12T12:53:57Z</time></trkpt>
<trkpt lat="46.16671893" lon="7.25151292"><ele>1473.599976</ele><time>2011-11-12T12:54:01Z</time></trkpt>
<trkpt lat="46.16583900" lon="7.25112492"><ele>1473.599976</ele><time>2011-11-12T12:54:05Z</time></trkpt>
<trkpt lat="46.16537095" lon="7.25091395"><ele>1469.199951</ele><time>2011-11-12T12:54:10Z</time></trkpt>
<trkpt lat="46.16505596" lon="7.25076400"><ele>1468.199951</ele><time>2011-11-12T12:54:13Z</time></trkpt>
<trkpt lat="46.16466897" lon="7.25053894"><ele>1451.800049</ele><time>2011-11-12T12:54:17Z</time></trkpt>
<trkpt lat="46.16438499" lon="7.25041992"><ele>1442.199951</ele><time>2011-11-12T12:54:21Z</time></trkpt>
<trkpt lat="46.16426295" lon="7.25042193"><ele>1440.400024</ele><time>2011-11-12T12:54:23Z</time></trkpt>
<trkpt lat="46.16384494" lon="7.25061899"><ele>1435</ele><time>2011-11-12T12:54:29Z</time></trkpt>
<trkpt lat="46.16367999" lon="7.25070993"><ele>1432.599976</ele><time>2011-11-12T12:54:32Z</time></trkpt>
<trkpt lat="46.16334395" lon="7.25089593"><ele>1427.599976</ele><time>2011-11-12T12:54:38Z</time></trkpt>
<trkpt lat="46.16327799" lon="7.25093298"><ele>1426.599976</ele><time>2011-11-12T12:54:39Z</time></trkpt>
<trkpt lat="46.16299795" lon="7.25117597"><ele>1425.400024</ele><time>2011-11-12T12:54:43Z</time></trkpt>
<trkpt lat="46.16295998" lon="7.25126096"><ele>1427.199951</ele><time>2011-11-12T12:54:44Z</time></trkpt>
<trkpt lat="46.16260098" lon="7.25197200"><ele>1445.599976</ele><time>2011-11-12T12:54:49Z</time></trkpt>
<trkpt lat="46.16230393" lon="7.25206998"><ele>1443.599976</ele><time>2011-11-12T12:54:53Z</time></trkpt>
<trkpt lat="46.16221994" lon="7.25209496"><ele>1443.400024</ele><time>2011-11-12T12:54:54Z</time></trkpt>
<trkpt lat="46.16186497" lon="7.25216294"><ele>1440.199951</ele><time>2011-11-12T12:54:58Z</time></trkpt>
<trkpt lat="46.16133892" lon="7.25233695"><ele>1440.400024</ele><time>2011-11-12T12:55:03Z</time></trkpt>
<trkpt lat="46.16067499" lon="7.25252897"><ele>1439.599976</ele><time>2011-11-12T12:55:08Z</time></trkpt>
<trkpt lat="46.16015799" lon="7.25238900"><ele>1426</ele><time>2011-11-12T12:55:12Z</time></trkpt>
<trkpt lat="46.15990293" lon="7.25217593"><ele>1409.199951</ele><time>2011-11-12T12:55:14Z</time></trkpt>
<trkpt lat="46.15937797" lon="7.25204299"><ele>1389.400024</ele><time>2011-11-12T12:55:18Z</time></trkpt>
<trkpt lat="46.15915795" lon="7.25213394"><ele>1387.199951</ele><time>2011-11-12T12:55:20Z</time></trkpt>
<trkpt lat="46.15872192" lon="7.25247500"><ele>1369.199951</ele><time>2011-11-12T12:55:25Z</time></trkpt>
<trkpt lat="46.15835597" lon="7.25319693"><ele>1358.800049</ele><time>2011-11-12T12:55:31Z</time></trkpt>
<trkpt lat="46.15825195" lon="7.25354193"><ele>1357.199951</ele><time>2011-11-12T12:55:33Z</time></trkpt>
<trkpt lat="46.15819998" lon="7.25378794"><ele>1357.800049</ele><time>2011-11-12T12:55:35Z</time></trkpt>
<trkpt lat="46.15811599" lon="7.25392993"><ele>1354.800049</ele><time>2011-11-12T12:55:38Z</time></trkpt>
<trkpt lat="46.15798499" lon="7.25428096"><ele>1356.199951</ele><time>2011-11-12T12:55:39Z</time></trkpt>
<trkpt lat="46.15814592" lon="7.25486593"><ele>1390.599976</ele><time>2011-11-12T12:55:43Z</time></trkpt>
<trkpt lat="46.15786194" lon="7.25500792"><ele>1382</ele><time>2011-11-12T12:55:46Z</time></trkpt>
<trkpt lat="46.15767695" lon="7.25513893"><ele>1380.400024</ele><time>2011-11-12T12:55:48Z</time></trkpt>
<trkpt lat="46.15721494" lon="7.25552299"><ele>1381.800049</ele><time>2011-11-12T12:55:53Z</time></trkpt>
<trkpt lat="46.15699994" lon="7.25562793"><ele>1377.599976</ele><time>2011-11-12T12:55:55Z</time></trkpt>
<trkpt lat="46.15663994" lon="7.25587092"><ele>1372.800049</ele><time>2011-11-12T12:55:59Z</time></trkpt>
<trkpt lat="46.15649695" lon="7.25602599"><ele>1374.800049</ele><time>2011-11-12T12:56:01Z</time></trkpt>
<trkpt lat="46.15617994" lon="7.25629094"><ele>1374.400024</ele><time>2011-11-12T12:56:05Z</time></trkpt>
<trkpt lat="46.15587794" lon="7.25636495"><ele>1365.400024</ele><time>2011-11-12T12:56:09Z</time></trkpt>
<trkpt lat="46.15566395" lon="7.25637300"><ele>1358.800049</ele><time>2011-11-12T12:56:12Z</time></trkpt>
<trkpt lat="46.15526497" lon="7.25643494"><ele>1348.800049</ele><time>2011-11-12T12:56:17Z</time></trkpt>
<trkpt lat="46.15520395" lon="7.25651792"><ele>1349.400024</ele><time>2011-11-12T12:56:18Z</time></trkpt>
<trkpt lat="46.15488100" lon="7.25725193"><ele>1353</ele><time>2011-11-12T12:56:25Z</time></trkpt>
<trkpt lat="46.15458193" lon="7.25777898"><ele>1348.199951</ele><time>2011-11-12T12:56:30Z</time></trkpt>
<trkpt lat="46.15436694" lon="7.25808199"><ele>1343.599976</ele><time>2011-11-12T12:56:33Z</time></trkpt>
<trkpt lat="46.15422998" lon="7.25837393"><ele>1341.599976</ele><time>2011-11-12T12:56:36Z</time></trkpt>
<trkpt lat="46.15427499" lon="7.25871993"><ele>1341</ele><time>2011-11-12T12:56:39Z</time></trkpt>
<trkpt lat="46.15442896" lon="7.25901900"><ele>1346.199951</ele><time>2011-11-12T12:56:42Z</time></trkpt>
<trkpt lat="46.15455494" lon="7.25958696"><ele>1350.400024</ele><time>2011-11-12T12:56:47Z</time></trkpt>
<trkpt lat="46.15457397" lon="7.25996993"><ele>1350.199951</ele><time>2011-11-12T12:56:50Z</time></trkpt>
<trkpt lat="46.15449895" lon="7.26025994"><ele>1358.199951</ele><time>2011-11-12T12:56:53Z</time></trkpt>
<trkpt lat="46.15441094" lon="7.26033496"><ele>1358.800049</ele><time>2011-11-12T12:56:55Z</time></trkpt>
<trkpt lat="46.15399394" lon="7.26050394"><ele>1358.800049</ele><time>2011-11-12T12:57:03Z</time></trkpt>
<trkpt lat="46.15399394" lon="7.26050394"><ele>1358.800049</ele><time>2011-11-12T12:57:05Z</time></trkpt>
<trkpt lat="46.15399394" lon="7.26050394"><ele>1358.800049</ele><time>2011-11-12T12:57:11Z</time></trkpt>
<trkpt lat="46.15231999" lon="7.26050394"><ele>1351.599976</ele><time>2011-11-12T12:57:21Z</time></trkpt>
<trkpt lat="46.15231999" lon="7.26050394"><ele>1351.599976</ele><time>2011-11-12T12:57:23Z</time></trkpt>
<trkpt lat="46.15161499" lon="7.26035097"><ele>1333.199951</ele><time>2011-11-12T12:57:27Z</time></trkpt>
<trkpt lat="46.15143595" lon="7.26024393"><ele>1323</ele><time>2011-11-12T12:57:30Z</time></trkpt>
<trkpt lat="46.15130000" lon="7.26028299"><ele>1320.199951</ele><time>2011-11-12T12:57:32Z</time></trkpt>
<trkpt lat="46.15091292" lon="7.26081097"><ele>1332</ele><time>2011-11-12T12:57:38Z</time></trkpt>
<trkpt lat="46.15084997" lon="7.26091499"><ele>1335</ele><time>2011-11-12T12:57:39Z</time></trkpt>
<trkpt lat="46.15063699" lon="7.26111598"><ele>1335.400024</ele><time>2011-11-12T12:57:42Z</time></trkpt>
<trkpt lat="46.15056197" lon="7.26113493"><ele>1333</ele><time>2011-11-12T12:57:43Z</time></trkpt>
<trkpt lat="46.15004397" lon="7.26118798"><ele>1313.599976</ele><time>2011-11-12T12:57:49Z</time></trkpt>
<trkpt lat="46.14994892" lon="7.26121699"><ele>1311.400024</ele><time>2011-11-12T12:57:50Z</time></trkpt>
<trkpt lat="46.14950694" lon="7.26143198"><ele>1306</ele><time>2011-11-12T12:57:55Z</time></trkpt>
<trkpt lat="46.14933997" lon="7.26155897"><ele>1304.599976</ele><time>2011-11-12T12:57:57Z</time></trkpt>
<trkpt lat="46.14912699" lon="7.26181797"><ele>1305.599976</ele><time>2011-11-12T12:58:00Z</time></trkpt>
<trkpt lat="46.14902599" lon="7.26205300"><ele>1309.400024</ele><time>2011-11-12T12:58:02Z</time></trkpt>
<trkpt lat="46.14887193" lon="7.26246597"><ele>1313.599976</ele><time>2011-11-12T12:58:06Z</time></trkpt>
<trkpt lat="46.14873497" lon="7.26262992"><ele>1315.400024</ele><time>2011-11-12T12:58:08Z</time></trkpt>
<trkpt lat="46.14844797" lon="7.26287099"><ele>1315.599976</ele><time>2011-11-12T12:58:12Z</time></trkpt>
<trkpt lat="46.14824697" lon="7.26298699"><ele>1316.599976</ele><time>2011-11-12T12:58:15Z</time></trkpt>
<trkpt lat="46.14808395" lon="7.26306000"><ele>1319.400024</ele><time>2011-11-12T12:58:18Z</time></trkpt>
<trkpt lat="46.14798194" lon="7.26304994"><ele>1318.599976</ele><time>2011-11-12T12:58:22Z</time></trkpt>
<trkpt lat="46.14793894" lon="7.26296796"><ele>1315</ele><time>2011-11-12T12:58:26Z</time></trkpt>
<trkpt lat="46.14793894" lon="7.26296796"><ele>1315</ele><time>2011-11-12T12:58:27Z</time></trkpt>
<trkpt lat="46.14794296" lon="7.26297098"><ele>1315.199951</ele><time>2011-11-12T12:58:42Z</time></trkpt>
<trkpt lat="46.14807095" lon="7.26306494"><ele>1319.599976</ele><time>2011-11-12T12:58:43Z</time></trkpt>
<trkpt lat="46.14836197" lon="7.26292798"><ele>1314.800049</ele><time>2011-11-12T12:58:49Z</time></trkpt>
<trkpt lat="46.14841796" lon="7.26289093"><ele>1315.400024</ele><time>2011-11-12T12:58:50Z</time></trkpt>
<trkpt lat="46.14866599" lon="7.26269899"><ele>1316</ele><time>2011-11-12T12:58:54Z</time></trkpt>
<trkpt lat="46.14892893" lon="7.26233999"><ele>1313.199951</ele><time>2011-11-12T12:58:58Z</time></trkpt>
<trkpt lat="46.14906195" lon="7.26191595"><ele>1306.599976</ele><time>2011-11-12T12:59:03Z</time></trkpt>
<trkpt lat="46.14914493" lon="7.26179098"><ele>1305.199951</ele><time>2011-11-12T12:59:05Z</time></trkpt>
<trkpt lat="46.14938096" lon="7.26151194"><ele>1304.599976</ele><time>2011-11-12T12:59:10Z</time></trkpt>
<trkpt lat="46.14951298" lon="7.26142796"><ele>1306</ele><time>2011-11-12T12:59:12Z</time></trkpt>
<trkpt lat="46.14976192" lon="7.26129896"><ele>1309</ele><time>2011-11-12T12:59:16Z</time></trkpt>
<trkpt lat="46.15002796" lon="7.26119192"><ele>1313</ele><time>2011-11-12T12:59:20Z</time></trkpt>
<trkpt lat="46.15018495" lon="7.26115194"><ele>1318</ele><time>2011-11-12T12:59:22Z</time></trkpt>
<trkpt lat="46.15039299" lon="7.26025499"><ele>1289.199951</ele><time>2011-11-12T12:59:26Z</time></trkpt>
<trkpt lat="46.15069399" lon="7.25998694"><ele>1287.199951</ele><time>2011-11-12T12:59:30Z</time></trkpt>
<trkpt lat="46.15096900" lon="7.25968796"><ele>1286.599976</ele><time>2011-11-12T12:59:34Z</time></trkpt>
<trkpt lat="46.15101694" lon="7.25957899"><ele>1284.199951</ele><time>2011-11-12T12:59:35Z</time></trkpt>
<trkpt lat="46.15106497" lon="7.25932896"><ele>1276.599976</ele><time>2011-11-12T12:59:37Z</time></trkpt>
<trkpt lat="46.15123395" lon="7.25889193"><ele>1262.599976</ele><time>2011-11-12T12:59:41Z</time></trkpt>
<trkpt lat="46.15138499" lon="7.25889696"><ele>1264.599976</ele><time>2011-11-12T12:59:43Z</time></trkpt>
<trkpt lat="46.15146596" lon="7.25891699"><ele>1266.400024</ele><time>2011-11-12T12:59:44Z</time></trkpt>
<trkpt lat="46.15189897" lon="7.25910592"><ele>1277</ele><time>2011-11-12T12:59:49Z</time></trkpt>
<trkpt lat="46.15235193" lon="7.25931999"><ele>1288.400024</ele><time>2011-11-12T12:59:54Z</time></trkpt>
<trkpt lat="46.15261294" lon="7.25949492"><ele>1301.199951</ele><time>2011-11-12T12:59:58Z</time></trkpt>
<trkpt lat="46.15279793" lon="7.25951395"><ele>1306.199951</ele><time>2011-11-12T13:00:03Z</time></trkpt>
<trkpt lat="46.15287898" lon="7.25938797"><ele>1301.800049</ele><time>2011-11-12T13:00:06Z</time></trkpt>
<trkpt lat="46.15289994" lon="7.25936693"><ele>1301.400024</ele><time>2011-11-12T13:00:07Z</time></trkpt>
<trkpt lat="46.15289197" lon="7.25880199"><ele>1286.400024</ele><time>2011-11-12T13:00:14Z</time></trkpt>
<trkpt lat="46.15280396" lon="7.25822096"><ele>1274.199951</ele><time>2011-11-12T13:00:20Z</time></trkpt>
<trkpt lat="46.15278997" lon="7.25811493"><ele>1272.599976</ele><time>2011-11-12T13:00:21Z</time></trkpt>
<trkpt lat="46.15273196" lon="7.25769198"><ele>1267.199951</ele><time>2011-11-12T13:00:25Z</time></trkpt>
<trkpt lat="46.15270698" lon="7.25746399"><ele>1264.599976</ele><time>2011-11-12T13:00:29Z</time></trkpt>
<trkpt lat="46.15227699" lon="7.25716199"><ele>1246</ele><time>2011-11-12T13:00:33Z</time></trkpt>
<trkpt lat="46.15216996" lon="7.25680400"><ele>1239.800049</ele><time>2011-11-12T13:00:37Z</time></trkpt>
<trkpt lat="46.15219996" lon="7.25657492"><ele>1237.599976</ele><time>2011-11-12T13:00:39Z</time></trkpt>
<trkpt lat="46.15234095" lon="7.25643896"><ele>1239.400024</ele><time>2011-11-12T13:00:41Z</time></trkpt>
<trkpt lat="46.15262895" lon="7.25630796"><ele>1246</ele><time>2011-11-12T13:00:45Z</time></trkpt>
<trkpt lat="46.15282995" lon="7.25619597"><ele>1249.400024</ele><time>2011-11-12T13:00:48Z</time></trkpt>
<trkpt lat="46.15292097" lon="7.25593697"><ele>1246</ele><time>2011-11-12T13:00:51Z</time></trkpt>
<trkpt lat="46.15292097" lon="7.25582994"><ele>1243.400024</ele><time>2011-11-12T13:00:52Z</time></trkpt>
<trkpt lat="46.15280698" lon="7.25537899"><ele>1232</ele><time>2011-11-12T13:00:57Z</time></trkpt>
<trkpt lat="46.15273397" lon="7.25515293"><ele>1225.400024</ele><time>2011-11-12T13:01:00Z</time></trkpt>
<trkpt lat="46.15273800" lon="7.25484800"><ele>1220.599976</ele><time>2011-11-12T13:01:05Z</time></trkpt>
<trkpt lat="46.15276298" lon="7.25466393"><ele>1218.599976</ele><time>2011-11-12T13:01:09Z</time></trkpt>
<trkpt lat="46.15277194" lon="7.25459394"><ele>1217.800049</ele><time>2011-11-12T13:01:10Z</time></trkpt>
<trkpt lat="46.15282894" lon="7.25431398"><ele>1215.599976</ele><time>2011-11-12T13:01:13Z</time></trkpt>
<trkpt lat="46.15301896" lon="7.25417795"><ele>1221.199951</ele><time>2011-11-12T13:01:16Z</time></trkpt>
<trkpt lat="46.15304695" lon="7.25401492"><ele>1219</ele><time>2011-11-12T13:01:18Z</time></trkpt>
<trkpt lat="46.15304394" lon="7.25355400"><ele>1208.800049</ele><time>2011-11-12T13:01:23Z</time></trkpt>
<trkpt lat="46.15313597" lon="7.25335593"><ele>1208</ele><time>2011-11-12T13:01:25Z</time></trkpt>
<trkpt lat="46.15340193" lon="7.25314798"><ele>1210.199951</ele><time>2011-11-12T13:01:29Z</time></trkpt>
<trkpt lat="46.15349798" lon="7.25315695"><ele>1211.800049</ele><time>2011-11-12T13:01:30Z</time></trkpt>
<trkpt lat="46.15401196" lon="7.25322995"><ele>1220.400024</ele><time>2011-11-12T13:01:36Z</time></trkpt>
<trkpt lat="46.15414993" lon="7.25318494"><ele>1221.599976</ele><time>2011-11-12T13:01:39Z</time></trkpt>
<trkpt lat="46.15417097" lon="7.25310699"><ele>1220.800049</ele><time>2011-11-12T13:01:40Z</time></trkpt>
<trkpt lat="46.15417097" lon="7.25294396"><ele>1218.400024</ele><time>2011-11-12T13:01:45Z</time></trkpt>
<trkpt lat="46.15416594" lon="7.25290993"><ele>1217.800049</ele><time>2011-11-12T13:01:46Z</time></trkpt>
<trkpt lat="46.15410492" lon="7.25265797"><ele>1212.599976</ele><time>2011-11-12T13:01:50Z</time></trkpt>
<trkpt lat="46.15397299" lon="7.25243200"><ele>1206</ele><time>2011-11-12T13:01:53Z</time></trkpt>
<trkpt lat="46.15375799" lon="7.25209194"><ele>1196.400024</ele><time>2011-11-12T13:01:57Z</time></trkpt>
<trkpt lat="46.15360796" lon="7.25183495"><ele>1188.800049</ele><time>2011-11-12T13:02:00Z</time></trkpt>
<trkpt lat="46.15364693" lon="7.25150898"><ele>1184.599976</ele><time>2011-11-12T13:02:03Z</time></trkpt>
<trkpt lat="46.15369999" lon="7.25134092"><ele>1182.400024</ele><time>2011-11-12T13:02:04Z</time></trkpt>
<trkpt lat="46.15373695" lon="7.25134092"><ele>1183.599976</ele><time>2011-11-12T13:02:06Z</time></trkpt>
<trkpt lat="46.15400693" lon="7.25088092"><ele>1180.599976</ele><time>2011-11-12T13:02:11Z</time></trkpt>
<trkpt lat="46.15414892" lon="7.25080892"><ele>1182.599976</ele><time>2011-11-12T13:02:14Z</time></trkpt>
<trkpt lat="46.15429292" lon="7.25086592"><ele>1181.199951</ele><time>2011-11-12T13:02:17Z</time></trkpt>
<trkpt lat="46.15438295" lon="7.25109399"><ele>1186</ele><time>2011-11-12T13:02:20Z</time></trkpt>
<trkpt lat="46.15454094" lon="7.25143497"><ele>1194</ele><time>2011-11-12T13:02:24Z</time></trkpt>
<trkpt lat="46.15459199" lon="7.25147294"><ele>1194.400024</ele><time>2011-11-12T13:02:25Z</time></trkpt>
<trkpt lat="46.15487094" lon="7.25165499"><ele>1197.199951</ele><time>2011-11-12T13:02:30Z</time></trkpt>
<trkpt lat="46.15517898" lon="7.25179296"><ele>1197.800049</ele><time>2011-11-12T13:02:35Z</time></trkpt>
<trkpt lat="46.15541392" lon="7.25185197"><ele>1197.199951</ele><time>2011-11-12T13:02:39Z</time></trkpt>
<trkpt lat="46.15577392" lon="7.25185599"><ele>1193.800049</ele><time>2011-11-12T13:02:44Z</time></trkpt>
<trkpt lat="46.15613996" lon="7.25200695"><ele>1205.800049</ele><time>2011-11-12T13:02:49Z</time></trkpt>
<trkpt lat="46.15662695" lon="7.25166799"><ele>1208.800049</ele><time>2011-11-12T13:02:53Z</time></trkpt>
<trkpt lat="46.15665997" lon="7.25157495"><ele>1207.599976</ele><time>2011-11-12T13:02:54Z</time></trkpt>
<trkpt lat="46.15676198" lon="7.25119097"><ele>1205.400024</ele><time>2011-11-12T13:02:58Z</time></trkpt>
<trkpt lat="46.15676198" lon="7.25119097"><ele>1205.400024</ele><time>2011-11-12T13:03:02Z</time></trkpt>
<trkpt lat="46.15676198" lon="7.25119097"><ele>1205.400024</ele><time>2011-11-12T13:03:08Z</time></trkpt>
<trkpt lat="46.15676198" lon="7.25119097"><ele>1205.400024</ele><time>2011-11-12T13:03:13Z</time></trkpt>
<trkpt lat="46.15676198" lon="7.25119097"><ele>1205.400024</ele><time>2011-11-12T13:03:14Z</time></trkpt>
<trkpt lat="46.15678193" lon="7.24982196"><ele>1166.800049</ele><time>2011-11-12T13:03:19Z</time></trkpt>
<trkpt lat="46.15696792" lon="7.24971995"><ele>1171.400024</ele><time>2011-11-12T13:03:23Z</time></trkpt>
<trkpt lat="46.15698595" lon="7.24968198"><ele>1170.599976</ele><time>2011-11-12T13:03:24Z</time></trkpt>
<trkpt lat="46.15713699" lon="7.24930898"><ele>1161.199951</ele><time>2011-11-12T13:03:32Z</time></trkpt>
<trkpt lat="46.15719398" lon="7.24921997"><ele>1159.199951</ele><time>2011-11-12T13:03:34Z</time></trkpt>
<trkpt lat="46.15738593" lon="7.24903800"><ele>1157.199951</ele><time>2011-11-12T13:03:39Z</time></trkpt>
<trkpt lat="46.15756094" lon="7.24900497"><ele>1161.800049</ele><time>2011-11-12T13:03:43Z</time></trkpt>
<trkpt lat="46.15773596" lon="7.24894496"><ele>1167.800049</ele><time>2011-11-12T13:03:48Z</time></trkpt>
<trkpt lat="46.15782196" lon="7.24885594"><ele>1168</ele><time>2011-11-12T13:03:53Z</time></trkpt>
<trkpt lat="46.15789496" lon="7.24870699"><ele>1164.800049</ele><time>2011-11-12T13:03:58Z</time></trkpt>
<trkpt lat="46.15796193" lon="7.24856995"><ele>1161.400024</ele><time>2011-11-12T13:04:01Z</time></trkpt>
<trkpt lat="46.15807794" lon="7.24833299"><ele>1154.599976</ele><time>2011-11-12T13:04:06Z</time></trkpt>
<trkpt lat="46.15808993" lon="7.24830894"><ele>1154</ele><time>2011-11-12T13:04:07Z</time></trkpt>
<trkpt lat="46.15813896" lon="7.24820794"><ele>1151.400024</ele><time>2011-11-12T13:04:11Z</time></trkpt>
<trkpt lat="46.15823896" lon="7.24800392"><ele>1146</ele><time>2011-11-12T13:04:15Z</time></trkpt>
<trkpt lat="46.15835899" lon="7.24781692"><ele>1141.400024</ele><time>2011-11-12T13:04:19Z</time></trkpt>
<trkpt lat="46.15858496" lon="7.24771500"><ele>1140.800049</ele><time>2011-11-12T13:04:24Z</time></trkpt>
<trkpt lat="46.15870197" lon="7.24774098"><ele>1144</ele><time>2011-11-12T13:04:26Z</time></trkpt>
<trkpt lat="46.15898193" lon="7.24791599"><ele>1156.599976</ele><time>2011-11-12T13:04:31Z</time></trkpt>
<trkpt lat="46.15919894" lon="7.24795095"><ele>1162</ele><time>2011-11-12T13:04:35Z</time></trkpt>
<trkpt lat="46.15940999" lon="7.24788498"><ele>1162.400024</ele><time>2011-11-12T13:04:40Z</time></trkpt>
<trkpt lat="46.15946992" lon="7.24783595"><ele>1161.400024</ele><time>2011-11-12T13:04:43Z</time></trkpt>
<trkpt lat="46.15958199" lon="7.24765398"><ele>1156</ele><time>2011-11-12T13:04:49Z</time></trkpt>
<trkpt lat="46.15963798" lon="7.24736698"><ele>1147.199951</ele><time>2011-11-12T13:04:54Z</time></trkpt>
<trkpt lat="46.15964896" lon="7.24728995"><ele>1145.199951</ele><time>2011-11-12T13:04:55Z</time></trkpt>
<trkpt lat="46.15966799" lon="7.24714092"><ele>1141.400024</ele><time>2011-11-12T13:04:57Z</time></trkpt>
<trkpt lat="46.15973395" lon="7.24690497"><ele>1137.199951</ele><time>2011-11-12T13:05:01Z</time></trkpt>
<trkpt lat="46.15979992" lon="7.24680598"><ele>1137.199951</ele><time>2011-11-12T13:05:03Z</time></trkpt>
<trkpt lat="46.15995892" lon="7.24647297"><ele>1134.599976</ele><time>2011-11-12T13:05:08Z</time></trkpt>
<trkpt lat="46.16002497" lon="7.24631798"><ele>1131.800049</ele><time>2011-11-12T13:05:10Z</time></trkpt>
<trkpt lat="46.16015992" lon="7.24603392"><ele>1125</ele><time>2011-11-12T13:05:14Z</time></trkpt>
<trkpt lat="46.16049394" lon="7.24590300"><ele>1127</ele><time>2011-11-12T13:05:19Z</time></trkpt>
<trkpt lat="46.16081497" lon="7.24578800"><ele>1128</ele><time>2011-11-12T13:05:24Z</time></trkpt>
<trkpt lat="46.16103600" lon="7.24568498"><ele>1125.800049</ele><time>2011-11-12T13:05:28Z</time></trkpt>
<trkpt lat="46.16115594" lon="7.24561097"><ele>1124</ele><time>2011-11-12T13:05:31Z</time></trkpt>
<trkpt lat="46.16126499" lon="7.24554593"><ele>1122.800049</ele><time>2011-11-12T13:05:34Z</time></trkpt>
<trkpt lat="46.16144294" lon="7.24542296"><ele>1120.400024</ele><time>2011-11-12T13:05:39Z</time></trkpt>
<trkpt lat="46.16154394" lon="7.24534694"><ele>1119.400024</ele><time>2011-11-12T13:05:41Z</time></trkpt>
<trkpt lat="46.16182792" lon="7.24519699"><ele>1119.400024</ele><time>2011-11-12T13:05:46Z</time></trkpt>
<trkpt lat="46.16191694" lon="7.24515500"><ele>1119.599976</ele><time>2011-11-12T13:05:49Z</time></trkpt>
<trkpt lat="46.16194493" lon="7.24465594"><ele>1104</ele><time>2011-11-12T13:05:54Z</time></trkpt>
<trkpt lat="46.16212799" lon="7.24459098"><ele>1105.199951</ele><time>2011-11-12T13:05:58Z</time></trkpt>
<trkpt lat="46.16230695" lon="7.24452895"><ele>1106</ele><time>2011-11-12T13:06:02Z</time></trkpt>
<trkpt lat="46.16249495" lon="7.24447598"><ele>1107.199951</ele><time>2011-11-12T13:06:07Z</time></trkpt>
<trkpt lat="46.16257894" lon="7.24445293"><ele>1107.400024</ele><time>2011-11-12T13:06:12Z</time></trkpt>
<trkpt lat="46.16275295" lon="7.24441797"><ele>1108.400024</ele><time>2011-11-12T13:06:19Z</time></trkpt>
<trkpt lat="46.16302092" lon="7.24437397"><ele>1110</ele><time>2011-11-12T13:06:27Z</time></trkpt>
<trkpt lat="46.16326399" lon="7.24431898"><ele>1110.800049</ele><time>2011-11-12T13:06:35Z</time></trkpt>
<trkpt lat="46.16353800" lon="7.24423500"><ele>1111.400024</ele><time>2011-11-12T13:06:43Z</time></trkpt>
<trkpt lat="46.16375693" lon="7.24410994"><ele>1109.199951</ele><time>2011-11-12T13:06:50Z</time></trkpt>
<trkpt lat="46.16375693" lon="7.24410994"><ele>1109.199951</ele><time>2011-11-12T13:06:55Z</time></trkpt>
<trkpt lat="46.16375693" lon="7.24410994"><ele>1109.199951</ele><time>2011-11-12T13:07:04Z</time></trkpt>
<trkpt lat="46.16423596" lon="7.24408295"><ele>1113.400024</ele><time>2011-11-12T13:07:11Z</time></trkpt>
<trkpt lat="46.16423596" lon="7.24408295"><ele>1113.400024</ele><time>2011-11-12T13:07:58Z</time></trkpt>
<trkpt lat="46.16388392" lon="7.24338097"><ele>1073</ele><time>2011-11-12T13:08:10Z</time></trkpt>
<trkpt lat="46.16390797" lon="7.24441093"><ele>1123</ele><time>2011-11-12T13:08:13Z</time></trkpt>
<trkpt lat="46.16405793" lon="7.24428194"><ele>1120.599976</ele><time>2011-11-12T13:08:18Z</time></trkpt>
<trkpt lat="46.16397293" lon="7.24434195"><ele>1121.400024</ele><time>2011-11-12T13:08:22Z</time></trkpt>
<trkpt lat="46.16360899" lon="7.24458192"><ele>1125.199951</ele><time>2011-11-12T13:08:27Z</time></trkpt>
<trkpt lat="46.16335100" lon="7.24462492"><ele>1123.199951</ele><time>2011-11-12T13:08:32Z</time></trkpt>
<trkpt lat="46.16320993" lon="7.24466499"><ele>1122.800049</ele><time>2011-11-12T13:08:36Z</time></trkpt>
<trkpt lat="46.16313298" lon="7.24468393"><ele>1122.599976</ele><time>2011-11-12T13:08:38Z</time></trkpt>
<trkpt lat="46.16290994" lon="7.24473598"><ele>1121.400024</ele><time>2011-11-12T13:08:44Z</time></trkpt>
<trkpt lat="46.16268497" lon="7.24479692"><ele>1120.599976</ele><time>2011-11-12T13:08:52Z</time></trkpt>
<trkpt lat="46.16257098" lon="7.24445494"><ele>1107.400024</ele><time>2011-11-12T13:08:56Z</time></trkpt>
<trkpt lat="46.16260593" lon="7.24444798"><ele>1107.599976</ele><time>2011-11-12T13:09:00Z</time></trkpt>
<trkpt lat="46.16263594" lon="7.24444195"><ele>1107.800049</ele><time>2011-11-12T13:09:02Z</time></trkpt>
<trkpt lat="46.16279092" lon="7.24441093"><ele>1108.599976</ele><time>2011-11-12T13:09:06Z</time></trkpt>
<trkpt lat="46.16280399" lon="7.24440792"><ele>1108.599976</ele><time>2011-11-12T13:09:09Z</time></trkpt>
<trkpt lat="46.16270098" lon="7.24442896"><ele>1108.199951</ele><time>2011-11-12T13:09:24Z</time></trkpt>
<trkpt lat="46.16256595" lon="7.24445695"><ele>1107.400024</ele><time>2011-11-12T13:09:30Z</time></trkpt>
<trkpt lat="46.16250392" lon="7.24447296"><ele>1107.199951</ele><time>2011-11-12T13:09:35Z</time></trkpt>
<trkpt lat="46.16239294" lon="7.24450397"><ele>1106.599976</ele><time>2011-11-12T13:09:44Z</time></trkpt>
<trkpt lat="46.16235699" lon="7.24451395"><ele>1106.400024</ele><time>2011-11-12T13:09:45Z</time></trkpt>
<trkpt lat="46.16212598" lon="7.24459198"><ele>1105</ele><time>2011-11-12T13:09:50Z</time></trkpt>
<trkpt lat="46.16169699" lon="7.24479692"><ele>1103.400024</ele><time>2011-11-12T13:09:56Z</time></trkpt>
<trkpt lat="46.16162994" lon="7.24483900"><ele>1102.599976</ele><time>2011-11-12T13:10:00Z</time></trkpt>
<trkpt lat="46.16144093" lon="7.24496800"><ele>1100.400024</ele><time>2011-11-12T13:10:03Z</time></trkpt>
<trkpt lat="46.16120196" lon="7.24513697"><ele>1101.199951</ele><time>2011-11-12T13:10:06Z</time></trkpt>
<trkpt lat="46.16095092" lon="7.24515198"><ele>1095.599976</ele><time>2011-11-12T13:10:09Z</time></trkpt>
<trkpt lat="46.16037693" lon="7.24516497"><ele>1086.599976</ele><time>2011-11-12T13:10:15Z</time></trkpt>
<trkpt lat="46.15989899" lon="7.24519598"><ele>1079.599976</ele><time>2011-11-12T13:10:20Z</time></trkpt>
<trkpt lat="46.15956699" lon="7.24538592"><ele>1078.400024</ele><time>2011-11-12T13:10:24Z</time></trkpt>
<trkpt lat="46.15951292" lon="7.24547493"><ele>1080.800049</ele><time>2011-11-12T13:10:25Z</time></trkpt>
<trkpt lat="46.15941896" lon="7.24565296"><ele>1085.800049</ele><time>2011-11-12T13:10:27Z</time></trkpt>
<trkpt lat="46.15919692" lon="7.24587995"><ele>1087.199951</ele><time>2011-11-12T13:10:35Z</time></trkpt>
<trkpt lat="46.15845697" lon="7.24610592"><ele>1076.400024</ele><time>2011-11-12T13:10:37Z</time></trkpt>
<trkpt lat="46.15841699" lon="7.24632394"><ele>1081</ele><time>2011-11-12T13:10:41Z</time></trkpt>
<trkpt lat="46.15832898" lon="7.24638496"><ele>1080.599976</ele><time>2011-11-12T13:10:44Z</time></trkpt>
<trkpt lat="46.15812899" lon="7.24673096"><ele>1084.800049</ele><time>2011-11-12T13:10:48Z</time></trkpt>
<trkpt lat="46.15804198" lon="7.24686499"><ele>1088.400024</ele><time>2011-11-12T13:10:50Z</time></trkpt>
<trkpt lat="46.15786596" lon="7.24722499"><ele>1099.599976</ele><time>2011-11-12T13:10:55Z</time></trkpt>
<trkpt lat="46.15769799" lon="7.24728593"><ele>1097.199951</ele><time>2011-11-12T13:10:58Z</time></trkpt>
<trkpt lat="46.15748098" lon="7.24725198"><ele>1089.199951</ele><time>2011-11-12T13:11:01Z</time></trkpt>
<trkpt lat="46.15729096" lon="7.24708493"><ele>1078.800049</ele><time>2011-11-12T13:11:04Z</time></trkpt>
<trkpt lat="46.15706298" lon="7.24704595"><ele>1073.400024</ele><time>2011-11-12T13:11:07Z</time></trkpt>
<trkpt lat="46.15687799" lon="7.24712399"><ele>1074</ele><time>2011-11-12T13:11:10Z</time></trkpt>
<trkpt lat="46.15656895" lon="7.24732893"><ele>1076.599976</ele><time>2011-11-12T13:11:15Z</time></trkpt>
<trkpt lat="46.15627600" lon="7.24729992"><ele>1068.599976</ele><time>2011-11-12T13:11:19Z</time></trkpt>
<trkpt lat="46.15599294" lon="7.24733697"><ele>1063.400024</ele><time>2011-11-12T13:11:23Z</time></trkpt>
<trkpt lat="46.15586394" lon="7.24738098"><ele>1061.800049</ele><time>2011-11-12T13:11:25Z</time></trkpt>
<trkpt lat="46.15580100" lon="7.24741199"><ele>1061.599976</ele><time>2011-11-12T13:11:26Z</time></trkpt>
<trkpt lat="46.15545692" lon="7.24790493"><ele>1069.800049</ele><time>2011-11-12T13:11:32Z</time></trkpt>
<trkpt lat="46.15540093" lon="7.24799294"><ele>1071.199951</ele><time>2011-11-12T13:11:33Z</time></trkpt>
<trkpt lat="46.15519599" lon="7.24803695"><ele>1068.400024</ele><time>2011-11-12T13:11:37Z</time></trkpt>
<trkpt lat="46.15510396" lon="7.24795799"><ele>1064.400024</ele><time>2011-11-12T13:11:40Z</time></trkpt>
<trkpt lat="46.15502995" lon="7.24787995"><ele>1061</ele><time>2011-11-12T13:11:43Z</time></trkpt>
<trkpt lat="46.15472099" lon="7.24784894"><ele>1060.599976</ele><time>2011-11-12T13:11:47Z</time></trkpt>
<trkpt lat="46.15455595" lon="7.24791792"><ele>1063</ele><time>2011-11-12T13:11:50Z</time></trkpt>
<trkpt lat="46.15422998" lon="7.24835898"><ele>1079</ele><time>2011-11-12T13:11:57Z</time></trkpt>
<trkpt lat="46.15395396" lon="7.24850298"><ele>1089.400024</ele><time>2011-11-12T13:12:02Z</time></trkpt>
<trkpt lat="46.15379596" lon="7.24847096"><ele>1088.400024</ele><time>2011-11-12T13:12:05Z</time></trkpt>
<trkpt lat="46.15363897" lon="7.24825697"><ele>1080.599976</ele><time>2011-11-12T13:12:09Z</time></trkpt>
<trkpt lat="46.15357996" lon="7.24803896"><ele>1076.800049</ele><time>2011-11-12T13:12:13Z</time></trkpt>
<trkpt lat="46.15356898" lon="7.24794793"><ele>1075</ele><time>2011-11-12T13:12:15Z</time></trkpt>
<trkpt lat="46.15359295" lon="7.24775397"><ele>1070.599976</ele><time>2011-11-12T13:12:22Z</time></trkpt>
<trkpt lat="46.15363293" lon="7.24759497"><ele>1066.400024</ele><time>2011-11-12T13:12:29Z</time></trkpt>
<trkpt lat="46.15366898" lon="7.24745097"><ele>1064.199951</ele><time>2011-11-12T13:12:36Z</time></trkpt>
<trkpt lat="46.15369295" lon="7.24735499"><ele>1064.800049</ele><time>2011-11-12T13:12:40Z</time></trkpt>
<trkpt lat="46.15372698" lon="7.24718492"><ele>1066</ele><time>2011-11-12T13:12:47Z</time></trkpt>
<trkpt lat="46.15375296" lon="7.24700094"><ele>1067.199951</ele><time>2011-11-12T13:12:54Z</time></trkpt>
<trkpt lat="46.15377299" lon="7.24678997"><ele>1069</ele><time>2011-11-12T13:13:02Z</time></trkpt>
<trkpt lat="46.15377995" lon="7.24653499"><ele>1072</ele><time>2011-11-12T13:13:11Z</time></trkpt>
<trkpt lat="46.15379294" lon="7.24632494"><ele>1074.199951</ele><time>2011-11-12T13:13:19Z</time></trkpt>
<trkpt lat="46.15382496" lon="7.24618597"><ele>1074.800049</ele><time>2011-11-12T13:13:25Z</time></trkpt>
<trkpt lat="46.15388699" lon="7.24600995"><ele>1074.800049</ele><time>2011-11-12T13:13:32Z</time></trkpt>
<trkpt lat="46.15400794" lon="7.24583393"><ele>1072.800049</ele><time>2011-11-12T13:13:42Z</time></trkpt>
<trkpt lat="46.15410492" lon="7.24573695"><ele>1071.400024</ele><time>2011-11-12T13:13:49Z</time></trkpt>
<trkpt lat="46.15425998" lon="7.24558197"><ele>1069</ele><time>2011-11-12T13:14:00Z</time></trkpt>
<trkpt lat="46.15436392" lon="7.24545096"><ele>1067.599976</ele><time>2011-11-12T13:14:09Z</time></trkpt>
<trkpt lat="46.15444095" lon="7.24529799"><ele>1067.199951</ele><time>2011-11-12T13:14:17Z</time></trkpt>
<trkpt lat="46.15446299" lon="7.24508895"><ele>1070</ele><time>2011-11-12T13:14:26Z</time></trkpt>
<trkpt lat="46.15446593" lon="7.24486993"><ele>1073.400024</ele><time>2011-11-12T13:14:35Z</time></trkpt>
<trkpt lat="46.15447498" lon="7.24466600"><ele>1076.199951</ele><time>2011-11-12T13:14:44Z</time></trkpt>
<trkpt lat="46.15448697" lon="7.24448897"><ele>1078.199951</ele><time>2011-11-12T13:14:52Z</time></trkpt>
<trkpt lat="46.15448797" lon="7.24432695"><ele>1080.599976</ele><time>2011-11-12T13:14:59Z</time></trkpt>
<trkpt lat="46.15448395" lon="7.24408999"><ele>1083.800049</ele><time>2011-11-12T13:15:09Z</time></trkpt>
<trkpt lat="46.15447397" lon="7.24390400"><ele>1085.599976</ele><time>2011-11-12T13:15:17Z</time></trkpt>
<trkpt lat="46.15446593" lon="7.24368799"><ele>1087.800049</ele><time>2011-11-12T13:15:26Z</time></trkpt>
<trkpt lat="46.15446593" lon="7.24345498"><ele>1089.599976</ele><time>2011-11-12T13:15:36Z</time></trkpt>
<trkpt lat="46.15446593" lon="7.24339698"><ele>1090</ele><time>2011-11-12T13:15:39Z</time></trkpt>
<trkpt lat="46.15446593" lon="7.24320796"><ele>1092.199951</ele><time>2011-11-12T13:15:48Z</time></trkpt>
<trkpt lat="46.15449593" lon="7.24300596"><ele>1093.800049</ele><time>2011-11-12T13:15:56Z</time></trkpt>
<trkpt lat="46.15454597" lon="7.24279993"><ele>1094.800049</ele><time>2011-11-12T13:16:04Z</time></trkpt>
<trkpt lat="46.15459895" lon="7.24262198"><ele>1095.199951</ele><time>2011-11-12T13:16:11Z</time></trkpt>
<trkpt lat="46.15469098" lon="7.24245292"><ele>1094.199951</ele><time>2011-11-12T13:16:19Z</time></trkpt>
<trkpt lat="46.15474697" lon="7.24225393"><ele>1094.599976</ele><time>2011-11-12T13:16:27Z</time></trkpt>
<trkpt lat="46.15474798" lon="7.24222795"><ele>1094.800049</ele><time>2011-11-12T13:16:28Z</time></trkpt>
<trkpt lat="46.15475100" lon="7.24214396"><ele>1095.599976</ele><time>2011-11-12T13:16:34Z</time></trkpt>
<trkpt lat="46.15475192" lon="7.24211899"><ele>1096</ele><time>2011-11-12T13:16:36Z</time></trkpt>
<trkpt lat="46.15475996" lon="7.24194095"><ele>1097.599976</ele><time>2011-11-12T13:16:45Z</time></trkpt>
<trkpt lat="46.15476692" lon="7.24178698"><ele>1099.199951</ele><time>2011-11-12T13:16:52Z</time></trkpt>
<trkpt lat="46.15478394" lon="7.24158900"><ele>1100.599976</ele><time>2011-11-12T13:17:00Z</time></trkpt>
<trkpt lat="46.15479894" lon="7.24140393"><ele>1101.800049</ele><time>2011-11-12T13:17:08Z</time></trkpt>
<trkpt lat="46.15483993" lon="7.24116295"><ele>1102.800049</ele><time>2011-11-12T13:17:17Z</time></trkpt>
<trkpt lat="46.15489994" lon="7.24093295"><ele>1103</ele><time>2011-11-12T13:17:26Z</time></trkpt>
<trkpt lat="46.15497697" lon="7.24066397"><ele>1105.400024</ele><time>2011-11-12T13:17:36Z</time></trkpt>
<trkpt lat="46.15501494" lon="7.24053497"><ele>1107.199951</ele><time>2011-11-12T13:17:42Z</time></trkpt>
<trkpt lat="46.15503699" lon="7.24046792"><ele>1108.199951</ele><time>2011-11-12T13:19:27Z</time></trkpt>
<trkpt lat="46.15510094" lon="7.24029492"><ele>1110.199951</ele><time>2011-11-12T13:19:33Z</time></trkpt>
<trkpt lat="46.15519993" lon="7.24016399"><ele>1110.199951</ele><time>2011-11-12T13:19:39Z</time></trkpt>
<trkpt lat="46.15531493" lon="7.24000993"><ele>1110.199951</ele><time>2011-11-12T13:19:46Z</time></trkpt>
<trkpt lat="46.15538592" lon="7.23984699"><ele>1111.599976</ele><time>2011-11-12T13:19:52Z</time></trkpt>
<trkpt lat="46.15546195" lon="7.23960894"><ele>1114</ele><time>2011-11-12T13:20:00Z</time></trkpt>
<trkpt lat="46.15555792" lon="7.23931298"><ele>1116.400024</ele><time>2011-11-12T13:20:10Z</time></trkpt>
<trkpt lat="46.15564493" lon="7.23905096"><ele>1118.199951</ele><time>2011-11-12T13:20:19Z</time></trkpt>
<trkpt lat="46.15571399" lon="7.23885893"><ele>1119.599976</ele><time>2011-11-12T13:20:26Z</time></trkpt>
<trkpt lat="46.15581600" lon="7.23867796"><ele>1118.599976</ele><time>2011-11-12T13:20:33Z</time></trkpt>
<trkpt lat="46.15595195" lon="7.23848199"><ele>1116.199951</ele><time>2011-11-12T13:20:41Z</time></trkpt>
<trkpt lat="46.15609294" lon="7.23827999"><ele>1113.800049</ele><time>2011-11-12T13:20:50Z</time></trkpt>
<trkpt lat="46.15616100" lon="7.23811797"><ele>1113.800049</ele><time>2011-11-12T13:20:57Z</time></trkpt>
<trkpt lat="46.15614893" lon="7.23801898"><ele>1116.199951</ele><time>2011-11-12T13:21:02Z</time></trkpt>
<trkpt lat="46.15607693" lon="7.23790993"><ele>1121.800049</ele><time>2011-11-12T13:21:11Z</time></trkpt>
<trkpt lat="46.15604097" lon="7.23786592"><ele>1124.400024</ele><time>2011-11-12T13:21:15Z</time></trkpt>
<trkpt lat="46.15598297" lon="7.23775897"><ele>1129.400024</ele><time>2011-11-12T13:21:23Z</time></trkpt>
<trkpt lat="46.15598297" lon="7.23755797"><ele>1133.400024</ele><time>2011-11-12T13:21:32Z</time></trkpt>
<trkpt lat="46.15598800" lon="7.23751598"><ele>1134</ele><time>2011-11-12T13:21:34Z</time></trkpt>
<trkpt lat="46.15600493" lon="7.23738296"><ele>1136.199951</ele><time>2011-11-12T13:21:40Z</time></trkpt>
<trkpt lat="46.15608498" lon="7.23713896"><ele>1138.400024</ele><time>2011-11-12T13:21:49Z</time></trkpt>
<trkpt lat="46.15614692" lon="7.23697292"><ele>1139.599976</ele><time>2011-11-12T13:21:55Z</time></trkpt>
<trkpt lat="46.15626493" lon="7.23678994"><ele>1139</ele><time>2011-11-12T13:22:02Z</time></trkpt>
<trkpt lat="46.15636895" lon="7.23666798"><ele>1137.800049</ele><time>2011-11-12T13:22:07Z</time></trkpt>
<trkpt lat="46.15655595" lon="7.23645098"><ele>1137.599976</ele><time>2011-11-12T13:22:15Z</time></trkpt>
<trkpt lat="46.15675494" lon="7.23621092"><ele>1137.599976</ele><time>2011-11-12T13:22:23Z</time></trkpt>
<trkpt lat="46.15691193" lon="7.23595594"><ele>1139</ele><time>2011-11-12T13:22:31Z</time></trkpt>
<trkpt lat="46.15701998" lon="7.23574094"><ele>1140.800049</ele><time>2011-11-12T13:22:38Z</time></trkpt>
<trkpt lat="46.15710899" lon="7.23554699"><ele>1142.800049</ele><time>2011-11-12T13:22:45Z</time></trkpt>
<trkpt lat="46.15726498" lon="7.23526795"><ele>1143.400024</ele><time>2011-11-12T13:22:53Z</time></trkpt>
<trkpt lat="46.15745894" lon="7.23500895"><ele>1140</ele><time>2011-11-12T13:23:03Z</time></trkpt>
<trkpt lat="46.15749196" lon="7.23492597"><ele>1141.199951</ele><time>2011-11-12T13:23:09Z</time></trkpt>
<trkpt lat="46.15749196" lon="7.23476797"><ele>1147</ele><time>2011-11-12T13:23:16Z</time></trkpt>
<trkpt lat="46.15749196" lon="7.23456396"><ele>1154.599976</ele><time>2011-11-12T13:23:24Z</time></trkpt>
<trkpt lat="46.15749196" lon="7.23441392"><ele>1160.199951</ele><time>2011-11-12T13:23:31Z</time></trkpt>
<trkpt lat="46.15757997" lon="7.23412894"><ele>1165</ele><time>2011-11-12T13:23:39Z</time></trkpt>
<trkpt lat="46.15762699" lon="7.23405199"><ele>1164.599976</ele><time>2011-11-12T13:23:46Z</time></trkpt>
<trkpt lat="46.15769095" lon="7.23387899"><ele>1167</ele><time>2011-11-12T13:23:54Z</time></trkpt>
<trkpt lat="46.15783797" lon="7.23358294"><ele>1169.400024</ele><time>2011-11-12T13:24:04Z</time></trkpt>
<trkpt lat="46.15795598" lon="7.23341798"><ele>1169.199951</ele><time>2011-11-12T13:24:11Z</time></trkpt>
<trkpt lat="46.15808498" lon="7.23323794"><ele>1169.599976</ele><time>2011-11-12T13:24:19Z</time></trkpt>
<trkpt lat="46.15827299" lon="7.23298699"><ele>1171.400024</ele><time>2011-11-12T13:24:28Z</time></trkpt>
<trkpt lat="46.15851296" lon="7.23284500"><ele>1172.400024</ele><time>2011-11-12T13:24:35Z</time></trkpt>
<trkpt lat="46.15869795" lon="7.23284500"><ele>1169.199951</ele><time>2011-11-12T13:24:42Z</time></trkpt>
<trkpt lat="46.15887992" lon="7.23284500"><ele>1166</ele><time>2011-11-12T13:24:50Z</time></trkpt>
<trkpt lat="46.15904697" lon="7.23282597"><ele>1164.199951</ele><time>2011-11-12T13:24:58Z</time></trkpt>
<trkpt lat="46.15917798" lon="7.23275296"><ele>1165.599976</ele><time>2011-11-12T13:25:04Z</time></trkpt>
<trkpt lat="46.15922693" lon="7.23272799"><ele>1165.599976</ele><time>2011-11-12T13:25:07Z</time></trkpt>
<trkpt lat="46.15931796" lon="7.23268298"><ele>1165.599976</ele><time>2011-11-12T13:25:12Z</time></trkpt>
<trkpt lat="46.15942500" lon="7.23263394"><ele>1165.400024</ele><time>2011-11-12T13:25:17Z</time></trkpt>
<trkpt lat="46.15956799" lon="7.23259798"><ele>1163.599976</ele><time>2011-11-12T13:25:24Z</time></trkpt>
<trkpt lat="46.15975197" lon="7.23257393"><ele>1160.199951</ele><time>2011-11-12T13:25:31Z</time></trkpt>
<trkpt lat="46.15981098" lon="7.23256697"><ele>1159</ele><time>2011-11-12T13:25:33Z</time></trkpt>
<trkpt lat="46.15998692" lon="7.23254199"><ele>1156</ele><time>2011-11-12T13:25:38Z</time></trkpt>
<trkpt lat="46.16004492" lon="7.23252296"><ele>1156.199951</ele><time>2011-11-12T13:25:43Z</time></trkpt>
<trkpt lat="46.16127396" lon="7.22948494"><ele>1133.599976</ele><time>2011-11-12T13:26:11Z</time></trkpt>
<trkpt lat="46.16096794" lon="7.22966893"><ele>1153</ele><time>2011-11-12T13:26:15Z</time></trkpt>
<trkpt lat="46.16131092" lon="7.22987294"><ele>1137.400024</ele><time>2011-11-12T13:26:17Z</time></trkpt>
<trkpt lat="46.16143992" lon="7.22979097"><ele>1129</ele><time>2011-11-12T13:26:22Z</time></trkpt>
<trkpt lat="46.16149398" lon="7.22966398"><ele>1124.400024</ele><time>2011-11-12T13:26:25Z</time></trkpt>
<trkpt lat="46.16150396" lon="7.22941194"><ele>1121</ele><time>2011-11-12T13:26:28Z</time></trkpt>
<trkpt lat="46.16145694" lon="7.22930398"><ele>1122.199951</ele><time>2011-11-12T13:26:30Z</time></trkpt>
<trkpt lat="46.16098193" lon="7.22860895"><ele>1125.800049</ele><time>2011-11-12T13:26:37Z</time></trkpt>
<trkpt lat="46.16057097" lon="7.22798794"><ele>1131</ele><time>2011-11-12T13:26:42Z</time></trkpt>
<trkpt lat="46.15998298" lon="7.22696694"><ele>1124.199951</ele><time>2011-11-12T13:26:49Z</time></trkpt>
<trkpt lat="46.15961493" lon="7.22639093"><ele>1119</ele><time>2011-11-12T13:26:53Z</time></trkpt>
<trkpt lat="46.15906298" lon="7.22578995"><ele>1114</ele><time>2011-11-12T13:26:58Z</time></trkpt>
<trkpt lat="46.15585900" lon="7.22319592"><ele>1082.599976</ele><time>2011-11-12T13:27:22Z</time></trkpt>
<trkpt lat="46.15549296" lon="7.22263793"><ele>1061.400024</ele><time>2011-11-12T13:27:26Z</time></trkpt>
<trkpt lat="46.15528199" lon="7.22241598"><ele>1058.400024</ele><time>2011-11-12T13:27:28Z</time></trkpt>
<trkpt lat="46.15461194" lon="7.22184199"><ele>1061.400024</ele><time>2011-11-12T13:27:33Z</time></trkpt>
<trkpt lat="46.15417600" lon="7.22119298"><ele>1048.800049</ele><time>2011-11-12T13:27:37Z</time></trkpt>
<trkpt lat="46.15388397" lon="7.22075796"><ele>1040.599976</ele><time>2011-11-12T13:27:40Z</time></trkpt>
<trkpt lat="46.15348097" lon="7.22026996"><ele>1036.599976</ele><time>2011-11-12T13:27:44Z</time></trkpt>
<trkpt lat="46.15288493" lon="7.21976797"><ele>1041.599976</ele><time>2011-11-12T13:27:49Z</time></trkpt>
<trkpt lat="46.15270397" lon="7.21943798"><ele>1033.800049</ele><time>2011-11-12T13:27:51Z</time></trkpt>
<trkpt lat="46.15214095" lon="7.21847498"><ele>1022</ele><time>2011-11-12T13:27:57Z</time></trkpt>
<trkpt lat="46.15178296" lon="7.21787098"><ele>1017.599976</ele><time>2011-11-12T13:28:01Z</time></trkpt>
<trkpt lat="46.15143796" lon="7.21722398"><ele>1007.400024</ele><time>2011-11-12T13:28:05Z</time></trkpt>
<trkpt lat="46.15089792" lon="7.21648796"><ele>998.200012</ele><time>2011-11-12T13:28:10Z</time></trkpt>
<trkpt lat="46.15016199" lon="7.21571398"><ele>996.200012</ele><time>2011-11-12T13:28:16Z</time></trkpt>
<trkpt lat="46.14960794" lon="7.21532598"><ele>992.400024</ele><time>2011-11-12T13:28:20Z</time></trkpt>
<trkpt lat="46.14906195" lon="7.21503798"><ele>991</ele><time>2011-11-12T13:28:24Z</time></trkpt>
<trkpt lat="46.14877696" lon="7.21484897"><ele>995.599976</ele><time>2011-11-12T13:28:27Z</time></trkpt>
<trkpt lat="46.14862097" lon="7.21471293"><ele>997.200012</ele><time>2011-11-12T13:28:30Z</time></trkpt>
<trkpt lat="46.14876992" lon="7.21447597"><ele>982.200012</ele><time>2011-11-12T13:28:32Z</time></trkpt>
<trkpt lat="46.14883999" lon="7.21453096"><ele>981.400024</ele><time>2011-11-12T13:28:33Z</time></trkpt>
<trkpt lat="46.14912297" lon="7.21475593"><ele>977.599976</ele><time>2011-11-12T13:28:37Z</time></trkpt>
<trkpt lat="46.14938993" lon="7.21488493"><ele>973.400024</ele><time>2011-11-12T13:28:40Z</time></trkpt>
<trkpt lat="46.14992696" lon="7.21501099"><ele>963.599976</ele><time>2011-11-12T13:28:45Z</time></trkpt>
<trkpt lat="46.15017699" lon="7.21502993"><ele>958.400024</ele><time>2011-11-12T13:28:47Z</time></trkpt>
<trkpt lat="46.15067798" lon="7.21528097"><ele>957</ele><time>2011-11-12T13:28:51Z</time></trkpt>
<trkpt lat="46.15118098" lon="7.21564097"><ele>955</ele><time>2011-11-12T13:28:55Z</time></trkpt>
<trkpt lat="46.15160099" lon="7.21576494"><ele>945.400024</ele><time>2011-11-12T13:28:58Z</time></trkpt>
<trkpt lat="46.15174399" lon="7.21574198"><ele>940.200012</ele><time>2011-11-12T13:28:59Z</time></trkpt>
<trkpt lat="46.15223500" lon="7.21563594"><ele>921.400024</ele><time>2011-11-12T13:29:03Z</time></trkpt>
<trkpt lat="46.15240398" lon="7.21581892"><ele>921.400024</ele><time>2011-11-12T13:29:05Z</time></trkpt>
<trkpt lat="46.15247598" lon="7.21593794"><ele>923.200012</ele><time>2011-11-12T13:29:06Z</time></trkpt>
<trkpt lat="46.15284193" lon="7.21663398"><ele>930.599976</ele><time>2011-11-12T13:29:11Z</time></trkpt>
<trkpt lat="46.15343194" lon="7.21748893"><ele>930.400024</ele><time>2011-11-12T13:29:18Z</time></trkpt>
<trkpt lat="46.15347896" lon="7.21752397"><ele>929</ele><time>2011-11-12T13:29:19Z</time></trkpt>
<trkpt lat="46.15408497" lon="7.21810299"><ele>914.200012</ele><time>2011-11-12T13:29:23Z</time></trkpt>
<trkpt lat="46.15452494" lon="7.21871395"><ele>910.799988</ele><time>2011-11-12T13:29:27Z</time></trkpt>
<trkpt lat="46.15504495" lon="7.21908795"><ele>900</ele><time>2011-11-12T13:29:31Z</time></trkpt>
<trkpt lat="46.15572497" lon="7.21947494"><ele>894.599976</ele><time>2011-11-12T13:29:36Z</time></trkpt>
<trkpt lat="46.15641497" lon="7.21986394"><ele>890.599976</ele><time>2011-11-12T13:29:41Z</time></trkpt>
<trkpt lat="46.15699500" lon="7.22002798"><ele>879.400024</ele><time>2011-11-12T13:29:45Z</time></trkpt>
<trkpt lat="46.15741996" lon="7.22014599"><ele>871.599976</ele><time>2011-11-12T13:29:48Z</time></trkpt>
<trkpt lat="46.15795397" lon="7.22048999"><ele>864.400024</ele><time>2011-11-12T13:29:52Z</time></trkpt>
<trkpt lat="46.15821197" lon="7.22073499"><ele>864.400024</ele><time>2011-11-12T13:29:54Z</time></trkpt>
<trkpt lat="46.15862394" lon="7.22135592"><ele>869.599976</ele><time>2011-11-12T13:29:58Z</time></trkpt>
<trkpt lat="46.15867297" lon="7.22148098"><ele>873.599976</ele><time>2011-11-12T13:29:59Z</time></trkpt>
<trkpt lat="46.15897296" lon="7.22151593"><ele>861.799988</ele><time>2011-11-12T13:30:02Z</time></trkpt>
<trkpt lat="46.15882192" lon="7.22145097"><ele>865</ele><time>2011-11-12T13:30:04Z</time></trkpt>
<trkpt lat="46.15880096" lon="7.22127898"><ele>856</ele><time>2011-11-12T13:30:06Z</time></trkpt>
<trkpt lat="46.15848295" lon="7.22066794"><ele>845.200012</ele><time>2011-11-12T13:30:12Z</time></trkpt>
<trkpt lat="46.15842193" lon="7.22054992"><ele>844</ele><time>2011-11-12T13:30:13Z</time></trkpt>
<trkpt lat="46.15790796" lon="7.21988096"><ele>839.599976</ele><time>2011-11-12T13:30:19Z</time></trkpt>
<trkpt lat="46.15747394" lon="7.21943798"><ele>840.599976</ele><time>2011-11-12T13:30:23Z</time></trkpt>
<trkpt lat="46.15735995" lon="7.21932298"><ele>839</ele><time>2011-11-12T13:30:24Z</time></trkpt>
<trkpt lat="46.15662997" lon="7.21861395"><ele>830.799988</ele><time>2011-11-12T13:30:30Z</time></trkpt>
<trkpt lat="46.15628698" lon="7.21818094"><ele>825</ele><time>2011-11-12T13:30:33Z</time></trkpt>
<trkpt lat="46.15596394" lon="7.21769697"><ele>820</ele><time>2011-11-12T13:30:36Z</time></trkpt>
<trkpt lat="46.15565398" lon="7.21693296"><ele>811.400024</ele><time>2011-11-12T13:30:40Z</time></trkpt>
<trkpt lat="46.15540897" lon="7.21626895"><ele>803.599976</ele><time>2011-11-12T13:30:44Z</time></trkpt>
<trkpt lat="46.15529297" lon="7.21608295"><ele>803</ele><time>2011-11-12T13:30:46Z</time></trkpt>
<trkpt lat="46.15519792" lon="7.21574097"><ele>797.200012</ele><time>2011-11-12T13:30:49Z</time></trkpt>
<trkpt lat="46.15533195" lon="7.21648998"><ele>811.799988</ele><time>2011-11-12T13:30:51Z</time></trkpt>
<trkpt lat="46.15572497" lon="7.21631496"><ele>793.799988</ele><time>2011-11-12T13:30:57Z</time></trkpt>
<trkpt lat="46.15610995" lon="7.21682894"><ele>789.400024</ele><time>2011-11-12T13:31:02Z</time></trkpt>
<trkpt lat="46.15671395" lon="7.21744493"><ele>782.799988</ele><time>2011-11-12T13:31:08Z</time></trkpt>
<trkpt lat="46.15742298" lon="7.21808899"><ele>781.400024</ele><time>2011-11-12T13:31:14Z</time></trkpt>
<trkpt lat="46.15803192" lon="7.21866500"><ele>781.200012</ele><time>2011-11-12T13:31:19Z</time></trkpt>
<trkpt lat="46.15825094" lon="7.21875292"><ele>775.799988</ele><time>2011-11-12T13:31:22Z</time></trkpt>
<trkpt lat="46.15826393" lon="7.21871294"><ele>773.200012</ele><time>2011-11-12T13:31:24Z</time></trkpt>
<trkpt lat="46.15822295" lon="7.21859995"><ele>769.400024</ele><time>2011-11-12T13:31:27Z</time></trkpt>
<trkpt lat="46.15799798" lon="7.21837398"><ele>768.599976</ele><time>2011-11-12T13:31:31Z</time></trkpt>
<trkpt lat="46.15761492" lon="7.21793393"><ele>765.799988</ele><time>2011-11-12T13:31:36Z</time></trkpt>
<trkpt lat="46.15753094" lon="7.21782597"><ele>764.599976</ele><time>2011-11-12T13:31:37Z</time></trkpt>
<trkpt lat="46.15715794" lon="7.21742196"><ele>762.799988</ele><time>2011-11-12T13:31:41Z</time></trkpt>
<trkpt lat="46.15686592" lon="7.21705793"><ele>762.400024</ele><time>2011-11-12T13:31:44Z</time></trkpt>
<trkpt lat="46.15667196" lon="7.21651093"><ele>752.400024</ele><time>2011-11-12T13:31:47Z</time></trkpt>
<trkpt lat="46.15631699" lon="7.21559093"><ele>745.200012</ele><time>2011-11-12T13:31:52Z</time></trkpt>
<trkpt lat="46.15584794" lon="7.21472994"><ele>741.200012</ele><time>2011-11-12T13:31:57Z</time></trkpt>
<trkpt lat="46.15567493" lon="7.21445493"><ele>738.200012</ele><time>2011-11-12T13:31:59Z</time></trkpt>
<trkpt lat="46.15541493" lon="7.21403793"><ele>736</ele><time>2011-11-12T13:32:03Z</time></trkpt>
<trkpt lat="46.15534594" lon="7.21380793"><ele>732.799988</ele><time>2011-11-12T13:32:06Z</time></trkpt>
<trkpt lat="46.15550998" lon="7.21377499"><ele>724.599976</ele><time>2011-11-12T13:32:08Z</time></trkpt>
<trkpt lat="46.15584198" lon="7.21408093"><ele>718</ele><time>2011-11-12T13:32:13Z</time></trkpt>
<trkpt lat="46.15626795" lon="7.21448192"><ele>710.400024</ele><time>2011-11-12T13:32:18Z</time></trkpt>
<trkpt lat="46.15678092" lon="7.21495894"><ele>702.799988</ele><time>2011-11-12T13:32:23Z</time></trkpt>
<trkpt lat="46.15712098" lon="7.21526496"><ele>696.400024</ele><time>2011-11-12T13:32:26Z</time></trkpt>
<trkpt lat="46.15789396" lon="7.21620600"><ele>687</ele><time>2011-11-12T13:32:33Z</time></trkpt>
<trkpt lat="46.15811792" lon="7.21648796"><ele>684.799988</ele><time>2011-11-12T13:32:35Z</time></trkpt>
<trkpt lat="46.15836494" lon="7.21693497"><ele>687.599976</ele><time>2011-11-12T13:32:38Z</time></trkpt>
<trkpt lat="46.15841397" lon="7.21709498"><ele>688.599976</ele><time>2011-11-12T13:32:39Z</time></trkpt>
<trkpt lat="46.15897195" lon="7.21871495"><ele>706.400024</ele><time>2011-11-12T13:32:49Z</time></trkpt>
<trkpt lat="46.15936800" lon="7.21930998"><ele>700.400024</ele><time>2011-11-12T13:32:52Z</time></trkpt>
<trkpt lat="46.15995792" lon="7.21980996"><ele>663.799988</ele><time>2011-11-12T13:32:56Z</time></trkpt>
<trkpt lat="46.16092796" lon="7.22061194"><ele>653.400024</ele><time>2011-11-12T13:33:03Z</time></trkpt>
<trkpt lat="46.16163899" lon="7.22121192"><ele>644</ele><time>2011-11-12T13:33:08Z</time></trkpt>
<trkpt lat="46.16239496" lon="7.22167293"><ele>632.200012</ele><time>2011-11-12T13:33:13Z</time></trkpt>
<trkpt lat="46.16281497" lon="7.22201499"><ele>629.400024</ele><time>2011-11-12T13:33:16Z</time></trkpt>
<trkpt lat="46.16305796" lon="7.22231297"><ele>630.400024</ele><time>2011-11-12T13:33:18Z</time></trkpt>
<trkpt lat="46.16338394" lon="7.22282996"><ele>640.200012</ele><time>2011-11-12T13:33:22Z</time></trkpt>
<trkpt lat="46.16356398" lon="7.22290993"><ele>635.599976</ele><time>2011-11-12T13:33:25Z</time></trkpt>
<trkpt lat="46.16358594" lon="7.22286693"><ele>632</ele><time>2011-11-12T13:33:27Z</time></trkpt>
<trkpt lat="46.16358594" lon="7.22282393"><ele>629.599976</ele><time>2011-11-12T13:33:29Z</time></trkpt>
<trkpt lat="46.16354696" lon="7.22271597"><ele>625.400024</ele><time>2011-11-12T13:33:31Z</time></trkpt>
<trkpt lat="46.16340196" lon="7.22251095"><ele>620.400024</ele><time>2011-11-12T13:33:34Z</time></trkpt>
<trkpt lat="46.16319593" lon="7.22215698"><ele>617</ele><time>2011-11-12T13:33:39Z</time></trkpt>
<trkpt lat="46.16315595" lon="7.22207995"><ele>615.799988</ele><time>2011-11-12T13:33:43Z</time></trkpt>
<trkpt lat="46.16268296" lon="7.22133597"><ele>606.400024</ele><time>2011-11-12T13:33:48Z</time></trkpt>
<trkpt lat="46.16219999" lon="7.22092300"><ele>608</ele><time>2011-11-12T13:33:53Z</time></trkpt>
<trkpt lat="46.16188492" lon="7.22063592"><ele>606.599976</ele><time>2011-11-12T13:33:56Z</time></trkpt>
<trkpt lat="46.16147496" lon="7.22012898"><ele>603.799988</ele><time>2011-11-12T13:34:00Z</time></trkpt>
<trkpt lat="46.16113599" lon="7.21954795"><ele>593.200012</ele><time>2011-11-12T13:34:04Z</time></trkpt>
<trkpt lat="46.16091899" lon="7.21910899"><ele>584.599976</ele><time>2011-11-12T13:34:07Z</time></trkpt>
<trkpt lat="46.16057298" lon="7.21871294"><ele>587.400024</ele><time>2011-11-12T13:34:11Z</time></trkpt>
<trkpt lat="46.16032194" lon="7.21849694"><ele>591.400024</ele><time>2011-11-12T13:34:15Z</time></trkpt>
<trkpt lat="46.16044097" lon="7.21832796"><ele>580</ele><time>2011-11-12T13:34:17Z</time></trkpt>
<trkpt lat="46.16050098" lon="7.21838697"><ele>579.599976</ele><time>2011-11-12T13:34:18Z</time></trkpt>
<trkpt lat="46.16061699" lon="7.21848998"><ele>577.799988</ele><time>2011-11-12T13:34:20Z</time></trkpt>
<trkpt lat="46.16082997" lon="7.21864094"><ele>573.400024</ele><time>2011-11-12T13:34:23Z</time></trkpt>
<trkpt lat="46.16109995" lon="7.21897898"><ele>570.599976</ele><time>2011-11-12T13:34:27Z</time></trkpt>
<trkpt lat="46.16141494" lon="7.21936597"><ele>571.599976</ele><time>2011-11-12T13:34:31Z</time></trkpt>
<trkpt lat="46.16181292" lon="7.21974894"><ele>571.599976</ele><time>2011-11-12T13:34:35Z</time></trkpt>
<trkpt lat="46.16214794" lon="7.22002999"><ele>571.599976</ele><time>2011-11-12T13:34:38Z</time></trkpt>
<trkpt lat="46.16267097" lon="7.22029595"><ele>562.400024</ele><time>2011-11-12T13:34:42Z</time></trkpt>
<trkpt lat="46.16323600" lon="7.22050197"><ele>549.400024</ele><time>2011-11-12T13:34:46Z</time></trkpt>
<trkpt lat="46.16378099" lon="7.22090900"><ele>543.599976</ele><time>2011-11-12T13:34:50Z</time></trkpt>
<trkpt lat="46.16389498" lon="7.22106893"><ele>543.599976</ele><time>2011-11-12T13:34:51Z</time></trkpt>
<trkpt lat="46.16440192" lon="7.22163596"><ele>537.200012</ele><time>2011-11-12T13:34:55Z</time></trkpt>
<trkpt lat="46.16475698" lon="7.22208993"><ele>532.799988</ele><time>2011-11-12T13:34:58Z</time></trkpt>
<trkpt lat="46.16525696" lon="7.22263793"><ele>527.400024</ele><time>2011-11-12T13:35:02Z</time></trkpt>
<trkpt lat="46.16560698" lon="7.22293398"><ele>525.799988</ele><time>2011-11-12T13:35:05Z</time></trkpt>
<trkpt lat="46.16601795" lon="7.22343698"><ele>528.200012</ele><time>2011-11-12T13:35:09Z</time></trkpt>
<trkpt lat="46.16641693" lon="7.22374393"><ele>529.200012</ele><time>2011-11-12T13:35:13Z</time></trkpt>
<trkpt lat="46.16684499" lon="7.22400494"><ele>524.599976</ele><time>2011-11-12T13:35:17Z</time></trkpt>
<trkpt lat="46.16695798" lon="7.22407795"><ele>523.799988</ele><time>2011-11-12T13:35:18Z</time></trkpt>
<trkpt lat="46.16722000" lon="7.22414995"><ele>517.599976</ele><time>2011-11-12T13:35:21Z</time></trkpt>
<trkpt lat="46.16740792" lon="7.22403092"><ele>509.799988</ele><time>2011-11-12T13:35:23Z</time></trkpt>
<trkpt lat="46.16786499" lon="7.22334696"><ele>498.600006</ele><time>2011-11-12T13:35:30Z</time></trkpt>
<trkpt lat="46.16831300" lon="7.22270893"><ele>494.799988</ele><time>2011-11-12T13:35:37Z</time></trkpt>
<trkpt lat="46.16851299" lon="7.22252897"><ele>493.200012</ele><time>2011-11-12T13:35:40Z</time></trkpt>
<trkpt lat="46.16852095" lon="7.22252394"><ele>493.200012</ele><time>2011-11-12T13:35:44Z</time></trkpt>
<trkpt lat="46.16852095" lon="7.22252394"><ele>493.200012</ele><time>2011-11-12T13:35:51Z</time></trkpt>
<trkpt lat="46.16852095" lon="7.22252394"><ele>493.200012</ele><time>2011-11-12T13:35:56Z</time></trkpt>
<trkpt lat="46.16956894" lon="7.22238698"><ele>492.200012</ele><time>2011-11-12T13:36:00Z</time></trkpt>
<trkpt lat="46.16887894" lon="7.22320195"><ele>498</ele><time>2011-11-12T13:36:01Z</time></trkpt>
<trkpt lat="46.16852095" lon="7.22252394"><ele>493.200012</ele><time>2011-11-12T13:36:06Z</time></trkpt>
<trkpt lat="46.16852095" lon="7.22252394"><ele>493.200012</ele><time>2011-11-12T13:36:11Z</time></trkpt>
<trkpt lat="46.16852095" lon="7.22252394"><ele>493.200012</ele><time>2011-11-12T13:36:13Z</time></trkpt>
<trkpt lat="46.16852095" lon="7.22252394"><ele>493.200012</ele><time>2011-11-12T13:36:17Z</time></trkpt>
<trkpt lat="46.16856395" lon="7.22263098"><ele>493.600006</ele><time>2011-11-12T13:36:19Z</time></trkpt>
<trkpt lat="46.16852095" lon="7.22252394"><ele>493.200012</ele><time>2011-11-12T13:36:23Z</time></trkpt>
<trkpt lat="46.16852095" lon="7.22245194"><ele>492.799988</ele><time>2011-11-12T13:36:28Z</time></trkpt>
<trkpt lat="46.16852095" lon="7.22240400"><ele>492.600006</ele><time>2011-11-12T13:36:29Z</time></trkpt>
<trkpt lat="46.16850696" lon="7.22220794"><ele>491.600006</ele><time>2011-11-12T13:36:35Z</time></trkpt>
<trkpt lat="46.16850000" lon="7.22215899"><ele>491.399994</ele><time>2011-11-12T13:36:40Z</time></trkpt>
<trkpt lat="46.16849799" lon="7.22215296"><ele>491.399994</ele><time>2011-11-12T13:36:43Z</time></trkpt>
<trkpt lat="46.16847795" lon="7.22207199"><ele>491</ele><time>2011-11-12T13:36:47Z</time></trkpt>
<trkpt lat="46.16843496" lon="7.22182497"><ele>489.799988</ele><time>2011-11-12T13:36:51Z</time></trkpt>
<trkpt lat="46.16847393" lon="7.22153999"><ele>488.399994</ele><time>2011-11-12T13:36:54Z</time></trkpt>
<trkpt lat="46.16852892" lon="7.22145500"><ele>488.200012</ele><time>2011-11-12T13:36:56Z</time></trkpt>
<trkpt lat="46.16852196" lon="7.22117395"><ele>486.799988</ele><time>2011-11-12T13:36:59Z</time></trkpt>
<trkpt lat="46.16851894" lon="7.22075997"><ele>484.600006</ele><time>2011-11-12T13:37:03Z</time></trkpt>
<trkpt lat="46.16874400" lon="7.22057993"><ele>484.200012</ele><time>2011-11-12T13:37:07Z</time></trkpt>
<trkpt lat="46.16879999" lon="7.22054196"><ele>484.200012</ele><time>2011-11-12T13:37:08Z</time></trkpt>
<trkpt lat="46.16894994" lon="7.22044196"><ele>484.200012</ele><time>2011-11-12T13:37:15Z</time></trkpt>
<trkpt lat="46.16961798" lon="7.22043592"><ele>485.200012</ele><time>2011-11-12T13:37:26Z</time></trkpt>
<trkpt lat="46.17001997" lon="7.22034599"><ele>484.799988</ele><time>2011-11-12T13:37:36Z</time></trkpt>
<trkpt lat="46.17026992" lon="7.22040097"><ele>485.200012</ele><time>2011-11-12T13:37:42Z</time></trkpt>
<trkpt lat="46.17048693" lon="7.22051195"><ele>486</ele><time>2011-11-12T13:37:48Z</time></trkpt>
<trkpt lat="46.17051694" lon="7.22048395"><ele>485.799988</ele><time>2011-11-12T13:37:53Z</time></trkpt>
<trkpt lat="46.17054393" lon="7.22028597"><ele>484.600006</ele><time>2011-11-12T13:37:57Z</time></trkpt>
<trkpt lat="46.17058592" lon="7.22001893"><ele>482.799988</ele><time>2011-11-12T13:38:01Z</time></trkpt>
<trkpt lat="46.17062096" lon="7.21979898"><ele>481.200012</ele><time>2011-11-12T13:38:04Z</time></trkpt>
<trkpt lat="46.17078692" lon="7.21950897"><ele>479.399994</ele><time>2011-11-12T13:38:07Z</time></trkpt>
<trkpt lat="46.17074895" lon="7.21943194"><ele>478.799988</ele><time>2011-11-12T13:38:10Z</time></trkpt>
<trkpt lat="46.17063495" lon="7.21972397"><ele>480.600006</ele><time>2011-11-12T13:38:13Z</time></trkpt>
<trkpt lat="46.17063495" lon="7.21972397"><ele>480.600006</ele><time>2011-11-12T13:38:18Z</time></trkpt>
<trkpt lat="46.17062992" lon="7.21974995"><ele>480.799988</ele><time>2011-11-12T13:39:10Z</time></trkpt>
</trkseg></trk></gpx>